     2.11           OBSERVATION DATA    G (GPS)             RINEX VERSION / TYPE
teqc 2010Oct21 OPUS Account 20111026 21:33:52UTC            PGM / RUN BY / DATE
D 1524                                                      MARKER NAME
1208                                                        MARKER NUMBER
CSMIDDLETON NGS                                             OBSERVER / AGENCY
0220390614 TRIMBLE R7 2.32                                  REC # / TYPE / VERS
12611996 TRM41249.00 NONE                                   ANT # / TYPE
  -755375.4563 -5525366.8369  3084992.7514                  APPROX POSITION XYZ
        2.0000        0.0000        0.0000                  ANTENNA: DELTA H/E/N
     1     1                                                WAVELENGTH FACT L1/2
     5    L1    L2    C1    P1    P2                        # / TYPES OF OBSERV
    15                                                      LEAP SECONDS
  2011     8    12     0     0   30.0000000     GPS         TIME OF FIRST OBS
                                                            END OF HEADER
 11  8 12  0  0 30.0000000  0  7G09G02G12G10G04G05G28
 -41737565.39557 -32468397.55955  22468197.1564                   22468196.7734
 -50696833.99258 -39449469.18056  21028653.0944                   21028649.5234
 -19452919.15257 -15107697.81255  23029034.4614                   23029033.2854
 -38191083.58657 -29708970.25855  21632497.2504                   21632496.6334
 -76014139.17658 -59173704.39556  20438513.4614                   20438512.2234
  -6960618.99257  -5374202.52754  24122622.2814                   24122625.3594
 -85941348.77356 -66943370.85953  23484727.2114                   23484727.1134
 11  8 12  0  1  0.0000000  0  7G09G02G12G10G04G05G28
 -41798914.57447 -32516202.16845  22456522.2894                   22456523.3484
 -50838395.69148 -39559776.96946  21001714.6564                   21001711.1884
 -19648710.24247 -15260262.26245  22991776.6644                   22991775.7504
 -38357448.09047 -29838604.88345  21600839.3284                   21600838.4304
 -76070296.00048 -59217462.96946  20427827.4534                   20427825.8524
  -7171468.54746  -5538500.62144  24082498.7344                   24082500.9384
 -85955848.12547 -66954669.19543  23481967.8204                   23481967.8484
 11  8 12  0  1 30.0000000  0  7G09G02G12G10G04G05G28
 -41859652.67647 -32563530.60245  22444964.5944                   22444964.4144
 -50979476.57448 -39669710.08646  20974867.8914                   20974864.3914
 -19844219.13747 -15412606.80545  22954572.6884                   22954571.4064
 -38523250.12947 -29967801.22745  21569287.8284                   21569287.1214
 -76125957.17248 -59260835.31246  20417235.2504                   20417234.1564
  -7382213.82047  -5702717.46544  24042394.9064                   24042397.9774
 -85969955.69146 -66965662.22743  23479283.1564                   23479283.9774
 11  8 12  0  2  0.0000000  0  7G09G02G12G10G04G05G28
 -41919797.99247 -32610397.14545  22433519.2034                   22433519.7584
 -51120092.78148 -39779281.13346  20948109.2344                   20948106.1564
 -20039459.59047 -15564742.17245  22917419.2664                   22917418.1884
 -38688502.63747 -30096569.37145  21537841.5004                   21537841.0234
 -76181140.88348 -59303835.62146  20406734.1024                   20406732.6564
  -7592868.08647  -5866863.37544  24002308.1254                   24002311.7194
 -85983688.95347 -66976363.64144  23476670.2194                   23476670.5704
 11  8 12  0  2 30.0000000  0  7G09G02G12G10G04G05G28
 -41979353.43047 -32656804.02045  22422186.3134                   22422186.9454
 -51260245.18448 -39888490.76246  20921439.0704                   20921435.5744
 -20234428.50847 -15716665.98045  22880318.0634                   22880316.7114
 -38853202.82048 -30224907.12145  21506500.0704                   21506499.5634
 -76235849.39548 -59346465.64146  20396323.3524                   20396321.9024
  -7803428.53147  -6030936.20744  23962240.0944                   23962243.3754
 -85997049.54347 -66986774.61744  23474127.9844                   23474128.1724
 11  8 12  0  3  0.0000000  0  7G09G02G12G10G04G05G28
 -42038324.24647 -32702755.35945  22410964.3674                   22410964.3634
 -51399935.87948 -39997340.62146  20894856.7114                   20894853.3634
 -20429126.70347 -15868378.82445  22843268.0004                   22843266.8054
 -39017350.87148 -30352814.64545  21475263.6724                   21475262.8674
 -76290087.77048 -59388729.31646  20386002.2504                   20386000.5864
  -8013895.05947  -6194935.83644  23922189.3054                   23922192.4924
 -86010041.55947 -66996898.42244  23471656.2194                   23471655.9534
 11  8 12  0  3 30.0000000  0  7G09G02G12G10G04G05G28
 -42096709.13747 -32748250.14145  22399854.7504                   22399854.6914
 -51539160.85248 -40105827.56646  20868363.3594                   20868360.0204
 -20623547.41847 -16019875.41445  22806271.1254                   22806269.6334
 -39180939.73847 -30480286.43745  21444133.5944                   21444132.7304
 -76343854.40648 -59430625.40646  20375770.7424                   20375769.2544
  -8224260.69147  -6358856.84844  23882157.7114                   23882161.4694
 -86022662.91446 -67006733.41444  23469254.2424                   23469254.9304
 11  8 12  0  4  0.0000000  0  7G09G02G12G10G04G05G28
 -42154509.84447 -32793289.70345  22388855.3834                   22388855.4384
 -51677919.87948 -40213951.44946  20841958.4694                   20841954.8324
 -20817687.15647 -16171153.08245  22769327.9924                   22769326.7154
 -39343965.74647 -30607319.64546  21413110.9224                   21413110.0004
 -76397150.60248 -59472154.91846  20365628.4534                   20365627.6024
  -8434521.82447  -6522696.43444  23842146.4454                   23842149.9064
 -86034914.19546 -67016280.01244  23466922.8834                   23466924.0514
 11  8 12  0  4 30.0000000  0  7G09G02G12G10G04G05G28
 -42211728.72747 -32837875.88745  22377966.5004                   22377967.1684
 -51816212.55948 -40321711.94546  20815642.0314                   20815638.7034
 -21011542.89147 -16322209.46145  22732438.0234                   22732436.4774
 -39506425.48048 -30733911.59445  21382195.9844                   21382195.1954
 -76449978.04748 -59513319.16846  20355576.3364                   20355574.7894
  -8644675.12547  -6686452.01244  23802155.4064                   23802158.2154
 -86046796.63746 -67025539.24244  23464661.6414                   23464663.0234
 11  8 12  0  5  0.0000000  0  7G09G02G12G10G04G05G28
 -42268368.53547 -32882010.85945  22367188.6884                   22367189.2934
 -51954039.39148 -40429109.44546  20789414.2344                   20789410.8204
 -21205112.31247 -16473042.73845  22695602.5704                   22695601.4654
 -39668316.54348 -30860060.43445  21351389.2814                   21351387.8524
 -76502339.23848 -59554120.10546  20345612.0164                   20345610.9534
  -8854717.82047  -6850121.41044  23762185.4384                   23762187.8914
 -86058311.92646 -67034512.39143  23462470.5164                   23462472.1334
 11  8 12  0  5 30.0000000  0  7G09G02G12G10G04G05G28
 -42324436.48447 -32925700.21945  22356519.5394                   22356519.5204
 -52091405.57848 -40536148.00846  20763274.6174                   20763270.9844
 -21398397.78147 -16623654.72345  22658822.1334                   22658821.0514
 -39829640.77347 -30985767.58646  21320690.0704                   21320689.0704
 -76554241.14848 -59594563.16046  20335735.3834                   20335733.9774
  -9064651.81247  -7013706.10544  23722235.4454                   23722238.7544
 -86069466.18746 -67043204.21143  23460347.3284                   23460349.7274
 11  8 12  0  6  0.0000000  0  7G09G02G12G10G04G05G28
 -42379934.21547 -32968945.26645  22345958.9844                   22345958.7734
 -52228309.71148 -40642826.51246  20737222.6414                   20737218.9774
 -21591395.45747 -16774042.48445  22622095.9384                   22622094.3204
 -39990394.07447 -31111029.84846  21290099.6564                   21290098.7854
 -76605684.84448 -59634649.16446  20325946.1724                   20325944.9454
  -9274473.28547  -7177203.14144  23682307.7734                   23682311.0864
 -86080260.22746 -67051615.32444  23458294.2584                   23458295.8954
 11  8 12  0  6 30.0000000  0  7G09G02G12G10G04G05G28
 -40859437.66847 -31784142.78145  22635299.7814                   22635300.1804
 -50789322.47348 -39521537.71546  21011052.6724                   21011049.2854
 -20208671.46947 -15696595.19145  22885218.9304                   22885217.8244
 -38575143.69148 -30008237.30545  21559412.8284                   21559411.9024
 -75081246.30548 -58446774.98046  20616037.1954                   20616035.7074
  -7908747.28947  -6113000.84444  23942196.8914                   23942199.8364
 -84515270.64546 -65832143.10243  23756102.4064                   23756103.6994
 11  8 12  0  7  0.0000000  0  7G09G02G12G10G04G05G28
 -40913802.09047 -31826504.71545  22624954.5234                   22624954.4144
 -50925301.84448 -39627495.62946  20985176.8134                   20985172.9384
 -20401084.87147 -15846527.66845  22848604.4534                   22848603.0984
 -38734746.35948 -30132602.98046  21529041.7114                   21529040.4494
 -75131779.58248 -58486151.57446  20606420.8914                   20606419.5594
  -8118333.62546  -6276314.65644  23902313.5634                   23902316.6254
 -84525348.38347 -65839996.05944  23754184.8674                   23754185.7344
 11  8 12  0  7 30.0000000  0  7G09G02G12G10G04G05G28
 -40967607.47347 -31868431.00845  22614716.1954                   22614715.9694
 -51060822.93048 -39733096.44546  20959387.5474                   20959384.2584
 -20593205.57047 -15996232.09845  22812045.0394                   22812043.6914
 -38893773.00048 -30256519.80146  21498779.5164                   21498778.5784
 -75181864.52048 -58525178.79746  20596890.3204                   20596889.3984
  -8327801.38747  -6439536.08244  23862453.3054                   23862455.8204
 -84535073.74247 -65847574.37143  23752334.1334                   23752334.9694
 11  8 12  0  8  0.0000000  0  7G09G02G12G10G04G05G28
 -41020860.05947 -31909926.55545  22604582.2664                   22604582.2814
 -51195889.60248 -39838343.18046  20933685.1024                   20933681.4924
 -20785034.47347 -16145709.12145  22775540.0784                   22775539.3324
 -39052224.12548 -30379988.18046  21468627.4224                   21468626.7114
 -75231506.85548 -58563861.13746  20587443.6414                   20587442.2664
  -8537151.50047  -6602665.83644  23822615.1724                   23822617.5594
 -84544451.40247 -65854881.75843  23750550.2814                   23750549.6724
 11  8 12  0  8 30.0000000  0  7G09G02G12G10G04G05G28
 -41073563.90647 -31950994.51645  22594552.6334                   22594553.1564
 -51330503.03948 -39943236.74646  20908069.4304                   20908065.8794
 -20976569.68447 -16294957.31245  22739093.3284                   22739090.8164
 -39210098.31248 -30503006.98045  21438584.6024                   21438583.6724
 -75280710.12148 -58602201.34446  20578080.5474                   20578079.1644
  -8746381.85947  -6765702.28544  23782799.9614                   23782802.2584
 -84553484.89547 -65861920.95343  23748830.6564                   23748830.3914
 11  8 12  0  9  0.0000000  0  7G09G02G12G10G04G05G28
 -41125721.38347 -31991636.72745  22584627.9384                   22584627.9494
 -51464663.35948 -40047777.23046  20882539.1954                   20882535.5044
 -21167809.30947 -16443975.20345  22702701.8984                   22702700.0084
 -39367392.65648 -30625573.95745  21408652.4384                   21408651.7504
 -75329476.32848 -58640200.97746  20568800.6804                   20568799.1954
  -8955489.57847  -6928643.18044  23743007.5554                   23743010.2544
 -84562175.57847 -65868692.99243  23747177.9844                   23747176.9734
 11  8 12  0  9 30.0000000  0  7G09G02G12G10G04G05G28
 -41177336.76647 -32031856.54745  22574805.5004                   22574805.3594
 -51598372.26648 -40151965.97746  20857095.2734                   20857091.6994
 -21358752.14547 -16592761.73845  22666365.5634                   22666365.0124
 -39524106.20348 -30747688.36746  21378830.6724                   21378829.8444
 -75377808.89548 -58677862.71946  20559603.1564                   20559601.9344
  -9164473.11347  -7091487.29744  23703239.3984                   23703242.2384
 -84570526.35547 -65875200.22343  23745587.9694                   23745587.9064
 11  8 12  0 10  0.0000000  0  7G09G02G12G10G04G05G28
 -41228413.38747 -32071656.54345  22565086.1804                   22565086.4344
 -51731630.35248 -40255803.42246  20831737.5004                   20831733.6094
 -21549395.52347 -16741314.98045  22630087.8914                   22630085.7424
 -39680236.42248 -30869348.24646  21349120.3204                   21349119.4964
 -75425710.70748 -58715188.79746  20550487.6954                   20550486.4614
  -9373329.96947  -7254232.70344  23663495.4064                   23663497.1484
 -84578539.41046 -65881444.30543  23744063.4064                   23744063.8054
 11  8 12  0 10 30.0000000  0  7G09G02G12G10G04G05G28
 -41278953.40247 -32111038.40645  22555468.2584                   22555468.8674
 -51864437.26248 -40359289.30146  20806464.9304                   20806461.5984
 -21739736.14547 -16889632.35545  22593867.6334                   22593865.7734
 -39835779.79348 -30990550.84046  21319521.7974                   21319520.8054
 -75473183.38748 -58752180.50046  20541454.1724                   20541452.7384
  -9582056.26647  -7416876.34844  23623775.8914                   23623778.1884
 -84586215.86346 -65887426.12543  23742603.2194                   23742603.8714
 11  8 12  0 11  0.0000000  0  7G09G02G12G10G04G05G28
 -41328962.51247 -32150006.60944  22545952.2424                   22545952.9964
 -51996796.07448 -40462426.02346  20781277.9144                   20781274.3634
 -21929774.34447 -17037713.96945  22557703.4064                   22557702.7234
 -39990736.95348 -31111296.64846  21290033.9614                   21290032.6134
 -75520232.08648 -58788841.80546  20532500.7114                   20532499.4304
  -9790652.07447  -7579418.33244  23584080.9454                   23584083.0204
 -84593560.18746 -65893149.21143  23741205.7034                   23741206.8404
 11  8 12  0 11 30.0000000  0  7G09G02G12G10G04G05G28
 -41378441.67647 -32188561.84445  22536536.1094                   22536537.1054
 -52128705.53948 -40565212.61346  20756176.3444                   20756172.9144
 -22119505.75847 -17185556.55545  22521599.8984                   22521597.7034
 -40145103.43748 -31231582.18046  21260659.3674                   21260658.3054
 -75566857.46948 -58825173.27346  20523628.6484                   20523627.0004
  -9999112.55947  -7741854.86344  23544412.2814                   23544414.7544
 -84600572.34046 -65898613.41043  23739869.6484                   23739872.2114
 11  8 12  0 12  0.0000000  0  7G09G02G12G10G04G05G28
 -41427398.98447 -32226710.44545  22527220.5634                   22527221.2974
 -52260171.30548 -40667653.45746  20731159.2194                   20731155.6294
 -22308933.21147 -17333162.37545  22485552.4614                   22485550.5124
 -40298882.01648 -31351409.60546  21231395.8984                   21231394.9104
 -75613066.84448 -58861180.57446  20514835.3594                   20514833.9614
 -10207440.18447  -7904187.89144  23504768.5394                   23504770.8134
 -84607259.57446 -65903824.44143  23738598.4454                   23738599.5354
 11  8 12  0 12 30.0000000  0  7G09G02G12G10G04G05G28
 -41475836.78947 -32264454.24645  22518003.0004                   22518003.7384
 -52391192.96548 -40769748.25046  20706226.4534                   20706222.8674
 -22498053.25047 -17480528.52745  22449563.4694                   22449562.4184
 -40452069.25448 -31470776.25846  21202245.3834                   21202244.7544
 -75658861.87548 -58896865.00846  20506120.6254                   20506119.2544
 -10415631.37547  -8066414.58644  23465151.3134                   23465153.1484
 -84613622.77346 -65908782.97743  23737387.9384                   23737389.1294
 11  8 12  0 13  0.0000000  0  7G09G02G12G10G04G05G28
 -41523756.19147 -32301794.11345  22508884.5234                   22508885.0314
 -52521769.26648 -40871496.00846  20681378.6024                   20681375.2734
 -22686861.37148 -17627651.66045  22413635.3524                   22413634.0124
 -40604660.98448 -31589678.86346  21173207.8524                   21173207.5744
 -75704243.31248 -58932227.16046  20497484.7194                   20497483.5824
 -10623681.42247  -8228531.32844  23425559.8524                   23425562.1724
 -84619662.15246 -65913489.13744  23736238.8754                   23736239.9884
 11  8 12  0 13 30.0000000  0  7G09G02G12G10G04G05G28
 -41571163.04747 -32338734.55945  22499863.4694                   22499864.0314
 -52651903.02748 -40972898.93746  20656615.2344                   20656611.6334
 -22875357.74647 -17774531.91045  22377764.9224                   22377763.7974
 -40756657.01248 -31708117.29746  21144283.9924                   21144283.1684
 -75749216.02048 -58967270.82846  20488926.7424                   20488925.2774
 -10831590.11747  -8390537.90644  23385995.9454                   23385998.4414
 -84625381.90647 -65917946.23444  23735150.6644                   23735152.1454
 11  8 12  0 14  0.0000000  0  7G09G02G12G10G04G05G28
 -40042639.03947 -31147676.94945  22790731.8594                   22790732.2504
 -51206170.54348 -39846354.12946  20931728.8834                   20931725.2034
 -21488113.95747 -16693562.63345  22641748.3204                   22641747.1684
 -39332630.37548 -30598486.11746  21415267.5164                   21415266.8204
 -74218360.96548 -57774396.75846  20780238.8054                   20780237.3594
  -9463927.43447  -7324826.53544  23646253.7974                   23646255.8714
 -83055363.86347 -64694555.69144  24033915.1564                   24033917.0514
 11  8 12  0 14 30.0000000  0  7G09G02G12G10G04G05G28
 -40089031.10947 -31183826.67245  22781903.7194                   22781904.3524
 -51335422.08248 -39947069.59846  20907133.2114                   20907129.5124
 -21675980.47347 -16839952.06646  22605999.3524                   22605998.1414
 -39483429.78948 -30715992.11746  21386570.8204                   21386570.2074
 -74262524.53148 -57808809.92646  20771834.6174                   20771833.1954
  -9671545.90247  -7486606.96544  23606744.5864                   23606747.0434
 -83060451.41047 -64698520.16443  24032947.4224                   24032948.9304
 11  8 12  0 15  0.0000000  0  7G09G02G12G10G04G05G28
 -40134923.13747 -31219586.75444  22773170.7734                   22773170.8874
 -51464236.34448 -40047444.33646  20882620.4384                   20882617.0084
 -21863531.23847 -16986095.45745  22570308.8834                   22570307.9144
 -39633630.12948 -30833031.29346  21357988.8054                   21357988.2344
 -74306289.99248 -57842912.89146  20763506.0704                   20763504.6604
  -9879017.60247  -7648273.03144  23567264.6804                   23567266.0704
 -83065228.56647 -64702242.78943  24032038.0084                   24032039.8834
 11  8 12  0 15 30.0000000  0  7G09G02G12G10G04G05G28
 -40180319.23447 -31254960.39145  22764532.1884                   22764532.9344
 -51592614.78148 -40147479.47346  20858190.7814                   20858187.3954
 -22050764.96547 -17131991.80945  22534679.7274                   22534677.6914
 -39783230.18748 -30949602.73446  21329520.9224                   21329519.9734
 -74349660.85548 -57876708.37546  20755253.4224                   20755251.8714
 -10086341.04347  -7809823.58244  23527811.8364                   23527813.7234
 -83069698.32446 -64705725.86743  24031188.1254                   24031188.8834
 11  8 12  0 16  0.0000000  0  7G09G02G12G10G04G05G28
 -40225217.13747 -31289945.82445  22755988.3594                   22755988.7894
 -51720552.56248 -40247171.23446  20833845.0944                   20833841.7154
 -22237673.19947 -17277634.57845  22499112.5634                   22499111.1374
 -39932222.43448 -31065700.54346  21301168.9224                   21301167.8984
 -74392634.18448 -57910194.09846  20747075.8594                   20747074.4224
 -10293507.65247  -7971251.93444  23488389.4614                   23488390.9024
 -83073857.28546 -64708966.68742  24030396.8054                   24030397.6374
 11  8 12  0 16 30.0000000  0  7G09G02G12G10G04G05G28
 -40269622.12147 -31324547.16444  22747539.0164                   22747539.1844
 -51848052.22748 -40346521.60946  20809582.8984                   20809579.1254
 -22424255.84047 -17423023.58645  22463605.8524                   22463605.8634
 -40080606.68448 -31181324.57846  21272932.2894                   21272931.0744
 -74435214.58648 -57943373.64146  20738972.9144                   20738971.6764
 -10500517.05547  -8132557.77344  23448996.8754                   23448998.5474
 -83077709.57446 -64711968.65642  24029662.5864                   24029665.5704
 11  8 12  0 17  0.0000000  0  7G09G02G12G10G04G05G28
 -40313537.78947 -31358767.21944  22739181.4384                   22739181.9024
 -51975115.04748 -40445531.58246  20785403.4454                   20785400.2544
 -22610511.03547 -17568157.44545  22428163.5164                   22428161.4454
 -40228381.07048 -31296473.42246  21244811.7344                   21244810.1484
 -74477405.00848 -57976249.32446  20730944.6484                   20730943.1884
 -10707366.62147  -8293739.06244  23409634.5634                   23409635.9574
 -83081257.32046 -64714733.30942  24028987.3524                   24028990.8834
 11  8 12  0 17 30.0000000  0  7G09G02G12G10G04G05G28
 -40356966.26247 -31392607.62544  22730917.6414                   22730917.7584
 -52101740.59048 -40544200.80946  20761307.5164                   20761303.8714
 -22796435.34847 -17713033.57445  22392783.6884                   22392781.7074
 -40375542.47348 -31411144.59446  21216807.5394                   21216806.6094
 -74519206.76248 -58008822.13746  20722989.6804                   20722988.5984
 -10914052.84847  -8454793.06644  23370303.5084                   23370304.6724
 -83084502.16846 -64717261.91042  24028370.7114                   24028373.2034
 11  8 12  0 18  0.0000000  0  7G09G02G12G10G04G05G28
 -40399913.61747 -31426073.13744  22722744.8754                   22722745.1884
 -52227932.53148 -40642532.17646  20737293.9064                   20737290.3834
 -22982028.98047 -17857651.92645  22357465.5164                   22357464.9144
 -40522091.57848 -31525338.66846  21188920.2894                   21188919.0904
 -74560625.29348 -58041096.34846  20715108.2894                   20715107.0744
 -11120575.52347  -8615719.62145  23331002.6484                   23331004.7934
 -83087448.66446 -64719558.06643  24027810.9064                   24027812.6334
 11  8 12  0 18 30.0000000  0  7G09G02G12G10G04G05G28
 -40442381.84447 -31459165.30944  22714663.4924                   22714664.0514
 -52353689.88748 -40740524.89546  20713362.9924                   20713359.4494
 -23167287.87148 -18002009.48045  22322212.7114                   22322211.0354
 -40668024.64548 -31639052.70746  21161150.1884                   21161148.9804
 -74601661.55948 -58073072.69146  20707299.3364                   20707298.3204
 -11326930.16447  -8776515.25445  23291734.5474                   23291736.4224
 -83090097.25046 -64721622.06243  24027306.6564                   24027309.0704
 11  8 12  0 19  0.0000000  0  7G09G02G12G10G04G05G28
 -40484375.05547 -31491887.34445  22706671.8594                   22706672.9884
 -52479014.24248 -40838180.21546  20689514.7344                   20689511.1844
 -23352210.44947 -18146105.01645  22287022.6334                   22287020.9654
 -40813340.75048 -31752286.00446  21133497.6414                   21133496.2894
 -74642318.96148 -58104753.82846  20699562.4774                   20699561.1764
 -11533115.30147  -8937178.83644  23252498.9224                   23252500.7934
 -83092451.17246 -64723456.47344  24026858.9844                   24026860.9924
 11  8 12  0 19 30.0000000  0  7G09G02G12G10G04G05G28
 -40525898.62147 -31524243.44544  22698771.0704                   22698771.6024
 -52603908.54748 -40935500.42646  20665748.0084                   20665744.1994
 -23536796.78547 -18289938.49245  22251897.5394                   22251895.8014
 -40958039.82448 -31865038.49646  21105962.2814                   21105960.9064
 -74682602.19148 -58136143.38346  20691896.7114                   20691895.5594
 -11739130.34447  -9097709.86344  23213295.4304                   23213297.1334
 -83094514.39846 -64725064.35543  24026466.8674                   24026468.0434
 11  8 12  0 20  0.0000000  0  7G09G02G12G10G04G05G28
 -40566949.49647 -31556231.19144  22690959.2114                   22690960.1454
 -52728367.42648 -41032481.35546  20642064.2664                   20642060.8484
 -23721038.12548 -18433503.15245  22216837.4384                   22216835.7974
 -41102113.88748 -31977303.97746  21078545.4774                   21078544.5984
 -74722507.68048 -58167238.60546  20684303.0474                   20684302.1684
 -11944966.08247  -9258101.18445  23174126.7194                   23174127.5234
 -83096283.06646 -64726442.70743  24026130.4694                   24026132.2114
 11  8 12  0 20 30.0000000  0  7G09G02G12G10G04G05G28
 -40607538.14547 -31587858.75444  22683235.1724                   22683235.9024
 -52852398.18048 -41129128.67646  20618462.0164                   20618458.4614
 -23904938.85247 -18576802.42645  22181841.6254                   22181839.7664
 -41245567.67648 -32089086.10946  21051247.1094                   21051246.1134
 -74762044.68048 -58198046.69546  20676779.2894                   20676777.9454
 -12150626.20747  -9418355.65245  23134990.5634                   23134992.1094
 -83097765.95746 -64727598.40243  24025847.2664                   24025850.2544
 11  8 12  0 21  0.0000000  0  7G09G02G12G10G04G05G28
 -40647663.40647 -31619125.26244  22675600.2194                   22675600.4184
 -52975997.78148 -41225440.02046  20594941.6804                   20594937.9654
 -24088491.95747 -18719830.83245  22146913.5004                   22146911.3014
 -41388394.56248 -32200379.76646  21024067.9304                   21024067.0664
 -74801211.48848 -58228566.31646  20669326.4614                   20669325.0084
 -12356104.16847  -9578468.19145  23095888.9454                   23095890.0554
 -83098961.14846 -64728529.86343  24025620.2734                   24025622.7854
 11  8 12  0 21 30.0000000  0  7G09G02G12G10G04G05G28
 -39111907.78947 -30422432.62944  22967844.2034                   22967845.3364
 -51523742.82848 -40093812.76246  20871296.8594                   20871293.0634
 -22696269.60948 -17634982.21946  22411844.1174                   22411842.9774
 -39955168.62148 -31083580.30546  21296802.1334                   21296800.8014
 -73264589.49648 -57031198.56246  20961735.8364                   20961734.2894
 -10985970.91047  -8510831.73045  23356616.3364                   23356617.7424
 -81524450.74646 -63501638.82843  24325240.5394                   24325241.9064
 11  8 12  0 22  0.0000000  0  7G09G02G12G10G04G05G28
 -39151117.84847 -30452986.01644  22960383.1644                   22960383.5904
 -51646483.19548 -40189454.57846  20847940.1254                   20847936.4184
 -22879122.35947 -17777464.85245  22377048.5784                   22377046.5744
 -40096738.06248 -31193894.14146  21269861.7974                   21269861.3874
 -73303024.69148 -57061148.09446  20954421.6254                   20954420.4384
 -11191077.60947  -8670654.98445  23317586.2894                   23317586.8484
 -81525077.93046 -63502127.70343  24325120.4844                   24325123.3244
 11  8 12  0 22 30.0000000  0  7G09G02G12G10G04G05G28
 -39189879.29747 -30483189.80944  22953007.1254                   22953007.8674
 -51768799.29748 -40284765.79746  20824664.1484                   20824659.8874
 -23061625.46948 -17919675.07445  22342319.3054                   22342317.9614
 -40237679.85248 -31303718.89846  21243041.7114                   21243040.5084
 -73341101.84848 -57090818.63746  20947176.3054                   20947174.8554
 -11395998.34447  -8830333.32845  23278590.6174                   23278591.9144
 -81525428.48846 -63502401.05543  24325054.0704                   24325056.4264
 11  8 12  0 23  0.0000000  0  7G09G02G12G10G04G05G28
 -39228192.46947 -30513044.29344  22945716.3524                   22945718.0044
 -51890688.57448 -40379744.42646  20801469.1414                   20801465.3094
 -23243772.64147 -18061607.89845  22307657.6174                   22307656.7424
 -40377988.74248 -31413050.49646  21216341.9774                   21216340.6764
 -73378820.25448 -57120209.62946  20939998.5314                   20939997.0904
 -11600727.02747  -8989862.01645  23239631.9924                   23239632.8984
 -81525500.91046 -63502457.60542  24325040.6024                   24325043.1134
 11  8 12  0 23 30.0000000  0  7G09G02G12G10G04G05G28
 -39266061.36747 -30542552.59844  22938510.1884                   22938511.3484
 -52012152.53548 -40474391.64546  20778355.4694                   20778351.6724
 -23425562.49648 -18203262.27045  22273064.2734                   22273062.9384
 -40517663.73448 -31521888.13746  21189762.6174                   21189761.4804
 -73416183.08648 -57149323.54746  20932888.4924                   20932887.2034
 -11805261.55947  -9149239.40645  23200710.0394                   23200711.2274
 -81525298.50046 -63502299.91842  24325078.9774                   24325081.8524
 11  8 12  0 24  0.0000000  0  7G09G02G12G10G04G05G28
 -39303490.76247 -30571718.44544  22931388.2344                   22931388.6724
 -52133193.52348 -40568709.27046  20755322.1024                   20755318.6094
 -23606994.05147 -18344637.50445  22238538.7664                   22238536.8204
 -40656704.20348 -31630231.34846  21163304.3984                   21163302.8554
 -73453194.24248 -57178163.43446  20925845.4924                   20925844.1134
 -12009600.65247  -9308464.51645  23161825.3984                   23161826.8484
 -81524824.74646 -63501930.87942  24325169.3834                   24325171.8634
 11  8 12  0 24 30.0000000  0  7G09G02G12G10G04G05G28
 -39340484.77347 -30600545.02045  22924348.1564                   22924349.0984
 -52253812.99648 -40662698.44946  20732368.6724                   20732365.2304
 -23788065.54748 -18485732.12546  22204082.1954                   22204080.6994
 -40795109.77748 -31738079.82446  21136966.5864                   21136965.5784
 -73489857.55548 -57206732.27046  20918868.8364                   20918867.5314
 -12213742.42647  -9467535.86745  23122978.8284                   23122979.5124
 -81524082.64846 -63501352.74243  24325311.1254                   24325313.2504
 11  8 12  0 25  0.0000000  0  7G09G02G12G10G04G05G28
 -39377044.71547 -30629033.37144  22917391.3754                   22917391.8914
 -52374009.93048 -40756358.38346  20709496.2664                   20709492.4614
 -23968772.59448 -18626542.73446  22169694.8754                   22169693.1644
 -40932876.12548 -31845430.21146  21110750.0474                   21110749.2734
 -73526172.96148 -57235029.99646  20911958.3594                   20911956.8554
 -12417681.80947  -9626449.51245  23084170.5474                   23084171.5664
 -81523072.49246 -63500565.72343  24325503.3134                   24325505.5434
 11  8 12  0 25 30.0000000  0  6G09G02G12G10G04G05
 -39413173.99247 -30657186.11744  22910515.9384                   22910517.0824
 -52493785.05948 -40849689.62946  20686703.7194                   20686700.0554
 -24149112.73048 -18767067.48445  22135377.3054                   22135375.0044
 -41070001.18048 -31952280.88346  21084656.2344                   21084655.4654
 -73562142.79748 -57263058.44946  20905113.5474                   20905112.2664
 -12621415.94947  -9785203.23845  23045400.7034                   23045401.5904
 11  8 12  0 26  0.0000000  0  6G09G02G12G10G04G05
 -39448878.44947 -30685007.83644  22903722.0554                   22903722.4384
 -52613141.77348 -40942694.85546  20663990.7274                   20663986.7934
 -24329085.86348 -18907306.21946  22101129.4924                   22101128.2544
 -41206485.97348 -32058632.65246  21058683.7974                   21058682.9924
 -73597772.15248 -57290821.59046  20898333.6334                   20898332.1994
 -12824944.30147  -9943796.62145  23006670.8914                   23006671.3674
 11  8 12  0 26 30.0000000  0  6G09G02G12G10G04G05
 -39484155.98447 -30712496.91445  22897008.6414                   22897009.5594
 -52732075.20348 -41035370.25046  20641358.4614                   20641354.8794
 -24508683.95748 -19047252.72346  22066952.8444                   22066951.3984
 -41342323.22748 -32164479.83646  21032835.0864                   21032833.8054
 -73633058.06648 -57318317.11346  20891618.9924                   20891617.4144
 -13028258.58247 -10102223.21545  22967981.1954                   22967981.5354
 11  8 12  0 27  0.0000000  0  6G09G02G12G10G04G05
 -39519007.64547 -30739654.11745  22890376.5554                   22890377.5984
 -52850584.13748 -41127714.85246  20618806.8834                   20618803.1454
 -24687902.39148 -19186903.40245  22032849.1094                   22032846.7034
 -41477508.70348 -32269819.14546  21007110.2424                   21007108.9454
 -73668000.68748 -57345545.13346  20884969.0234                   20884968.0314
 -13231353.95747 -10260479.22745  22929333.4224                   22929333.9384
 11  8 12  0 27 30.0000000  0  6G09G02G12G10G04G05
 -39553435.07047 -30766480.77345  22883825.7114                   22883826.0274
 -52968667.73048 -41219728.02746  20596336.6564                   20596332.3984
 -24866736.79348 -19326254.82446  21998817.4224                   21998816.2894
 -41612038.91448 -32374647.85546  20981509.6564                   20981508.5514
 -73702600.68748 -57372506.17646  20878385.0474                   20878384.1764
 -13434225.87147 -10418561.13345  22890728.1484                   22890728.3134
 11  8 12  0 28  0.0000000  0  6G09G02G12G10G04G05
 -39587439.75047 -30792977.98445  22877354.7584                   22877355.7974
 -53086324.54348 -41311408.64146  20573947.1884                   20573943.4304
 -25045183.13748 -19465303.87146  21964860.6254                   21964858.7734
 -41745910.36348 -32478963.25846  20956035.0084                   20956033.9534
 -73736858.52348 -57399200.59846  20871865.8204                   20871864.7194
 -13636868.98847 -10576464.73045  22852165.9304                   22852167.1294
 11  8 12  0 28 30.0000000  0  6G09G02G12G10G04G05
 -39621026.86347 -30819149.83645  22870962.8284                   22870964.5354
 -53203557.46548 -41402758.94546  20551638.3594                   20551634.5004
 -25223240.34848 -19604049.69546  21930977.0554                   21930975.1994
 -41879123.30948 -32582765.53546  20930685.6884                   20930684.1724
 -73770778.23048 -57425631.53946  20865411.5004                   20865410.3554
 -13839282.51247 -10734189.42645  22813647.6954                   22813648.4614
 11  8 12  0 29  0.0000000  0  6G09G02G12G10G04G05
 -39654201.50447 -30845000.27044  22864650.1724                   22864651.4224
 -53320368.85248 -41493780.78546  20529410.1334                   20529406.2274
 -25400907.67648 -19742491.75446  21897168.0944                   21897166.5634
 -42011677.90247 -32686054.80146  20905460.7814                   20905460.0984
 -73804364.43048 -57451802.59446  20859020.1254                   20859018.8954
 -14041465.33647 -10891734.36745  22775173.5004                   22775174.4964
 11  8 12  0 29 30.0000000  0  6G09G02G12G10G04G05
 -38111547.93747 -29642932.61344  23158207.4924                   23158208.5234
 -51861338.00448 -40356873.61746  20807054.6564                   20807050.7074
 -24002759.05948 -18653025.26646  22163227.0314                   22163225.5864
 -40568149.96948 -31561227.80546  21180155.3134                   21180154.3364
 -72262199.93448 -56250115.96946  21152484.3134                   21152483.1174
 -12667989.59847  -9821493.40245  23036537.3754                   23036537.7504
 11  8 12  0 30  0.0000000  0  6G09G02G12G10G04G05
 -38143911.51247 -29668151.02044  23152049.2034                   23152050.0744
 -51977313.13748 -40447243.83646  20784984.9064                   20784981.2854
 -24179643.26647 -18790857.08646  22129567.2584                   22129565.4304
 -40699386.53948 -31663490.04746  21155181.4454                   21155180.6914
 -72295129.54748 -56275775.40246  21146218.0634                   21146216.9494
 -12869706.07047  -9978674.95345  22998152.0084                   22998152.7544
 11  8 12  0 30 30.0000000  0  6G09G02G12G10G04G05
 -38175876.96147 -29693059.21144  23145966.3594                   23145967.3284
 -52092873.46548 -40537290.83647  20762994.5634                   20762990.7504
 -24356134.19548 -18928382.46146  22095981.7194                   22095979.9414
 -40829963.69948 -31765238.44146  21130333.5784                   21130332.5314
 -72327736.49648 -56301183.40646  21140013.2114                   21140011.9804
 -13071186.94147 -10135672.92245  22959810.5944                   22959811.9064
 11  8 12  0 31  0.0000000  0  6G09G02G12G10G04G05
 -38207450.11747 -29717661.73044  23139957.8204                   23139959.1174
 -52208022.01248 -40627016.96547  20741082.3284                   20741078.5234
 -24532231.50448 -19065601.09846  22062471.3444                   22062470.4964
 -40959882.46548 -31866473.82046  21105611.0394                   21105609.3444
 -72360025.52048 -56326343.68046  21133868.3754                   21133867.5984
 -13272431.68047 -10292486.89845  22921515.1024                   22921516.1604
 11  8 12  0 31 30.0000000  0  6G09G02G12G10G04G05
 -38238632.02047 -29741959.39544  23134024.9224                   23134025.3594
 -52322757.57448 -40716421.28946  20719249.0704                   20719245.4964
 -24707930.26248 -19202509.18746  22029036.9614                   22029035.3284
 -41089138.70748 -31967192.94546  21081014.3984                   21081012.8364
 -72391996.74648 -56351256.31646  21127784.7194                   21127783.6094
 -13473435.36747 -10449113.04745  22883265.8594                   22883266.5084
 11  8 12  0 32  0.0000000  0  6G09G02G12G10G04G05
 -38269428.28547 -29765956.54744  23128163.8674                   23128165.1134
 -52437083.44548 -40805506.37146  20697493.3834                   20697490.0084
 -24883230.64848 -19339106.87946  21995678.8134                   21995676.7894
 -41217732.98448 -32067396.25846  21056543.8754                   21056542.1604
 -72423654.78548 -56375924.91846  21121760.4694                   21121759.3164
 -13674197.04347 -10605550.60545  22845061.9304                   22845062.5704
 11  8 12  0 32 30.0000000  0  6G09G02G12G10G04G05
 -38299842.85547 -29789656.28544  23122376.9924                   23122377.8484
 -52551000.69148 -40894273.03946  20675815.7194                   20675811.9534
 -25058130.65248 -19475392.56246  21962396.3524                   21962394.6804
 -41345664.57048 -32167083.17646  21032199.0474                   21032197.6914
 -72455002.68048 -56400351.84446  21115795.2034                   21115793.7304
 -13874714.35247 -10761797.73445  22806905.0314                   22806904.9344
 11  8 12  0 33  0.0000000  0  6G09G02G12G10G04G05
 -38329880.60947 -29813062.38344  23116660.1954                   23116661.7664
 -52664512.10548 -40982723.48046  20654215.0394                   20654211.6604
 -25232629.29348 -19611365.49246  21929190.5084                   21929188.3634
 -41472933.41048 -32266253.67246  21007980.7344                   21007979.5004
 -72486044.09448 -56424539.95746  21109888.2344                   21109886.9654
 -14074986.00447 -10917853.45345  22768794.3914                   22768794.6054
 11  8 12  0 33 30.0000000  0  6G09G02G12G10G04G05
 -38359542.18447 -29836175.37544  23111016.0784                   23111017.3834
 -52777615.48848 -41070855.97346  20632692.5784                   20632688.7854
 -25406721.48848 -19747021.71146  21896061.5704                   21896059.9694
 -41599535.53148 -32364904.64546  20983888.7034                   20983887.6254
 -72516778.90248 -56448489.15646  21104039.7974                   21104038.2584
 -14275006.24647 -11073713.28945  22730731.8834                   22730732.0824
 11  8 12  0 34  0.0000000  0  6G09G02G12G10G04G05
 -38388830.27047 -29858997.32444  23105442.9064                   23105444.2664
 -52890311.16048 -41158670.77046  20611247.3914                   20611243.3554
 -25580403.52347 -19882358.32046  21863010.9384                   21863009.6174
 -41725468.64548 -32463034.32046  20959924.3284                   20959923.6724
 -72547208.28948 -56472200.35946  21098248.6644                   21098247.9534
 -14474771.25847 -11229374.23045  22692717.6414                   22692718.0354
 11  8 12  0 34 30.0000000  0  6G09G02G12G10G04G05
 -38417751.00447 -29881533.04344  23099939.3204                   23099940.4614
 -53002602.76248 -41246170.71146  20589878.6024                   20589874.8834
 -25753675.59448 -20017375.46946  21830038.3204                   21830036.4304
 -41850734.16848 -32560643.78946  20936087.1724                   20936086.3594
 -72577337.43748 -56495677.61746  21092515.4064                   21092514.4614
 -14674281.28947 -11384836.50045  22654751.4224                   22654752.4064
 11  8 12  0 35  0.0000000  0  6G09G02G12G10G04G05
 -38446306.56647 -29903784.21144  23094505.5634                   23094507.6804
 -53114490.00448 -41333355.57046  20568587.4304                   20568583.5394
 -25926534.28948 -20152070.52346  21797144.2584                   21797142.5164
 -41975329.23848 -32657730.84446  20912377.6564                   20912376.5704
 -72607167.57448 -56518921.88346  21086839.3364                   21086837.8794
 -14873531.80147 -11540096.51645  22616835.9064                   22616836.1094
 11  8 12  0 35 30.0000000  0  6G09G02G12G10G04G05
 -38474498.48847 -29925752.03544  23089141.2114                   23089141.8794
 -53225971.92648 -41420224.59846  20547372.6334                   20547369.0514
 -26098974.92248 -20286439.79346  21764330.1884                   21764328.3484
 -42099250.76248 -32754293.03946  20888796.3444                   20888795.3484
 -72636698.85948 -56541933.27346  21081219.4304                   21081218.2154
 -15072517.80547 -11695150.44145  22578969.9844                   22578970.1994
 11  8 12  0 36  0.0000000  0  6G09G02G12G10G04G05
 -38502331.30547 -29947440.02044  23083844.7114                   23083845.6804
 -53337050.38748 -41506779.23046  20526235.6484                   20526231.6684
 -26270996.03948 -20420482.19146  21731595.4534                   21731593.5984
 -42222498.19548 -32850329.96946  20865342.5394                   20865341.9384
 -72665934.93048 -56564714.63346  21075655.9144                   21075654.6054
 -15271237.56647 -11849996.89545  22541154.9144                   22541155.1484
 11  8 12  0 36 30.0000000  0  6G09G02G12G10G04G05
 -38529808.67647 -29968851.03944  23078616.2274                   23078617.3014
 -53447726.41448 -41593020.28546  20505174.6024                   20505170.9384
 -26442595.82048 -20554196.25846  21698941.3674                   21698939.3324
 -42345070.86748 -32945841.10946  20842017.9384                   20842016.7894
 -72694878.23848 -56587267.87146  21070148.4924                   21070147.1254
 -15469688.67647 -12004634.02745  22503390.8674                   22503391.3054
 11  8 12  0 37  0.0000000  0  6G09G02G12G10G04G05
 -38556934.54347 -29989988.16044  23073454.2114                   23073455.7114
 -53558001.48048 -41678948.89846  20484189.6334                   20484186.4344
 -26613771.82848 -20687580.11346  21666367.1724                   21666365.5634
 -42466967.69148 -33040825.61346  20818821.9454                   20818821.1884
 -72723531.47748 -56609595.07046  21064695.6884                   21064694.2464
 -15667868.20747 -12159059.52745  22465678.2734                   22465678.4304
 11  8 12  0 37 30.0000000  0  6G09G02G12G10G04G05
 -37008291.64847 -28783253.52344  23368151.5314                   23368152.9494
 -52092453.19948 -40536963.21946  20763074.0314                   20763070.7464
 -25209096.21148 -19593027.65246  21933668.3444                   21933666.5354
 -41012763.65248 -31907679.57046  21095548.1334                   21095546.7664
 -71176476.22348 -55404097.48046  21359090.6644                   21359089.5434
 -14290347.17647 -11085666.41045  22727811.5944                   22727812.0434
 11  8 12  0 38  0.0000000  0  6G09G02G12G10G04G05
 -37034723.93047 -28803850.18444  23363120.9534                   23363122.6334
 -52201928.75048 -40622268.83646  20742241.9844                   20742238.5594
 -25379416.61348 -19725744.81246  21901257.2894                   21901255.5204
 -41133304.68748 -32001607.60946  21072609.5864                   21072608.0164
 -71204555.53148 -55425977.47346  21353747.3364                   21353746.1804
 -14487974.41047 -11239661.53945  22690204.8054                   22690204.7894
 11  8 12  0 38 30.0000000  0  6G09G02G12G10G04G05
 -37060812.85947 -28824179.30544  23358156.9454                   23358158.6844
 -52311004.58248 -40707262.99647  20721485.3364                   20721481.7234
 -25549303.87148 -19858124.46546  21868929.2274                   21868926.6604
 -41253164.19948 -32095004.60246  21049801.0944                   21049799.9654
 -71232349.87948 -55447635.41846  21348458.1174                   21348456.8404
 -14685319.53547 -11393436.87145  22652650.7664                   22652651.3794
 11  8 12  0 39  0.0000000  0  6G09G02G12G10G04G05
 -37086561.42247 -28844243.20344  23353257.6644                   23353258.6844
 -52419680.43748 -40791945.48446  20700805.1804                   20700801.2114
 -25718754.61748 -19990163.97746  21836683.2114                   21836681.1414
 -41372340.19548 -32187868.98846  21027122.6644                   21027121.0084
 -71259860.39148 -55469072.20746  21343223.0704                   21343222.3524
 -14882378.73047 -11546989.39545  22615151.3984                   22615151.5664
 11  8 12  0 39 30.0000000  0  7G09G02G12G10G04G05G25
 -37111975.80547 -28864046.71944  23348420.8594                   23348422.8914
 -52527960.47348 -40876319.52046  20680200.0084                   20680196.3014
 -25887769.86348 -20121864.14146  21804520.9534                   21804519.1414
 -41490834.63748 -32280202.28546  21004573.5314                   21004572.5904
 -71287092.60548 -55490292.14146  21338041.0314                   21338039.6174
 -15079152.00047 -11700319.11345  22577706.6334                   22577707.2154
   7576463.72356   5945771.52753  24700116.9224                   24700119.1724
 11  8 12  0 40  0.0000000  0  7G09G02G12G10G04G05G25
 -37137063.75847 -28883595.86744  23343646.8834                   23343647.9104
 -52635849.64848 -40960388.97747  20659669.3364                   20659665.7154
 -26056351.12948 -20253226.13346  21772440.7194                   21772438.9414
 -41608651.01248 -32372007.22746  20982153.9614                   20982152.7664
 -71314052.66848 -55511300.00046  21332910.9064                   21332909.5234
 -15275640.85947 -11853427.21945  22540316.3594                   22540316.1644
   7374490.39546   5788389.74643  24661682.1024                   24661685.0824
 11  8 12  0 40 30.0000000  0  7G09G02G12G10G04G05G25
 -37161834.98447 -28902898.21944  23338933.6094                   23338934.4304
 -52743355.37948 -41044159.65646  20639211.6174                   20639207.9924
 -26224501.94948 -20384252.72746  21740442.4924                   21740440.5084
 -41725794.11748 -32463287.53146  20959862.1254                   20959861.3794
 -71340749.33648 -55532102.62146  21327830.4924                   21327829.3204
 -15471848.52047 -12006316.23045  22502978.8914                   22502979.4184
   7172686.52046   5631139.94543  24623280.4454                   24623282.5664
 11  8 12  0 41  0.0000000  0  7G09G02G12G10G04G05G25
 -37186292.08647 -28921955.79744  23334278.7584                   23334281.3834
 -52850478.14848 -41127631.92646  20618827.1414                   20618823.1564
 -26392219.10548 -20514941.39546  21708527.1334                   21708525.5864
 -41842261.96548 -32554041.66846  20937699.3364                   20937697.8484
 -71367184.10248 -55552701.14546  21322800.3284                   21322799.1804
 -15667771.14547 -12158983.10945  22465696.1804                   22465696.5004
   6971055.35946   5474024.78943  24584911.0944                   24584913.8134
 11  8 12  0 41 30.0000000  0  7G09G02G12G10G04G05G25
 -37210441.13747 -28940773.33244  23329683.8054                   23329685.7034
 -52957221.62548 -41210808.64846  20598514.5314                   20598510.4574
 -26559502.96148 -20645292.41846  21676693.8834                   21676692.3284
 -41958056.30548 -32644270.99246  20915664.2194                   20915663.2974
 -71393362.00448 -55573099.53146  21317818.7274                   21317817.9064
 -15863408.69547 -12311427.85245  22428467.3444                   22428467.4964
   6769596.53546   5317043.95343  24546575.4694                   24546576.6684
 11  8 12  0 42  0.0000000  0  7G09G02G12G10G04G05G25
 -37234280.74247 -28959349.76244  23325147.5084                   23325149.3364
 -53063581.70748 -41293686.61746  20578274.7584                   20578270.8754
 -26726346.07448 -20775300.02746  21644944.8134                   21644942.6334
 -42073171.28148 -32733970.94546  20893758.6334                   20893757.4654
 -71419280.13748 -55593295.49246  21312886.6414                   21312885.4734
 -16058752.98847 -12463644.08645  22391294.7504                   22391294.4344
   6568317.48046   5160203.22743  24508273.1484                   24508273.6994
 11  8 12  0 42 30.0000000  0  7G09G02G12G10G04G05G25
 -37257811.21547 -28977685.25444  23320670.3754                   23320671.3484
 -53169556.16448 -41376264.10246  20558108.3524                   20558104.8054
 -26892742.66448 -20904959.68046  21613280.7424                   21613279.3094
 -42187602.46148 -32823138.05946  20871982.9384                   20871982.0664
 -71444937.34048 -55613288.13346  21308004.1094                   21308002.9844
 -16253797.91047 -12615627.03945  22354179.0554                   22354178.8244
   6367223.98846   5003507.11343  24470006.4774                   24470007.4734
 11  8 12  0 43  0.0000000  0  7G09G02G12G10G04G05G25
 -37281040.38747 -28995786.00044  23316249.1724                   23316251.0394
 -53275150.62148 -41458545.48047  20538014.3444                   20538010.7814
 -27058695.22348 -21034273.33246  21581701.0314                   21581698.9774
 -42301353.88348 -32911775.48846  20850336.7584                   20850335.7424
 -71470340.71548 -55633082.98446  21303170.1724                   21303168.9614
 -16448545.56647 -12767378.36345  22317119.3914                   22317119.2974
   6166313.58647   4846953.67244  24431773.9694                   24431775.6024
 11  8 12  0 43 30.0000000  0  7G09G02G12G10G04G05G25
 -37303968.88747 -29013652.46544  23311886.3204                   23311888.4924
 -53380363.26248 -41540529.33646  20517992.7734                   20517989.3714
 -27224198.00448 -21163236.52046  21550206.6954                   21550205.4884
 -42414421.69948 -32999880.24646  20828821.0314                   20828819.6994
 -71495489.43748 -55652679.40246  21298384.7664                   21298383.3054
 -16642989.97347 -12918893.38745  22280117.6024                   22280117.8364
   5965591.83647   4690547.23444  24393577.9774                   24393579.0904
 11  8 12  0 44  0.0000000  0  7G09G02G12G10G04G05G25
 -37326601.01247 -29031287.98044  23307579.1804                   23307580.8014
 -53485195.74648 -41622216.96946  20498044.4384                   20498040.7934
 -27389249.45348 -21291847.99646  21518798.8364                   21518796.5354
 -42526805.75448 -33087452.20346  20807435.0944                   20807433.4574
 -71520386.49648 -55672079.71145  21293646.9614                   21293645.6214
 -16837128.70347 -13070170.23045  22243174.4304                   22243174.2894
   5765060.49647   4534289.16844  24355418.1484                   24355419.9024
 11  8 12  0 44 30.0000000  0  7G09G02G12G10G04G05G25
 -37348941.59847 -29048696.32044  23303328.4694                   23303329.8984
 -53589650.56248 -41703610.33246  20478167.2344                   20478163.6954
 -27553848.35248 -21420106.85246  21487476.5394                   21487474.5164
 -42638506.33248 -33174491.59046  20786178.7894                   20786177.4494
 -71545035.38748 -55691286.64546  21288956.2584                   21288955.2114
 -17030960.07047 -13221207.55545  22206289.2194                   22206289.3054
   5564720.71547   4378180.38344  24317294.6094                   24317296.7234
 11  8 12  0 45  0.0000000  0  7G09G02G12G10G04G05G25
 -37370993.61347 -29065879.77744  23299132.2894                   23299134.4804
 -53693728.29748 -41784709.86347  20458361.8284                   20458358.1054
 -27717992.46948 -21548011.32046  21456240.8834                   21456239.1884
 -42749522.32848 -33260997.53946  20765053.2274                   20765051.6914
 -71569437.95748 -55710301.64846  21284312.5474                   21284311.6484
 -17224481.07847 -13372003.04745  22169463.5164                   22169463.2384
   5364575.21147   4222222.96144  24279207.9694                   24279209.6804
 11  8 12  0 45 30.0000000  0  7G09G02G12G10G04G05G25
 -35817338.22747 -27855239.30544  23594783.0784                   23594784.5984
 -52222004.62148 -40637912.17247  20738421.5234                   20738417.5864
 -26306251.84048 -20447953.66446  21724886.2974                   21724883.7814
 -41284427.43448 -32119365.12946  21043851.5084                   21043850.2274
 -70018173.66448 -54501524.27346  21579508.4694                   21579507.5434
 -15842260.46147 -12294947.92245  22432491.3524                   22432491.2034
   6740054.93847   5294025.45344  24540952.8364                   24540954.7704
 11  8 12  0 46  0.0000000  0  7G09G02G12G10G04G05G25
 -35838821.99247 -27871980.00444  23590694.9844                   23590696.7974
 -52325329.78948 -40718425.27746  20718759.3914                   20718755.5474
 -26469476.57048 -20575141.75046  21693825.6414                   21693823.5124
 -41394069.94548 -32204800.83246  21022987.0474                   21022985.9734
 -70042088.34048 -54520159.09045  21574957.9694                   21574956.4884
 -16035149.84047 -12445251.24645  22395785.8134                   22395785.8914
   6540307.35247   5138378.06644  24502942.7734                   24502944.0394
 11  8 12  0 46 30.0000000  0  7G09G02G12G10G04G05G25
 -35860028.39547 -27888504.58244  23586660.2194                   23586661.0274
 -52428281.45348 -40798647.34047  20699168.6804                   20699164.4414
 -26632239.89548 -20701970.27746  21662852.8204                   21662851.0234
 -41503026.28548 -32289701.85546  21002253.4694                   21002251.9264
 -70065764.03548 -54538607.69146  21570452.2114                   21570450.9494
 -16227721.00847 -12595306.59045  22359139.8594                   22359140.1564
   6340760.73847   4982887.27344  24464969.6414                   24464971.1174
 11  8 12  0 47  0.0000000  0  7G09G02G12G10G04G05G25
 -35880959.46547 -27904814.60544  23582676.7194                   23582678.6994
 -52530859.59448 -40878578.35546  20679648.3914                   20679644.7894
 -26794537.69948 -20828436.07446  21631968.4694                   21631966.1724
 -41611294.31248 -32374066.52746  20981650.2894                   20981649.3834
 -70089201.30948 -54556870.50445  21565992.3754                   21565991.1914
 -16419969.22747 -12745110.29745  22322556.3984                   22322556.6564
   6141419.03947   4827556.12944  24427035.6804                   24427037.7774
 11  8 12  0 47 30.0000000  0  7G09G02G12G10G04G05G25
 -35901621.72746 -27920915.13344  23578745.1174                   23578746.7424
 -52633068.53148 -40958221.67646  20660198.6094                   20660194.6914
 -26956370.66448 -20954539.66446  21601172.7114                   21601170.1604
 -41718876.61348 -32457896.87146  20961178.6564                   20961177.1884
 -70112405.56248 -54574951.75845  21561576.7424                   21561575.4694
 -16611894.91847 -12894662.68746  22286034.1254                   22286034.3984
   5942281.71546   4672384.27344  24389141.5234                   24389143.7814
 11  8 12  0 48  0.0000000  0  7G09G02G12G10G04G05G25
 -35922018.89546 -27936809.12544  23574863.9064                   23574865.1484
 -52734909.38348 -41037578.17647  20640818.8284                   20640815.2814
 -27117736.64548 -21080279.37146  21570465.8594                   21570463.5514
 -41825772.58248 -32541192.41846  20940837.0394                   20940835.8594
 -70135378.97348 -54592853.13345  21557204.8754                   21557204.0594
 -16803495.36747 -13043961.64845  22249574.0634                   22249573.9024
   5743351.08246   4517373.42643  24351285.6024                   24351287.8444
 11  8 12  0 48 30.0000000  0  7G09G02G12G10G04G05G25
 -35942152.92247 -27952498.06244  23571032.5394                   23571034.0394
 -52836381.74648 -41116647.55147  20621509.4144                   20621505.8874
 -27278632.02048 -21205652.37546  21539848.3284                   21539846.2074
 -41931980.09048 -32623951.50046  20920626.3754                   20920624.6484
 -70158122.33648 -54610575.25445  21552877.0004                   21552876.0204
 -16994766.10947 -13193003.69545  22213176.3914                   22213175.8874
   5544631.14546   4362526.72343  24313470.4384                   24313471.8164
 11  8 12  0 49  0.0000000  0  7G09G02G12G10G04G05G25
 -35962028.54347 -27967985.67644  23567250.3984                   23567251.6024
 -52937488.03148 -41195431.65647  20602269.5164                   20602265.7344
 -27439055.58248 -21330657.73446  21509320.7664                   21509318.4734
 -42037499.82048 -32706174.64146  20900546.6094                   20900545.1094
 -70180639.12148 -54628120.81245  21548592.5314                   21548591.5554
 -17185705.60947 -13341787.62945  22176841.7504                   22176841.2304
   5346123.01646   4207845.05543  24275696.0634                   24275696.6024
 11  8 12  0 49 30.0000000  0  7G09G02G12G10G04G05G25
 -35981649.62147 -27983274.92244  23563516.0164                   23563518.1054
 -53038229.71948 -41273931.65646  20583098.6024                   20583094.8244
 -27599005.36348 -21455293.92246  21478883.8524                   21478881.3984
 -42142331.55148 -32787861.68446  20880597.7274                   20880596.4384
 -70202931.79748 -54645491.75445  21544350.1334                   21544349.3164
 -17376311.31247 -13490311.46545  22140570.6254                   22140570.2734
   5147828.85546   4053330.12543  24237961.9064                   24237961.6054
 11  8 12  0 50  0.0000000  0  7G09G02G12G10G04G05G25
 -36001019.00446 -27998368.06644  23559830.2894                   23559832.7114
 -53138607.37148 -41352147.98846  20563997.6724                   20563994.2664
 -27758478.54747 -21579558.73446  21448536.3364                   21448534.3324
 -42246474.28148 -32869011.84046  20860779.8054                   20860778.5474
 -70225001.93748 -54662689.28945  21540150.5234                   21540149.5394
 -17566579.87147 -13638572.58645  22104363.5474                   22104363.3014
   4949751.83247   3898984.40643  24200268.9064                   24200269.3674
 11  8 12  0 50 30.0000000  0  7G09G02G12G10G04G05G25
 -36020140.82447 -28013268.29744  23556192.1884                   23556194.3714
 -53238622.69548 -41430081.98847  20544965.7274                   20544961.4734
 -27917473.33248 -21703450.75446  21418280.7504                   21418278.8874
 -42349928.06648 -32949625.14846  20841093.1414                   20841091.9804
 -70246852.13348 -54679715.43045  21535992.9694                   21535991.6844
 -17756508.48047 -13786568.81246  22068221.1174                   22068220.7894
   4751893.87547   3744809.37144  24162617.7424                   24162619.4964
 11  8 12  0 51  0.0000000  0  7G09G02G12G10G04G05G25
 -36039019.41847 -28027979.00044  23552598.4924                   23552601.5354
 -53338277.54748 -41507735.10947  20526001.7114                   20525998.0434
 -28075988.27048 -21826968.87946  21388116.3054                   21388114.1954
 -42452693.18047 -33029701.84046  20821537.8054                   20821536.3444
 -70268485.40248 -54696572.56645  21531875.7664                   21531874.8914
 -17946096.09847 -13934299.33246  22032143.8984                   22032143.4774
   4554256.76647   3590806.44144  24125009.2504                   24125010.9384
 11  8 12  0 51 30.0000000  0  7G09G02G12G10G04G05G25
 -36057659.09446 -28042503.52044  23549052.7114                   23549054.4534
 -53437574.37948 -41585109.25846  20507105.8984                   20507102.2664
 -28234022.16447 -21950112.16446  21358043.8364                   21358041.8284
 -42554770.42648 -33109242.53146  20802113.1334                   20802111.8134
 -70289905.07448 -54713263.24645  21527800.1804                   21527798.9144
 -18135340.34447 -14081762.29746  21996131.8444                   21996131.4104
   4356841.75847   3436976.54344  24087442.5474                   24087443.6214
 11  8 12  0 52  0.0000000  0  7G09G02G12G10G04G05G25
 -36076062.09047 -28056843.61344  23545550.3364                   23545552.7304
 -53536512.69548 -41662204.02746  20488278.4534                   20488274.9344
 -28391571.19148 -22072877.59846  21328063.1484                   21328060.5594
 -42656157.57447 -33188245.47746  20782819.7894                   20782818.1564
 -70311111.72748 -54729787.94146  21523764.3284                   21523763.2384
 -18324236.70747 -14228954.16446  21960185.8054                   21960186.0744
   4159653.03147   3283322.99644  24049918.6174                   24049920.3594
 11  8 12  0 52 30.0000000  0  7G09G02G12G10G04G05G25
 -36094233.83247 -28071003.51644  23542092.7734                   23542094.8164
 -53635095.59848 -41739021.86346  20469519.0394                   20469515.2894
 -28548634.91848 -22195264.89846  21298174.5314                   21298172.2274
 -42756856.44548 -33266712.11346  20763657.3914                   20763655.7384
 -70332109.02748 -54746149.49646  21519769.1334                   21519767.6454
 -18512784.57047 -14375874.47346  21924306.5394                   21924305.8094
   3962691.06347   3129846.13744  24012437.8054                   24012439.5594
 11  8 12  0 53  0.0000000  0  7G09G02G12G10G04G05G25
 -36112178.16847 -28084986.21544  23538678.0634                   23538680.0864
 -53733324.46948 -41815563.82446  20450826.9144                   20450823.3444
 -28705211.90647 -22317272.89846  21268378.8204                   21268376.7584
 -42856867.22747 -33344642.57446  20744625.8914                   20744624.6134
 -70352899.94548 -54762350.25045  21515812.5784                   21515811.8014
 -18700981.68447 -14522521.46546  21888492.7814                   21888492.6454
   3765957.92647   2976547.61744  23975000.3914                   23975002.2344
 11  8 12  0 53 30.0000000  0  7G09G02G12G10G04G05G25
 -34554477.30947 -26871193.44144  23835098.7814                   23835101.0664
 -52255776.87548 -40664228.01646  20731994.5474                   20731990.8164
 -27285873.79748 -21211295.11746  21538470.2114                   21538467.6174
 -41380765.79347 -32194433.64546  21025518.5704                   21025517.3324
 -68798065.09048 -53550790.65645  21811687.3984                   21811686.8164
 -17313398.00047 -13441287.32846  22152541.8524                   22152541.3984
   5144883.41447   4051035.02344  24237401.4064                   24237403.1334
 11  8 12  0 54  0.0000000  0  7G09G02G12G10G04G05G25
 -34571978.13747 -26884830.55944  23831769.1024                   23831770.8484
 -52353302.62148 -40740222.09046  20713436.2664                   20713432.2074
 -27441471.06247 -21332539.70346  21508860.8524                   21508859.0634
 -41479400.57448 -32271291.89546  21006748.8204                   21006747.6524
 -68818450.18048 -53566675.16845  21807808.6804                   21807807.7074
 -17500885.74647 -13587381.57846  22116864.0234                   22116863.7344
   4948614.69147   3898098.40644  24200052.3834                   24200054.8054
 11  8 12  0 54 30.0000000  0  7G09G02G12G10G04G05G25
 -34589263.83647 -26898300.02744  23828479.5004                   23828481.4654
 -52450479.87948 -40815944.62146  20694944.0864                   20694940.2894
 -27596576.33647 -21453400.91846  21479345.1254                   21479343.1954
 -41577347.98848 -32347614.52746  20988110.3754                   20988108.7384
 -68838637.03948 -53582405.21945  21803967.3364                   21803966.2704
 -17688016.37147 -13733197.56646  22081253.8364                   22081253.7344
   4752580.57047   3745344.59044  24162748.2664                   24162750.3754
 11  8 12  0 55  0.0000000  0  7G09G02G12G10G04G05G25
 -34606339.08247 -26911605.50844  23825229.7034                   23825232.0904
 -52547311.03548 -40891397.46947  20676517.7734                   20676513.6564
 -27751189.07048 -21573878.33646  21449923.5634                   21449921.4024
 -41674609.59048 -32423402.75846  20969602.3284                   20969600.4064
 -68858628.49248 -53597983.00045  21800163.2114                   21800162.2234
 -17874787.68747 -13878733.55946  22045712.2274                   22045712.2464
   4556782.39547   3592774.63744  24125489.8524                   24125491.5274
 11  8 12  0 55 30.0000000  0  7G09G02G12G10G04G05G25
 -34623207.93047 -26924750.16044  23822019.9844                   23822022.4454
 -52643798.03148 -40966582.12147  20658156.5084                   20658152.7974
 -27905307.41847 -21693970.52746  21420595.8444                   21420593.3554
 -41771185.59848 -32498656.77046  20951224.2734                   20951222.9344
 -68878427.75848 -53613411.02345  21796395.2734                   21796394.5124
 -18061197.72347 -14023988.04746  22010240.0474                   22010239.8834
   4361222.12547   3440390.07444  24088275.7664                   24088277.1374
 11  8 12  0 56  0.0000000  0  7G09G02G12G10G04G05G25
 -34639874.53547 -26937737.25044  23818848.6414                   23818850.7974
 -52739942.60948 -41041499.95747  20639861.0084                   20639856.8954
 -28058929.75047 -21813676.22346  21391362.2664                   21391360.5234
 -41867076.63348 -32573377.03146  20932976.6484                   20932975.3984
 -68898037.14548 -53628691.09445  21792663.9454                   21792662.4694
 -18247244.48047 -14168959.45746  21974836.5394                   21974836.3674
   4165901.58246   3288192.31344  24051107.5704                   24051109.0234
 11  8 12  0 56 30.0000000  0  7G09G02G12G10G04G05G25
 -34656341.99646 -26950569.12144  23815715.3674                   23815717.1524
 -52835745.09448 -41116151.23446  20621630.0004                   20621626.2274
 -28212053.34847 -21932993.28546  21362223.8984                   21362221.8524
 -41962281.83248 -32647562.87146  20914859.8834                   20914858.4064
 -68917458.05948 -53643824.30145  21788968.1174                   21788967.1844
 -18432924.20347 -14313644.87146  21939502.3834                   21939502.0164
   3970824.02047   3136183.92644  24013985.0394                   24013986.0514
 11  8 12  0 57  0.0000000  0  7G09G02G12G10G04G05G25
 -34672615.18047 -26963249.65644  23812617.7734                   23812620.8364
 -52931208.58648 -41190538.35946  20603464.2504                   20603460.6764
 -28364677.43448 -22051921.14146  21333180.2814                   21333178.5234
 -42056802.34448 -32721215.19946  20896873.1484                   20896872.0004
 -68936694.09848 -53658813.44145  21785307.9844                   21785306.5314
 -18618235.86347 -14458043.48846  21904238.9384                   21904238.5634
   3775990.55147   2984365.72344  23976909.7504                   23976910.7304
 11  8 12  0 57 30.0000000  0  7G09G02G12G10G04G05G25
 -34688696.02747 -26975780.30944  23809558.7734                   23809560.9884
 -53026332.74648 -41264661.07446  20585362.6024                   20585358.9224
 -28516799.02348 -22170457.43446  21304232.7664                   21304230.8284
 -42150637.05947 -32794333.12946  20879016.6724                   20879015.3634
 -68955746.30548 -53673659.33645  21781682.1174                   21781681.5084
 -18803175.45747 -14602152.18446  21869046.0944                   21869045.8634
   3581404.77747   2832740.52044  23939880.7114                   23939881.3834
 11  8 12  0 58  0.0000000  0  7G09G02G12G10G04G05G25
 -34704588.56647 -26988164.19144  23806534.3444                   23806536.7664
 -53121119.57448 -41338520.92646  20567325.3524                   20567321.3524
 -28668416.28947 -22288600.75046  21275380.8984                   21275378.7814
 -42243786.63347 -32866917.18746  20861291.1644                   20861289.6524
 -68974617.11348 -53688363.87145  21778090.8594                   21778090.1374
 -18987740.84847 -14745969.29346  21833924.6024                   21833924.1484
   3387068.77347   2681309.91444  23902900.3054                   23902901.4454
 11  8 12  0 58 30.0000000  0  7G09G02G12G10G04G05G25
 -34720296.20347 -27000404.01643  23803545.4614                   23803547.7154
 -53215570.01648 -41412118.66046  20549351.8674                   20549348.0394
 -28819526.57848 -22406349.04346  21246625.8054                   21246623.3984
 -42336250.69148 -32938967.07846  20843695.6804                   20843694.5204
 -68993308.07448 -53702928.27045  21774534.9144                   21774533.1994
 -19171928.84447 -14889492.32046  21798874.7274                   21798874.1994
   3192985.34047   2530076.13744  23865967.3984                   23865968.2894
 11  8 12  0 59  0.0000000  0  7G09G02G12G10G04G05G25
 -34735825.34847 -27012504.74244  23800589.7424                   23800593.3554
 -53309688.21148 -41485457.50846  20531441.6884                   20531438.1294
 -28970131.37948 -22523703.43746  21217966.6174                   21217964.3284
 -42428032.59048 -33010485.41046  20826230.3594                   20826228.7384
 -69011824.62948 -53717356.75445  21771011.0864                   21771009.8404
 -19355740.03147 -15032721.74646  21763896.1954                   21763895.9344
   2999153.85547   2379038.68844  23829082.4064                   23829083.1214
 11  8 12  0 59 30.0000000  0  7G09G02G12G10G04G05G25
 -34751177.66447 -27024467.70344  23797668.9224                   23797671.2464
 -53403473.66448 -41558537.08246  20513595.1804                   20513591.4574
 -29120225.86748 -22640660.19546  21189404.2584                   21189402.1294
 -42519130.16448 -33081470.50446  20808894.7504                   20808893.3364
 -69030166.80548 -53731649.35245  21767520.8364                   21767519.6884
 -19539169.80147 -15175653.95346  21728990.9304                   21728990.3794
   2805578.80547   2228201.02344  23792245.3984                   23792246.2504
 11  8 12  1  0  0.0000000  0  7G09G02G12G10G04G05G25
 -34766358.40247 -27036296.96944  23794780.1644                   23794782.6294
 -53496929.44948 -41631359.77346  20495810.8444                   20495807.2814
 -29269810.66848 -22757219.76646  21160939.5314                   21160937.4844
 -42609545.21148 -33151923.75846  20791689.5944                   20791688.0824
 -69048338.24248 -53745808.90245  21764062.4064                   21764061.2544
 -19722217.10547 -15318288.14146  21694158.0314                   21694157.2664
   2612261.06647   2077563.89844  23755459.5944                   23755460.3054
 11  8 12  1  0 30.0000000  0  7G09G02G12G10G04G05G25
 -34781370.41047 -27047994.79344  23791924.3674                   23791925.9844
 -53590055.89848 -41703925.82846  20478089.7034                   20478085.9734
 -29418883.15648 -22873380.14146  21132571.6644                   21132569.4964
 -42699277.87548 -33221845.28946  20774613.8444                   20774612.2544
 -69066340.53948 -53759836.66445  21760636.6724                   21760636.0474
 -19904878.70347 -15460621.77046  21659398.9694                   21659398.1684
   2419203.63347   1927129.56644  23718721.6254                   23718722.5044
 11  8 12  1  1  0.0000000  0  7G09G02G12G10G04G05G25
 -34796217.39546 -27059564.03144  23789098.5164                   23789101.1134
 -53682854.55148 -41776236.44946  20460430.6174                   20460426.8554
 -29567441.30548 -22989139.72346  21104302.1334                   21104300.2584
 -42788328.24248 -33291235.15646  20757668.0864                   20757666.9064
 -69084175.73448 -53773734.21145  21757243.0784                   21757241.9774
 -20087152.03147 -15602652.84446  21624713.5164                   21624712.7464
   2226408.88347   1776899.92644  23682033.8984                   23682034.6054
 11  8 12  1  1 30.0000000  0  7G09G02G12G10G04G05G25
 -33235483.04347 -25843407.51644  24086096.8594                   24086098.7274
 -52199904.28148 -40620690.77746  20742626.7114                   20742622.6414
 -28140058.51248 -21876893.37546  21375923.8524                   21375921.7424
 -41301274.16848 -32132491.69146  21040645.0234                   21040643.2384
 -67526425.87148 -52559903.13345  22053672.8284                   22053672.0234
 -18693608.96547 -14516775.05546  21889895.8054                   21889895.1644
   3609305.23047   2854481.50444  23945190.2194                   23945191.5084
 11  8 12  1  2  0.0000000  0  7G09G02G12G10G04G05G25
 -33250015.19547 -25854731.38744  24083331.2344                   24083334.0634
 -52292056.16448 -40692497.41846  20725090.8834                   20725086.9964
 -28287586.34848 -21991850.10946  21347850.2584                   21347848.2814
 -41388965.36348 -32200822.46146  21023957.9384                   21023956.4844
 -67543937.63348 -52573548.64845  22050340.4924                   22050339.3674
 -18875102.33647 -14658198.36346  21855358.2194                   21855357.4924
   3417038.78547   2704663.53944  23908603.1174                   23908603.6914
 11  8 12  1  2 30.0000000  0  7G09G02G12G10G04G05G25
 -33264393.02746 -25865934.98444  24080595.1724                   24080598.2114
 -52383884.44548 -40764051.89546  20707616.4924                   20707612.9964
 -28434593.92248 -22106401.43046  21319875.5164                   21319873.7234
 -41475975.67648 -32268622.66846  21007400.5634                   21007398.9224
 -67561288.55548 -52587068.84045  22047038.5084                   22047037.5984
 -19056199.94148 -14799313.30146  21820896.5704                   21820896.3364
   3225042.40247   2555056.00044  23872066.8444                   23872068.6294
 11  8 12  1  3  0.0000000  0  7G09G02G12G10G04G05G25
 -33278625.65246 -25877025.46544  24077887.4144                   24077889.7274
 -52475395.82448 -40835359.44146  20690202.3674                   20690198.6214
 -28581084.52348 -22220549.91846  21291999.5634                   21291997.4924
 -41562310.36348 -32335896.42246  20990971.2194                   20990969.6524
 -67578486.20348 -52600469.59045  22043766.0394                   22043764.8404
 -19236904.22347 -14940121.75446  21786509.9534                   21786508.8594
   3033313.29747   2405656.72744  23835582.5634                   23835583.3134
 11  8 12  1  3 30.0000000  0  7G09G02G12G10G04G05G25
 -33292710.21147 -25888000.53544  24075206.9064                   24075209.3054
 -52566585.68748 -40906416.45746  20672849.6414                   20672845.9924
 -28727050.53148 -22334289.62146  21264222.6954                   21264220.8794
 -41647963.84848 -32402639.35946  20974672.1644                   20974670.4844
 -67595526.37948 -52613747.64545  22040523.2664                   22040522.3554
 -19417206.84448 -15080617.21546  21752198.7114                   21752198.3484
   2841859.94547   2256472.32044  23799149.7504                   23799151.3794
 11  8 12  1  4  0.0000000  0  7G09G02G12G10G04G05G25
 -33306655.01246 -25898866.73444  24072553.5784                   24072556.5234
 -52657460.22348 -40977227.75846  20655556.7114                   20655552.7384
 -28872494.97348 -22447622.90246  21236545.6954                   21236543.8524
 -41732941.61748 -32468855.77046  20958501.3134                   20958499.6884
 -67612416.24248 -52626908.57045  22037309.3834                   22037308.0904
 -19597110.33648 -15220801.68046  21717964.7344                   21717963.7384
   2650679.70347   2107500.75844  23762769.3134                   23762771.1724
 11  8 12  1  4 30.0000000  0  7G09G02G12G10G04G05G25
 -33320461.50046 -25909625.16444  24069926.4144                   24069928.8914
 -52748018.39548 -41047792.55546  20638323.9304                   20638319.8914
 -29017413.52348 -22560546.40246  21208968.6024                   21208966.5274
 -41817241.90248 -32534544.27746  20942459.5944                   20942458.0664
 -67629155.26248 -52639951.96145  22034123.9064                   22034122.9734
 -19776609.50047 -15360671.06646  21683807.2194                   21683806.2814
   2459777.44147   1958745.82044  23726441.9144                   23726443.7424
 11  8 12  1  5  0.0000000  0  7G09G02G12G10G04G05G25
 -33334135.69546 -25920280.49644  24067324.2894                   24067326.8754
 -52838264.08248 -41118113.85246  20621150.6884                   20621146.9104
 -29161806.87148 -22673060.64546  21181491.6094                   21181488.8524
 -41900867.63348 -32599707.14546  20926546.2424                   20926544.6524
 -67645747.92648 -52652881.30545  22030966.6484                   22030965.7544
 -19955704.13348 -15500225.25046  21649726.5634                   21649725.3984
   2269153.34847   1810207.64144  23690167.0784                   23690168.6804
 11  8 12  1  5 30.0000000  0  7G09G02G12G10G04G05G25
 -33347682.27347 -25930836.35944  24064746.3914                   24064749.3794
 -52928200.00448 -41188193.76646  20604036.4224                   20604032.4454
 -29305674.38748 -22785165.17246  21154114.1804                   21154112.2464
 -41983820.51648 -32664345.71946  20910760.7274                   20910759.1884
 -67662197.58248 -52665699.23445  22027836.3134                   22027835.6564
 -20134393.35548 -15639463.51646  21615722.7344                   21615722.1524
   2078808.52747   1661887.05945  23653945.9224                   23653947.5904
 11  8 12  1  6  0.0000000  0  7G09G02G12G10G04G05G25
 -33361106.07046 -25941296.60544  24062191.6174                   24062194.5944
 -53017828.57848 -41258034.18746  20586981.0164                   20586977.1334
 -29449015.85248 -22896859.78146  21126837.5864                   21126835.5394
 -42066102.25048 -32728461.32446  20895102.8364                   20895101.1644
 -67678507.41448 -52678408.19545  22024732.6024                   22024731.9104
 -20312675.71148 -15778384.75846  21581796.5554                   21581795.7274
   1888744.34047   1513785.14145  23617778.2274                   23617779.7304
 11  8 12  1  6 30.0000000  0  7G09G02G12G10G04G05G25
 -33374407.08247 -25951661.20744  24059660.9144                   24059663.6644
 -53107147.69948 -41327633.47746  20569984.1644                   20569980.7194
 -29591825.78548 -23008140.21946  21099661.3914                   21099659.4104
 -42147709.79748 -32792051.58646  20879573.6804                   20879572.0904
 -67694675.75448 -52691006.91845  22021656.1724                   22021655.0784
 -20490545.23048 -15916984.30546  21547949.4224                   21547948.2304
   1698966.63347   1365906.44144  23581664.4614                   23581665.5474
 11  8 12  1  7  0.0000000  0  7G09G02G12G10G04G05G25
 -33387591.49247 -25961934.94944  24057152.2504                   24057155.4184
 -53196161.57048 -41396994.92246  20553044.9924                   20553041.2734
 -29734105.16448 -23119007.24646  21072587.0704                   21072584.5084
 -42228646.95748 -32855119.48046  20864171.7664                   20864169.9964
 -67710707.52748 -52703499.20745  22018605.4614                   22018604.3524
 -20668002.11748 -16055262.32046  21514180.5554                   21514179.8094
   1509475.02347   1218250.66444  23545604.9224                   23545606.4694
 11  8 12  1  7 30.0000000  0  7G09G02G12G10G04G05G25
 -33400662.43746 -25972120.28543  24054664.2424                   24054668.0084
 -53284870.98448 -41466119.12546  20536164.6024                   20536160.2894
 -29875851.35248 -23229458.80546  21045613.2734                   21045611.1214
 -42308913.78948 -32917665.03546  20848897.2504                   20848896.1884
 -67726604.19148 -52715886.23045  22015580.0314                   22015578.9654
 -20845043.29348 -16193216.41046  21480490.4384                   21480489.3914
   1320272.72747   1070820.30944  23509601.3444                   23509602.2854
 11  8 12  1  8  0.0000000  0  7G09G02G12G10G04G05G25
 -33413624.82446 -25982221.03544  24052199.1254                   24052201.7384
 -53373278.84048 -41535008.34046  20519340.3834                   20519337.1644
 -30017064.50848 -23339495.00846  21018741.0474                   21018739.1804
 -42388512.51648 -32979689.98846  20833750.1724                   20833748.9104
 -67742369.14847 -52728170.62145  22012580.4064                   22012579.1374
 -21021667.94148 -16330845.94146  21446879.7584                   21446878.9304
   1131360.55147    923616.01244  23473652.9144                   23473653.5594
 11  8 12  1  8 30.0000000  0  7G09G02G12G10G04G05G25
 -33426482.44946 -25992240.05943  24049751.6804                   24049754.8914
 -53461386.86748 -41603663.93046  20502574.3834                   20502570.5164
 -30157743.14548 -23449114.70346  20991970.6724                   20991969.1294
 -42467444.29748 -33041195.25446  20818729.8134                   20818728.4144
 -67758004.74247 -52740354.21145  22009604.4694                   22009604.1054
 -21197874.09848 -16468149.36746  21413348.6884                   21413347.8324
    942740.62947    776639.45744  23437759.0704                   23437761.2504
 11  8 12  1  9  0.0000000  0  7G09G02G12G10G04G05G25
 -33439237.77046 -26002179.39543  24047324.8134                   24047327.1294
 -53549195.40248 -41672086.13746  20485865.1564                   20485861.2974
 -30297884.50048 -23558315.73846  20965303.0474                   20965301.1914
 -42545708.29748 -33102180.17246  20803836.8364                   20803835.2584
 -67773511.66047 -52752437.53945  22006653.8984                   22006652.8054
 -21373657.80948 -16605123.62146  21379897.9924                   21379897.3244
    754416.59847    629893.46544  23401922.4614                   23401923.8134
 11  8 12  1  9 30.0000000  0  7G09G02G12G10G04G05G25
 -33451891.52047 -26012039.60243  24044916.5554                   24044920.4184
 -53636703.58648 -41740274.32046  20469212.5704                   20469208.8404
 -30437484.12548 -23667094.64846  20938738.0234                   20938735.9654
 -42623302.92247 -33162643.50446  20789071.2194                   20789069.4024
 -67788889.25847 -52764420.09445  22003727.6174                   22003726.1954
 -21549014.40248 -16741765.06246  21346528.5944                   21346528.3594
    566393.57047    483382.02344  23366142.2504                   23366144.4304
 11  8 12  1 10  0.0000000  0  7G09G02G12G10G04G05G25
 -31889030.82446 -24794226.25443  24342319.4304                   24342322.2934
 -52148493.28548 -40580629.91046  20752409.7274                   20752406.1054
 -29001119.91448 -22547849.79746  21212069.0554                   21212066.8364
 -41124810.51648 -31994987.06246  21074224.4844                   21074222.9264
 -66228723.08247 -51548706.21145  22300617.5234                   22300616.5004
 -20148519.57048 -15650470.31646  21613034.2664                   21613033.5474
   1954096.19947   1564708.76644  23630213.9144                   23630215.3324
 11  8 12  1 10 30.0000000  0  7G09G02G12G10G04G05G25
 -31901499.29346 -24803942.13343  24339947.0314                   24339950.1174
 -52235411.34448 -40648358.24646  20735870.0634                   20735865.9064
 -29139638.67648 -22655786.48846  21185709.8984                   21185707.6524
 -41201076.46148 -32054415.06246  21059711.8594                   21059710.0864
 -66243855.32047 -51560497.58645  22297738.0474                   22297736.9614
 -20323021.78148 -15786445.99646  21579827.5554                   21579826.5594
   1766675.11747   1418666.33644  23594548.5084                   23594550.3014
 11  8 12  1 11  0.0000000  0  7G09G02G12G10G04G05G25
 -31913880.12146 -24813589.69943  24337591.4924                   24337594.9494
 -52322036.24648 -40715858.14546  20719385.4224                   20719381.2584
 -29277614.50448 -22763300.10246  21159453.9534                   21159451.6024
 -41276678.93747 -32113326.07046  21045324.9454                   21045323.5004
 -66258867.46147 -51572195.37145  22294881.4924                   22294880.1024
 -20497092.57048 -15922085.50446  21546702.8674                   21546701.9574
   1579558.98447   1272861.57844  23558940.8674                   23558942.7344
 11  8 12  1 11 30.0000000  0  7G09G02G12G10G04G05G25
 -31926179.23446 -24823173.60543  24335251.6724                   24335253.9454
 -52408372.10248 -40783132.82046  20702956.1884                   20702952.5314
 -29415048.00848 -22870391.13346  21133301.1884                   21133298.7854
 -41351621.63748 -32171722.96946  21031064.0234                   21031062.5354
 -66273764.28147 -51583803.31245  22292046.4304                   22292045.8674
 -20670732.75848 -16057389.48046  21513660.2114                   21513659.2544
   1392747.55947   1127294.31644  23523392.6644                   23523394.2234
 11  8 12  1 12  0.0000000  0  7G09G02G12G10G04G05G25
 -31938398.04746 -24832694.92643  24332925.4694                   24332929.3634
 -52494417.98448 -40850181.53546  20686582.3054                   20686578.3794
 -29551935.78948 -22977056.93046  21107252.6254                   21107249.8404
 -41425903.28148 -32229604.76646  21016928.4844                   21016927.1214
 -66288545.25847 -51595320.98445  22289233.5474                   22289233.1604
 -20843937.69148 -16192354.29746  21480700.0634                   21480699.2304
   1206245.59447    981968.20344  23487902.6484                   23487903.9304
 11  8 12  1 12 30.0000000  0  7G09G02G12G10G04G05G25
 -31950540.48046 -24842156.71943  24330615.1254                   24330618.4574
 -52580175.89148 -40917005.85246  20670263.0704                   20670258.9384
 -29688276.41048 -23083296.35546  21081307.9844                   21081305.3134
 -41499525.44548 -32286972.67646  21002918.6334                   21002917.2074
 -66303212.51647 -51606750.05145  22286442.7424                   22286442.2424
 -21016705.54348 -16326978.53146  21447823.7114                   21447822.5554
   1020055.16047    836884.82044  23452471.7974                   23452472.7624
 11  8 12  1 13  0.0000000  0  7G09G02G12G10G04G05G25
 -31962607.40646 -24851559.72343  24328319.5314                   24328322.5124
 -52665644.82448 -40983605.01246  20653998.8984                   20653994.8094
 -29824065.83648 -23189106.29346  21055467.5554                   21055465.0634
 -41572486.33647 -32343825.32046  20989034.5474                   20989033.0664
 -66317765.73447 -51618090.25845  22283673.1804                   22283672.6174
 -21189031.28948 -16461258.26646  21415031.3054                   21415030.3874
    834181.18447    692048.05545  23417100.8674                   23417102.0904
 11  8 12  1 13 30.0000000  0  7G09G02G12G10G04G05G25
 -31974606.92246 -24860910.18443  24326036.2034                   24326039.5164
 -52750830.58248 -41049983.51646  20637788.7194                   20637784.5354
 -29959307.25048 -23294489.20746  21029731.9774                   21029729.7234
 -41644791.66048 -32400167.10946  20975275.4924                   20975273.8324
 -66332211.33647 -51629346.60245  22280924.6094                   22280923.4884
 -21360917.08248 -16595195.19146  21382321.8524                   21382321.5594
    648621.47747    547456.21144  23381789.5314                   23381791.4844
 11  8 12  1 14  0.0000000  0  7G09G02G12G10G04G05G25
 -31986537.35546 -24870206.79743  24323765.3834                   24323768.7274
 -52835729.65648 -41116138.61746  20621632.8754                   20621628.9184
 -30093994.06248 -23399439.96546  21004101.9064                   21004099.2814
 -41716437.57448 -32455995.09446  20961641.8364                   20961640.1724
 -66346546.03547 -51640516.53545  22278196.1564                   22278195.8954
 -21532355.62548 -16728783.60546  21349698.6094                   21349697.4844
    463383.46547    403115.02744  23346540.4534                   23346541.4414
 11  8 12  1 14 30.0000000  0  7G09G02G12G10G04G05G25
 -31998404.98446 -24879454.46943  24321507.8834                   24321511.3484
 -52920346.54348 -41182073.84046  20605530.9924                   20605526.9384
 -30228127.75048 -23503959.71946  20978577.4924                   20978575.3284
 -41787427.85948 -32511312.19146  20948132.7034                   20948130.9344
 -66360774.69947 -51651603.84845  22275488.6564                   22275488.4414
 -21703347.80148 -16862024.20346  21317159.6564                   21317158.4924
    278466.77047    259024.18845  23311351.4064                   23311352.3054
 11  8 12  1 15  0.0000000  0  7G09G02G12G10G04G05G25
 -32010215.93046 -24888658.00443  24319260.5164                   24319263.3754
 -53004684.49248 -41247791.71546  20589481.7504                   20589477.8874
 -30361709.09448 -23608049.05946  20953157.4224                   20953155.1024
 -41857765.91448 -32566121.04746  20934747.5864                   20934745.8444
 -66374901.41847 -51662611.72345  22272800.9064                   22272800.1954
 -21873893.39848 -16994916.82046  21284705.8134                   21284705.0314
     93871.50447    115183.83245  23276224.6174                   23276225.5314
 11  8 12  1 15 30.0000000  0  7G09G02G12G10G04G05G25
 -32021973.94146 -24897820.27043  24317022.5004                   24317026.4734
 -53088745.76248 -41313294.00446  20573485.6954                   20573481.7424
 -30494737.04348 -23711707.19146  20927842.8834                   20927840.9734
 -41927453.82848 -32620423.29746  20921486.5944                   20921485.0554
 -66388928.71547 -51673542.12545  22270131.4614                   22270130.2464
 -22043990.98848 -17127460.34046  21252337.2734                   21252336.5044
    -90400.60947    -28404.69144  23241157.9694                   23241159.3364
 11  8 12  1 16  0.0000000  0  7G09G02G12G10G04G05G25
 -32033679.72346 -24906941.84843  24314794.9454                   24314798.4654
 -53172529.32448 -41378579.88746  20557541.8054                   20557538.0784
 -30627207.84048 -23814931.16446  20902634.5234                   20902632.2624
 -41996489.67248 -32674217.44946  20908349.5164                   20908347.5864
 -66402855.68447 -51684394.34045  22267481.0784                   22267480.9384
 -22213635.41848 -17259650.74646  21220054.9694                   21220054.2814
   -274344.50047   -171737.46545  23206154.5864                   23206156.0234
 11  8 12  1 16 30.0000000  0  7G09G02G12G10G04G05G25
 -32045339.62146 -24916027.58644  24312576.2344                   24312580.4574
 -53256039.32848 -41443652.60546  20541650.6884                   20541646.6294
 -30759122.59048 -23917721.85946  20877532.3914                   20877529.9534
 -42064877.99648 -32727507.03946  20895335.6414                   20895333.9574
 -66416687.09047 -51695172.09045  22264849.4304                   22264848.5864
 -22382827.39548 -17391488.59446  21187858.9844                   21187857.6174
   -457960.48447   -314814.78145  23171213.7664                   23171214.8984
 11  8 12  1 17  0.0000000  0  7G09G02G12G10G04G05G25
 -32056956.06246 -24925079.48843  24310366.5704                   24310369.9804
 -53339276.15248 -41508512.45346  20525811.1484                   20525806.8524
 -30890479.01248 -24020077.48846  20852535.8364                   20852533.4344
 -42132618.77348 -32780292.03546  20882445.0784                   20882443.1254
 -66430423.71147 -51705875.96945  22262235.6884                   22262234.2194
 -22551563.79748 -17522971.44146  21155749.4384                   21155748.1914
   -641245.28947   -457634.03144  23136335.7894                   23136336.9384
 11  8 12  1 17 30.0000000  0  7G09G02G12G10G04G05G25
 -32068533.52346 -24934101.02743  24308163.5164                   24308167.0314
 -53422242.11748 -41573161.25846  20510023.4454                   20510019.0554
 -31021276.87148 -24121997.87146  20827645.8674                   20827643.3754
 -42199714.05548 -32832574.05146  20869677.4844                   20869675.7894
 -66444068.26247 -51716508.10945  22259639.0084                   22259638.4344
 -22719843.09048 -17654098.10946  21123726.8524                   21123725.8364
   -824197.19547   -600193.88744  23101520.8524                   23101521.7384
 11  8 12  1 18  0.0000000  0  7G09G02G12G10G04G05G25
 -30504653.45346 -23715493.39143  24605760.1564                   24605763.3524
 -51929514.79748 -40409997.10246  20794079.5784                   20794075.6214
 -29576089.10948 -22995877.49646  21102656.0704                   21102653.3634
 -40690741.71548 -31656751.43046  21156825.0704                   21156823.3874
 -64882200.71947 -50499468.48045  22556852.6414                   22556851.5904
 -21312236.39848 -16557261.66846  21391585.4144                   21391584.5044
    568613.52347    485113.18044  23366564.2814                   23366565.0474
 11  8 12  1 18 30.0000000  0  7G09G02G12G10G04G05G25
 -30516160.50846 -23724460.04743  24603571.1564                   24603574.6254
 -52011941.19148 -40474225.45346  20778394.5394                   20778390.5474
 -29705762.94148 -23096922.00846  21077980.0084                   21077978.1294
 -40756548.04747 -31708029.07046  21144302.3444                   21144300.9344
 -64895664.14847 -50509959.46545  22554290.8594                   22554289.5394
 -21479592.89148 -16687669.26246  21359738.5784                   21359737.4694
    386336.84447    343079.39144  23331878.3134                   23331879.1684
 11  8 12  1 19  0.0000000  0  7G09G02G12G10G04G05G25
 -30527640.54746 -23733405.69143  24601385.7504                   24601389.5594
 -52094102.73448 -40538247.43046  20762759.6644                   20762755.6484
 -29834875.89848 -23197529.46546  21053410.3524                   21053407.9184
 -40821714.44948 -31758808.05946  21131901.7344                   21131899.8594
 -64909042.50847 -50520384.17245  22551744.9064                   22551743.5474
 -21646487.60248 -16817717.03146  21327979.2814                   21327978.3404
    204398.41847    201309.20744  23297255.8594                   23297257.1414
 11  8 12  1 19 30.0000000  0  7G09G02G12G10G04G05G25
 -30539093.81246 -23742330.46543  24599206.1954                   24599210.3204
 -52175997.93748 -40602061.86346  20747175.5084                   20747171.5084
 -29963423.87148 -23297696.69146  21028948.4534                   21028946.3634
 -40886239.80548 -31809087.53546  21119623.0474                   21119621.1214
 -64922334.85547 -50530741.84045  22549215.1334                   22549214.5434
 -21812915.67248 -16947401.18746  21296309.2504                   21296308.0474
     22803.53947     59806.69144  23262699.8984                   23262700.9964
 11  8 12  1 20  0.0000000  0  7G09G02G12G10G04G05G25
 -30550525.03146 -23751238.05943  24597031.5704                   24597034.7274
 -52257629.70748 -40665671.03146  20731641.4774                   20731637.5274
 -30091406.78548 -23397423.59846  21004593.9694                   21004591.4534
 -40950126.62948 -31858869.44946  21107465.6954                   21107464.4104
 -64935544.19947 -50541034.81645  22546702.0944                   22546700.6684
 -21978876.25448 -17076721.05546  21264727.8284                   21264726.9614
   -158446.76647    -81427.37145  23228209.0864                   23228210.3594
 11  8 12  1 20 30.0000000  0  7G09G02G12G10G04G05G25
 -30561935.82046 -23760129.75843  24594859.7424                   24594863.5234
 -52338997.63348 -40729074.60946  20716157.8444                   20716153.4414
 -30218821.37948 -23496707.66846  20980347.8054                   20980345.7504
 -41013374.44548 -31908153.43746  21095430.1094                   21095428.5164
 -64948670.49647 -50551263.09844  22544203.5944                   22544202.6764
 -22144365.33648 -17205673.51646  21233236.3204                   21233235.1414
   -339348.12147   -222389.54745  23193785.2974                   23193786.5204
 11  8 12  1 21  0.0000000  0  7G09G02G12G10G04G05G25
 -30573332.46546 -23769010.45743  24592691.1954                   24592695.1844
 -52420106.40248 -40792276.24646  20700723.2814                   20700719.0084
 -30345669.58648 -23595550.40646  20956209.4774                   20956206.5664
 -41075988.05148 -31956943.23446  21083515.0004                   21083512.9494
 -64961718.52047 -50561430.37945  22541720.8054                   22541720.1684
 -22309383.79348 -17334259.26646  21201834.4224                   21201833.1914
   -519901.15247   -363080.25844  23159426.4844                   23159427.9454
 11  8 12  1 21 30.0000000  0  7G09G02G12G10G04G05G25
 -30584714.47746 -23777879.74243  24590525.9614                   24590529.6294
 -52500953.06248 -40855273.64146  20685338.7894                   20685334.6374
 -30471946.25448 -23693947.79346  20932179.7814                   20932177.5944
 -41137964.98048 -32005236.93046  21071721.2114                   21071719.2894
 -64974685.96147 -50571534.86345  22539252.8204                   22539251.9804
 -22473925.64148 -17462473.62146  21170523.1254                   21170521.5664
   -700099.53147   -503494.65645  23125136.2584                   23125136.9454
 11  8 12  1 22  0.0000000  0  7G09G02G12G10G04G05G25
 -30596090.06246 -23786744.08643  24588361.3984                   24588365.0824
 -52581544.02748 -40918071.78946  20670002.4844                   20669998.5984
 -30597655.27048 -23791902.84446  20908258.0474                   20908255.4654
 -41199311.30948 -32053039.23446  21060047.4694                   21060045.7624
 -64987579.50447 -50581581.77744  22536799.3984                   22536798.7584
 -22637993.57048 -17590318.69546  21139301.7664                   21139300.5234
   -879945.60947   -643634.50045  23090912.8674                   23090913.9104
 11  8 12  1 22 30.0000000  0  7G09G02G12G10G04G05G25
 -30607460.63346 -23795604.59843  24586197.2664                   24586201.0704
 -52661878.79748 -40980670.30146  20654715.4924                   20654711.4574
 -30722793.28948 -23889412.96946  20884445.2274                   20884442.8284
 -41260026.80548 -32100349.98046  21048493.7194                   21048491.8984
 -65000398.87947 -50591570.90644  22534359.7194                   22534358.7384
 -22801583.80148 -17717791.53946  21108171.9924                   21108170.6954
  -1059435.12547   -783496.42645  23056756.1884                   23056758.4884
 11  8 12  1 23  0.0000000  0  7G09G02G12G10G04G05G25
 -30618827.91046 -23804462.28143  24584034.8754                   24584038.6914
 -52741957.82048 -41043069.52346  20639476.9384                   20639473.1644
 -30847358.18448 -23986476.51246  20860741.4844                   20860739.1644
 -41320111.85248 -32147169.46146  21037059.5864                   21037058.2194
 -65013144.71947 -50601502.72344  22531934.3134                   22531933.9454
 -22964693.14548 -17844889.66446  21077133.1484                   21077132.1844
  -1238564.73047   -923077.87945  23022669.6254                   23022671.2934
 11  8 12  1 23 30.0000000  0  7G09G02G12G10G04G05G25
 -30630196.27547 -23813320.94443  24581872.0234                   24581875.5004
 -52821783.18048 -41105271.07446  20624286.7194                   20624282.9304
 -30971348.79748 -24083092.55946  20837146.7274                   20837143.9144
 -41379568.44148 -32193499.25046  21025745.2664                   21025743.5904
 -65025819.18447 -50611378.94545  22529522.5864                   22529521.7894
 -23127320.25848 -17971612.01646  21046186.0864                   21046184.8324
  -1417332.41047  -1062377.34045  22988651.8754                   22988652.1844
 11  8 12  1 24  0.0000000  0  7G09G02G12G10G04G05G25
 -30641569.25846 -23822183.23043  24579707.0084                   24579711.5044
 -52901356.15248 -41167275.96546  20609144.4844                   20609140.6914
 -31094764.77048 -24179260.83646  20813661.3284                   20813658.6374
 -41438398.60248 -32239340.90246  21014550.6414                   21014549.2154
 -65038424.24647 -50621201.07044  22527123.7894                   22527122.5944
 -23289462.98848 -18097956.92646  21015331.3204                   21015329.6684
  -1595735.94547  -1201393.04344  22954702.3204                   22954702.8324
 11  8 12  1 24 30.0000000  0  7G09G02G12G10G04G05G25
 -30652949.14846 -23831050.91043  24577542.0314                   24577545.9064
 -52980677.50048 -41229084.78146  20594050.1804                   20594046.3094
 -31217604.13348 -24274979.80946  20790285.6334                   20790283.1094
 -41496603.14148 -32284695.06246  21003474.6724                   21003472.8444
 -65050960.49247 -50630969.57044  22524738.8524                   22524737.7194
 -23451118.55148 -18223922.23846  20984569.0394                   20984567.4734
  -1773772.18747  -1340122.47745  22920822.3674                   22920824.5944
 11  8 12  1 25  0.0000000  0  7G09G02G12G10G04G05G25
 -30664340.10246 -23839927.25443  24575375.1094                   24575378.9024
 -53059749.66048 -41290699.42646  20579003.3204                   20578999.0434
 -31339866.99648 -24370249.55946  20767020.0784                   20767017.7814
 -41554184.68048 -32329563.75446  20992517.0944                   20992515.2584
 -65063430.82447 -50640686.71144  22522365.7034                   22522364.8634
 -23612285.81648 -18349507.05946  20953899.9534                   20953898.2424
  -1951439.79747  -1478564.66445  22887014.6174                   22887015.4574
 11  8 12  1 25 30.0000000  0  7G09G02G12G10G04G05G25
 -30675748.60946 -23848817.21143  24573204.0084                   24573208.4694
 -53138576.99648 -41352123.31246  20564002.8284                   20563998.6374
 -31461554.87948 -24465071.27746  20743863.0944                   20743861.3094
 -41611147.59448 -32373950.41846  20981677.2734                   20981675.7114
 -65075839.78547 -50650356.03944  22520004.2194                   22520003.1604
 -23772966.23848 -18474712.51246  20923323.4534                   20923322.2114
  -2128739.37147  -1616720.10945  22853275.4144                   22853275.6294
 11  8 12  1 26  0.0000000  0  7G09G02G12G10G04G05G25
 -30687175.12946 -23857721.27043  24571030.0084                   24571034.1884
 -53217158.42648 -41413355.58246  20549049.3754                   20549044.9064
 -31582664.12148 -24559442.10546  20720817.2274                   20720814.2504
 -41667491.20748 -32417854.50846  20970955.3834                   20970954.0984
 -65088186.24247 -50659976.66445  22517654.4844                   22517653.2304
 -23933155.13348 -18599534.97746  20892840.6564                   20892838.8404
  -2305666.07447  -1754584.98444  22819606.3754                   22819607.2584
 11  8 12  1 26 30.0000000  0  7G09G02G12G10G04G05G25
 -29123203.59846 -22639042.44543  24868643.1954                   24868647.5984
 -51720073.37148 -40246795.77346  20833934.8984                   20833930.7814
 -30127770.87948 -23425759.04346  20997674.0164                   20997671.8134
 -40147796.16048 -31233676.52746  21260143.5634                   21260141.9924
 -63525052.57847 -49441950.43044  22815109.1644                   22815108.4224
 -22517425.98048 -17496369.33646  21162244.6804                   21162243.3754
   -906792.32847   -664553.44145  23085803.6804                   23085804.1644
 11  8 12  1 27  0.0000000  0  7G09G02G12G10G04G05G25
 -29134674.79746 -22647981.25843  24866461.1094                   24866465.7974
 -51798165.20748 -40307646.53146  20819074.6254                   20819070.6604
 -30247718.78148 -23519224.93446  20974848.7894                   20974846.2734
 -40202904.95748 -31276618.41846  21249657.2114                   21249655.3284
 -63537277.75847 -49451476.54344  22812783.1484                   22812781.9414
 -22676624.13348 -17620419.78946  21131950.4534                   21131948.5554
  -1082964.41047   -801830.36345  23052278.8834                   23052280.0514
 11  8 12  1 27 30.0000000  0  7G09G02G12G10G04G05G25
 -29146176.21546 -22656943.71543  24864272.0864                   24864277.3094
 -51876017.72348 -40368310.80146  20804259.7584                   20804255.8754
 -30367087.61348 -23612239.58246  20952133.3754                   20952131.4304
 -40257402.25448 -31319083.81646  21239286.6484                   21239284.8134
 -63549447.96947 -49460959.81644  22810467.1174                   22810466.1334
 -22835327.54748 -17744084.72346  21101749.8364                   21101748.5084
  -1258758.98847   -938813.08245  23018826.4224                   23018827.5204
 11  8 12  1 28  0.0000000  0  7G09G02G12G10G04G05G25
 -29157709.92246 -22665931.24243  24862077.8364                   24862082.8364
 -51953631.17648 -40428788.78946  20789490.2424                   20789486.3164
 -30485875.32848 -23704801.41446  20929528.9614                   20929526.7034
 -40311288.41848 -31361073.00846  21229032.3754                   21229030.7774
 -63561563.23047 -49470400.25044  22808161.1884                   22808160.5744
 -22993532.88348 -17867361.55546  21071644.3204                   21071643.0314
  -1434172.34047  -1075498.75845  22985446.8914                   22985446.5984
 11  8 12  1 28 30.0000000  0  7G09G02G12G10G04G05G25
 -29169279.34046 -22674946.61343  24859876.1024                   24859881.3244
 -52031007.11348 -40489081.71146  20774766.2664                   20774762.3014
 -30604081.25848 -23796909.91446  20907035.2274                   20907033.1914
 -40364565.51648 -31402587.60946  21218893.8594                   21218892.3954
 -63573625.67647 -49479799.56644  22805866.1024                   22805865.2504
 -23151238.62948 -17990249.07846  21041633.9304                   21041632.6454
  -1609202.37947  -1211885.84845  22952139.5004                   22952139.6334
 11  8 12  1 29  0.0000000  0  7G09G02G12G10G04G05G25
 -29180887.25046 -22683992.05143  24857667.8284                   24857673.1684
 -52108146.29748 -40549190.13746  20760086.7894                   20760082.9884
 -30721704.09848 -23888564.05146  20884652.1804                   20884650.3014
 -40417234.84848 -31443628.61746  21208871.2894                   21208869.2234
 -63585636.25847 -49489158.47344  22803580.4144                   22803579.3164
 -23308442.37148 -18112745.43046  21011719.0554                   21011717.4774
  -1783846.39547  -1347972.05145  22918905.1884                   22918907.0434
 11  8 12  1 29 30.0000000  0  7G09G02G12G10G04G05G25
 -29192535.10546 -22693068.55143  24855452.0784                   24855456.5164
 -52185048.33248 -40609113.78146  20745453.2114                   20745448.7974
 -30838741.00448 -23979761.62946  20862380.7194                   20862378.3714
 -40469296.50848 -31484196.13346  21198964.1484                   21198962.8244
 -63597594.64547 -49498476.68444  22801305.2114                   22801304.4224
 -23465140.50448 -18234847.80146  20981900.3674                   20981899.0394
  -1958100.04747  -1483754.07845  22885746.5234                   22885747.3014
 11  8 12  1 30  0.0000000  0  7G09G02G12G10G04G05G25
 -29204224.06646 -22702177.13743  24853227.1484                   24853233.3634
 -52261712.88748 -40668852.37946  20730864.4454                   20730860.4734
 -30955189.12148 -24070500.39546  20840221.4534                   20840219.1564
 -40520750.78148 -31524290.35546  21189172.9774                   21189171.1374
 -63609500.64547 -49507754.08244  22799039.3284                   22799038.7544
 -23621329.22748 -18356553.23846  20952178.3524                   20952177.0904
  -2131959.16447  -1619228.76245  22852662.4844                   22852662.6604
 11  8 12  1 30 30.0000000  0  7G09G02G12G10G04G05G25
 -29215961.94546 -22711323.76643  24850993.9774                   24850998.7304
 -52338145.64548 -40728410.36346  20716319.6094                   20716315.4924
 -31071052.09848 -24160783.21546  20818173.8754                   20818171.0554
 -40571603.72748 -31563916.01246  21179495.6254                   21179494.1454
 -63621360.14147 -49516995.23044  22796782.6254                   22796781.1524
 -23777011.23848 -18477863.84446  20922553.0474                   20922551.9534
  -2305425.92247  -1754397.69944  22819651.5474                   22819652.6954
 11  8 12  1 31  0.0000000  0  6G02G12G10G04G05G25
 -52414345.74648 -40787787.03546  20701819.1804                   20701815.3054
 -31186326.82048 -24250607.65246  20796237.6564                   20796235.1054
 -40621854.90248 -31603072.75846  21169933.1254                   21169931.2304
 -63633172.31647 -49526199.50844  22794534.2734                   22794533.7854
 -23932182.32048 -18598776.31246  20893025.0704                   20893023.4224
  -2478495.61747  -1889257.14145  22786718.5634                   22786719.2894
 11  8 12  1 31 30.0000000  0  6G02G12G10G04G05G25
 -52490314.92248 -40846983.77046  20687362.7734                   20687358.8954
 -31301013.10948 -24339973.57046  20774413.3524                   20774410.8874
 -40671506.82447 -31641762.55946  21160485.0394                   21160483.3954
 -63644939.25447 -49535368.53544  22792295.3204                   22792294.6414
 -24086841.41048 -18719289.84446  20863594.6024                   20863593.0744
  -2651166.41447  -2023805.76645  22753860.3444                   22753861.2424
 11  8 12  1 32  0.0000000  0  6G02G12G10G04G05G25
 -52566052.75048 -40906000.23446  20672950.2504                   20672946.4414
 -31415108.16848 -24428878.78946  20752701.4614                   20752699.7624
 -40720559.47748 -31679985.39546  21151150.8364                   21151148.5314
 -63656660.27347 -49544501.80944  22790065.1414                   22790063.9414
 -24240984.31648 -18839401.14546  20834261.9534                   20834260.5434
  -2823433.93747  -2158040.14844  22721078.0234                   22721078.5164
 11  8 12  1 32 30.0000000  0  6G02G12G10G04G05G25
 -52641554.30548 -40964832.59046  20658582.6954                   20658579.0824
 -31528604.94948 -24517317.82446  20731103.9064                   20731101.3914
 -40769008.48047 -31717737.87146  21141930.6804                   21141929.3164
 -63668330.55547 -49553595.50444  22787843.7344                   22787843.3874
 -24394603.34048 -18959104.22746  20805029.1254                   20805027.5944
  -2995289.75447  -2291953.74245  22688375.4534                   22688375.8914
 11  8 12  1 33  0.0000000  0  6G02G12G10G04G05G25
 -52716822.37148 -41023483.00046  20644259.5634                   20644255.5664
 -31641504.13748 -24605291.19946  20709620.1094                   20709617.8794
 -40816857.69948 -31755022.96946  21132825.7034                   21132823.8244
 -63679953.34447 -49562652.24244  22785632.8834                   22785631.9414
 -24547698.37548 -19078399.00446  20775896.1564                   20775894.6454
  -3166733.01647  -2425545.85245  22655751.2194                   22655752.2034
 11  8 12  1 33 30.0000000  0  6G02G12G10G04G05G25
 -52791861.19148 -41081954.78946  20629980.2664                   20629976.0234
 -31753807.72348 -24692800.48046  20688248.9304                   20688246.9104
 -40864111.71948 -31791844.28146  21123832.8594                   21123831.7274
 -63691532.69147 -49571675.08244  22783428.7664                   22783428.5744
 -24700270.58248 -19197286.38746  20746862.5944                   20746860.9304
  -3337764.28147  -2558816.85945  22623204.0634                   22623205.7734
 11  8 12  1 34  0.0000000  0  6G02G12G10G04G05G25
 -52866670.91448 -41140248.06246  20615744.3284                   20615740.4104
 -31865514.20348 -24779844.47346  20666992.5704                   20666989.7304
 -40910771.33248 -31828202.43046  21114954.4224                   21114952.9654
 -63703069.00447 -49580664.41044  22781233.7114                   22781232.9104
 -24852316.96148 -19315764.03146  20717929.3284                   20717927.1604
  -3508380.12147  -2691764.16445  22590737.6414                   22590737.9694
 11  8 12  1 34 30.0000000  0  6G02G12G10G04G05G25
 -51365831.32848 -39970762.64546  20901344.7274                   20901340.6524
 -30401199.78948 -23638820.23846  20945641.9064                   20945639.7854
 -39381417.88348 -30636498.44146  21405980.7114                   21405978.8524
 -62139144.01647 -48362021.56244  23078838.7664                   23078837.5204
 -23428411.68748 -18206227.40646  20988889.3524                   20988887.3834
  -2103153.23048  -1596782.14145  22858143.5784                   22858144.3014
 11  8 12  1 35  0.0000000  0  6G02G12G10G04G05G25
 -51440192.31648 -40028706.25446  20887194.4534                   20887190.2424
 -30511715.25448 -23724936.17246  20924611.4614                   20924609.1294
 -39426900.58248 -30671939.50446  21397325.7194                   21397323.7774
 -62150603.75047 -48370951.22344  23076658.0864                   23076656.9734
 -23579406.80548 -18323885.89146  20960155.6094                   20960153.7344
  -2272936.71147  -1729080.83245  22825834.0474                   22825835.7504
 11  8 12  1 35 30.0000000  0  6G02G12G10G04G05G25
 -51514332.98448 -40086478.17246  20873085.7584                   20873081.7664
 -30621636.21148 -23810588.84846  20903694.2194                   20903692.0744
 -39471799.94548 -30706926.01246  21388781.7814                   21388780.0124
 -62162029.44147 -48379854.35244  23074483.6644                   23074483.1254
 -23729875.78948 -18441134.40246  20931522.5704                   20931520.7974
  -2442302.56648  -1861054.13745  22793605.8754                   22793605.8674
 11  8 12  1 36  0.0000000  0  6G02G12G10G04G05G25
 -51588253.11348 -40144078.25046  20859019.2034                   20859015.3834
 -30730960.61348 -23895776.67246  20882890.3524                   20882888.2234
 -39516116.61748 -30741458.48445  21380348.2424                   21380346.3634
 -62173420.76647 -48388730.69144  23072316.3674                   23072315.3794
 -23879815.58648 -18557970.56646  20902989.7814                   20902987.8134
  -2611247.02748  -1992699.18445  22761455.8524                   22761456.3284
 11  8 12  1 36 30.0000000  0  6G02G12G10G04G05G25
 -51661955.55148 -40201508.68446  20844994.0704                   20844989.8444
 -30839689.19948 -23980500.23846  20862199.9924                   20862197.8284
 -39559854.10548 -30775539.64146  21372025.3054                   21372023.7504
 -62184780.83247 -48397582.66844  23070154.4064                   23070153.1454
 -24029226.16848 -18674394.34446  20874557.9224                   20874556.5004
  -2779769.46547  -2124015.29345  22729386.5314                   22729388.0864
 11  8 12  1 37  0.0000000  0  6G02G12G10G04G05G25
 -51735439.74648 -40258769.07446  20831010.2814                   20831006.4304
 -30947819.58648 -24064757.66046  20841623.6094                   20841621.5434
 -39603012.79348 -30809169.78545  21363812.5864                   21363810.5514
 -62196109.02747 -48406409.83244  23067998.5944                   23067998.0594
 -24178103.83248 -18790402.86746  20846227.1724                   20846225.7584
  -2947865.74648  -2254999.35545  22697399.7894                   22697400.6914
 11  8 12  1 37 30.0000000  0  6G02G12G10G04G05G25
 -51808709.57848 -40315862.41446  20817067.4304                   20817063.5784
 -31055353.84848 -24148550.57846  20821160.4304                   20821158.1414
 -39645597.10248 -30842352.35946  21355708.4844                   21355706.9734
 -62207409.18047 -48415215.13344  23065848.1254                   23065847.8594
 -24326449.81248 -18905997.09046  20817997.8674                   20817996.4774
  -3115535.90248  -2385651.40245  22665493.0634                   22665493.5434
 11  8 12  1 38  0.0000000  0  6G02G12G10G04G05G25
 -51881767.57848 -40372790.69146  20803165.2734                   20803161.1374
 -31162292.78148 -24231879.60246  20800810.7504                   20800808.5514
 -39687610.99248 -30875090.44545  21347713.7974                   21347712.0904
 -62218683.89847 -48424000.60944  23063702.6024                   23063702.0864
 -24474263.69148 -19021176.68446  20789869.7424                   20789868.4924
  -3282779.32848  -2515970.93045  22633667.7734                   22633668.1174
 11  8 12  1 38 30.0000000  0  6G02G12G10G04G05G25
 -51954611.84048 -40429552.42246  20789303.1644                   20789299.2624
 -31268632.87548 -24314742.00446  20780574.8914                   20780572.5234
 -39729053.57047 -30907383.36345  21339827.8984                   21339826.1134
 -62229931.71547 -48432765.13744  23061562.2274                   23061561.8164
 -24621541.06648 -19135938.22746  20761844.1254                   20761842.3364
  -3449590.58648  -2645953.71545  22601924.6484                   22601925.5004
 11  8 12  1 39  0.0000000  0  6G02G12G10G04G05G25
 -52027246.01248 -40486150.44546  20775481.5864                   20775477.7584
 -31374375.87548 -24397139.14146  20760452.4614                   20760450.1954
 -39769929.16048 -30939234.47346  21332049.6254                   21332047.6054
 -62241155.96947 -48441511.29344  23059426.5704                   23059425.5664
 -24768282.50848 -19250282.15646  20733919.8524                   20733918.0744
  -3615969.74647  -2775599.79345  22570263.3204                   22570264.3594
 11  8 12  1 39 30.0000000  0  6G02G12G10G04G05G25
 -52099673.12548 -40542587.12146  20761699.0634                   20761694.8914
 -31479522.43048 -24479071.52046  20740443.7974                   20740441.8674
 -39810241.14148 -30970646.39845  21324378.2194                   21324376.3404
 -62252359.36747 -48450241.20344  23057294.5394                   23057293.8834
 -24914487.78948 -19364208.29346  20706098.3054                   20706096.3554
  -3781915.84448  -2904908.46945  22538685.2734                   22538685.2974
 11  8 12  1 40  0.0000000  0  6G02G12G10G04G05G25
 -52171895.04748 -40598863.91846  20747955.8444                   20747951.3444
 -31584072.98848 -24560539.47746  20720548.6884                   20720546.1804
 -39849992.73447 -31001621.66445  21316813.5394                   21316812.3134
 -62263544.02046 -48458956.50844  23055165.6414                   23055165.1484
 -25060156.30548 -19477716.17646  20678378.1024                   20678376.3874
  -3947427.40247  -3033878.56645  22507189.6334                   22507190.6954
 11  8 12  1 40 30.0000000  0  7G29G02G12G10G04G05G25
  18648310.30957  14544659.21953  24582642.6884                   24582643.8444
 -52243909.21948 -40654978.83246  20734251.8754                   20734247.6134
 -31688023.98448 -24641540.24646  20700767.6024                   20700765.0084
 -39889182.30147 -31032158.97346  21309356.3054                   21309354.5944
 -62274707.03147 -48467654.92244  23053041.4844                   23053040.9774
 -25205282.86348 -19590801.75846  20650761.2814                   20650759.7154
  -4112498.49247  -3162505.33645  22475777.1564                   22475778.7074
 11  8 12  1 41  0.0000000  0  7G29G02G12G10G04G05G25
  18474825.00046  14409475.92243  24549629.9064                   24549630.0164
 -52315721.00448 -40710936.03946  20720586.2344                   20720582.3554
 -31791378.87148 -24722076.51646  20681099.8364                   20681097.5904
 -39927816.75047 -31062263.73845  21302004.2274                   21302002.3794
 -62285854.50447 -48476341.23444  23050920.3674                   23050919.8094
 -25349870.37948 -19703467.30546  20623247.5784                   20623245.6024
  -4277131.36747  -3290790.69145  22444448.9224                   22444448.5394
 11  8 12  1 41 30.0000000  0  7G29G02G12G10G04G05G25
  18301279.08646  14274245.45343  24516604.2584                   24516605.5434
 -52387335.19548 -40766739.29346  20706958.6414                   20706954.6294
 -31894140.25448 -24802150.30546  20661544.7974                   20661542.5514
 -39965901.84848 -31091940.42645  21294756.7734                   21294755.3714
 -62296991.01246 -48485019.03544  23048800.9064                   23048800.1024
 -25493920.88348 -19815714.40246  20595835.3204                   20595833.4344
  -4441326.96547  -3418735.31645  22413203.1644                   22413203.8364
 11  8 12  1 42  0.0000000  0  7G29G02G12G10G04G05G25
  18127672.23046  14138967.43442  24483567.7974                   24483568.4574
 -52458753.68448 -40822390.05146  20693368.1334                   20693364.1414
 -31996309.21548 -24881762.47746  20642102.7344                   20642100.3134
 -40003440.05947 -31121190.96545  21287613.5554                   21287611.7194
 -62308117.99647 -48493689.38344  23046684.0474                   23046682.2934
 -25637433.16448 -19927542.09846  20568525.8054                   20568524.2974
  -4605083.78147  -3546337.95345  22382041.2424                   22382042.3834
 11  8 12  1 42 30.0000000  0  7G29G02G12G10G04G05G25
  17954004.94946  14003642.37142  24450520.2034                   24450520.5824
 -52529977.42248 -40877889.04346  20679814.7974                   20679810.8484
 -32097884.52048 -24960912.04746  20622773.5394                   20622771.1994
 -40040433.73848 -31150017.20745  21280573.8204                   21280571.9694
 -62319236.63747 -48502353.24243  23044568.0394                   23044566.5784
 -25780405.75448 -20038949.26246  20541318.8594                   20541317.3754
  -4768399.31647  -3673596.76645  22350963.4224                   22350963.8794
 11  8 12  1 43  0.0000000  0  7G29G02G12G10G04G05G25
                                  19355702.430 6                  24717254.438
 -51025586.70348 -39705636.52346  20966090.7034                   20966087.0634
 -30623444.28148 -23811997.56646  20903350.0784                   20903347.9344
 -38501465.11747 -29950820.85945  21573430.2114                   21573428.1214
 -60754929.16446 -47283412.33643  23342245.5944                   23342244.5124
 -24347413.80948 -18922332.11346  20814008.3754                   20814006.5864
  -3355847.37947  -2572906.94945  22619762.7424                   22619763.0554
 11  8 12  1 43 30.0000000  0  7G29G02G12G10G04G05G25
                                  19181917.348 6                  24684184.531
 -51096423.26248 -39760833.82446  20952611.1484                   20952607.1484
 -30723830.66448 -23890220.72346  20884247.1804                   20884244.9844
 -38537374.89847 -29978802.49645  21566596.5164                   21566594.9414
 -60766033.28946 -47292064.86743  23340132.9384                   23340131.6994
 -24489301.49248 -19032893.89546  20787007.5164                   20787006.1054
  -3518272.39547  -2699471.84845  22588854.7584                   22588855.8524
 11  8 12  1 44  0.0000000  0  7G29G02G12G10G04G05G25
  19008077.08246  15122908.57852  24651103.4224                   24651103.9184
 -51167064.76648 -39815879.15646  20939168.4144                   20939164.4184
 -30823618.42648 -23967977.41446  20865258.5234                   20865256.1884
 -38572742.87548 -30006361.94145  21559866.1174                   21559864.3914
 -60777128.56246 -47300710.53544  23338021.2504                   23338020.3054
 -24630641.52348 -19143028.93046  20760111.6484                   20760109.7424
  -3680245.69547  -2825684.72745  22558031.9144                   22558033.1604
 11  8 12  1 44 30.0000000  0  7G29G02G12G10G04G05G25
  18834181.32846  14987405.45743  24618011.7584                   24618011.8674
 -51237513.18448 -39870774.02746  20925762.7274                   20925758.4224
 -30922808.66048 -24045268.50046  20846383.0474                   20846380.8984
 -38607572.73048 -30033502.07445  21553238.6094                   21553236.5594
 -60788217.17247 -47309351.00844  23335911.6484                   23335910.0664
 -24771433.44148 -19252736.87946  20733319.8594                   20733318.1954
  -3841766.06647  -2951544.69945  22527295.4774                   22527295.9264
 11  8 12  1 45  0.0000000  0  7G29G02G12G10G04G05G25
  18660232.47346  14851861.01643  24584910.5944                   24584910.4454
 -51307767.82048 -39925517.90246  20912393.6564                   20912389.4574
 -31021399.10548 -24122092.21146  20827621.9304                   20827619.3364
 -38641864.81248 -30060223.16045  21546712.9304                   21546711.3874
 -60799297.96547 -47317985.39544  23333803.0474                   23333802.0234
 -24911673.71548 -19362014.95347  20706633.0004                   20706631.1684
  -4002829.19147  -3077048.36745  22496646.4774                   22496647.4454
 11  8 12  1 45 30.0000000  0  7G29G02G12G10G04G05G25
  18486228.10946  14716273.32844  24551799.1804                   24551798.8204
 -51377832.44148 -39980113.71146  20899060.7584                   20899056.7934
 -31119391.94548 -24198450.26246  20808974.4064                   20808971.7894
 -38675623.92248 -30086528.94945  21540288.2814                   21540286.6024
 -60810374.89547 -47326616.77344  23331695.1724                   23331694.6884
 -25051363.71948 -19470864.26646  20680050.7424                   20680049.3874
  -4163435.54747  -3202196.08645  22466083.7114                   22466084.8444
 11  8 12  1 46  0.0000000  0  7G29G02G12G10G04G05G25
  18312171.31647  14580644.72744  24518676.3984                   24518676.5984
 -51447705.71948 -40034560.43446  20885763.8984                   20885759.9884
 -31216784.73848 -24274340.74246  20790441.1024                   20790438.6374
 -38708849.97348 -30112419.36745  21533965.7194                   21533964.1484
 -60821446.55147 -47335244.03944  23329588.5784                   23329587.6844
 -25190499.89848 -19579282.01246  20653574.4534                   20653572.2114
  -4323580.65247  -3326984.40245  22435609.4534                   22435610.1914
 11  8 12  1 46 30.0000000  0  7G29G02G12G10G04G05G25
  18138063.18447  14444976.11744  24485544.7194                   24485545.6454
 -51517388.20348 -40088858.48046  20872504.2194                   20872499.5904
 -31313576.09448 -24349762.56246  20772022.2274                   20772019.9614
 -38741544.80147 -30137895.84045  21527744.6334                   21527742.6684
 -60832513.31647 -47343867.50844  23327482.9614                   23327481.7114
 -25329080.02048 -19687266.48846  20627202.8674                   20627201.2154
  -4483261.50847  -3451410.99645  22405223.2894                   22405223.7704
 11  8 12  1 47  0.0000000  0  7G29G02G12G10G04G05G25
  17963902.35547  14309266.43844  24452403.9454                   24452403.1844
 -51586883.00048 -40143010.28146  20859279.8834                   20859275.7464
 -31409768.43748 -24424717.62146  20753717.7194                   20753715.5274
 -38773712.60247 -30162961.65245  21521622.9534                   21521621.3444
 -60843578.10247 -47352489.42644  23325376.1724                   23325376.0234
 -25467104.91448 -19794818.29746  20600937.9454                   20600936.1134
  -4642478.03147  -3575475.73445  22374924.5784                   22374925.6524
 11  8 12  1 47 30.0000000  0  7G29G02G12G10G04G05G25
  17789690.82847  14173517.23044  24419251.6414                   24419251.8094
 -51656189.69948 -40197015.50446  20846090.9844                   20846087.1604
 -31505360.37548 -24499204.83246  20735526.9694                   20735524.6334
 -38805354.49247 -30187617.65645  21515601.4694                   21515599.9144
 -60854640.76647 -47361109.69944  23323271.5784                   23323270.7814
 -25604571.85948 -19901935.35546  20574778.8364                   20574776.8984
  -4801226.58247  -3699175.81645  22344716.2734                   22344716.9024
 11  8 12  1 48  0.0000000  0  7G29G02G12G10G04G05G25
  17615426.78147  14037727.10944  24386090.8914                   24386090.7234
 -51725311.96548 -40250877.02046  20832937.6174                   20832933.6214
 -31600353.88348 -24573225.74246  20717450.2504                   20717448.0554
 -38836475.42248 -30211867.72345  21509679.5554                   21509677.7934
 -60865704.64846 -47369730.93744  23321165.7584                   23321165.8134
 -25741482.34448 -20008618.79746  20548725.5474                   20548723.5044
  -4959507.68747  -3822511.66845  22314596.0704                   22314596.5594
 11  8 12  1 48 30.0000000  0  7G29G02G12G10G04G05G25
  17441111.71947  13901897.23444  24352919.6334                   24352919.3014
 -51794249.88348 -40304594.88746  20819819.1174                   20819814.8674
 -31694747.69948 -24646779.35246  20699487.6884                   20699485.5554
 -38867076.84847 -30235712.98445  21503856.0004                   21503854.1764
 -60876769.82046 -47378353.18044  23319060.4384                   23319060.0354
 -25877834.03548 -20114866.82847  20522778.4614                   20522776.7624
  -5117318.09847  -3945480.73445  22284565.6254                   22284566.6214
 11  8 12  1 49  0.0000000  0  7G29G02G12G10G04G05G25
  17266746.23047  13766028.05944  24319739.1564                   24319738.7274
 -51863004.15248 -40358169.64546  20806735.6954                   20806731.5514
 -31788541.29348 -24719865.27046  20681639.8134                   20681636.9304
 -38897160.78948 -30259155.00845  21498131.5634                   21498130.0044
 -60887836.82446 -47386976.84044  23316954.0704                   23316953.8914
 -26013625.23048 -20220678.10946  20496938.7034                   20496936.4694
  -5274655.32847  -4068081.10545  22254625.8444                   22254626.0204
 11  8 12  1 49 30.0000000  0  7G29G02G12G10G04G05G25
  17092333.46947  13630122.06344  24286548.9454                   24286548.8524
 -51931573.57048 -40411600.36746  20793687.1884                   20793683.0784
 -31881732.91848 -24792482.11746  20663905.6024                   20663903.4884
 -38926727.54348 -30282194.03545  21492505.4384                   21492503.2624
 -60898904.22346 -47395600.80543  23314847.6884                   23314848.0514
 -26148852.43048 -20326049.91846  20471205.5084                   20471203.3244
  -5431514.94547  -4190309.31645  22224776.1724                   22224776.2344
 11  8 12  1 50  0.0000000  0  7G29G02G12G10G04G05G25
  16917872.07046  13494178.18044  24253350.3134                   24253350.3754
 -51999961.08248 -40464889.33646  20780673.6254                   20780669.4534
 -31974324.30948 -24864631.25046  20646286.3594                   20646283.9344
 -38955781.52347 -30304833.50045  21486975.9534                   21486974.2734
 -60909975.14846 -47404227.54743  23312740.8594                   23312741.0204
 -26283516.61748 -20430983.00446  20445579.6484                   20445577.4494
  -5587896.90247  -4312165.32045  22195017.3754                   22195017.8594
 11  8 12  1 50 30.0000000  0  7G29G02G12G10G04G05G25
  16743362.96146  13358197.10544  24220141.6414                   24220141.5944
 -52068167.52748 -40518037.21946  20767694.3594                   20767690.2114
 -32066314.70348 -24936312.07446  20628780.8754                   20628778.7344
 -38984325.08648 -30327075.23445  21481544.6484                   21481542.7154
 -60921050.22746 -47412857.52743  23310633.5634                   23310634.0204
 -26417616.34848 -20535476.26646  20420061.3674                   20420058.9574
  -5743798.75047  -4433647.24245  22165350.5784                   22165350.9734
 11  8 12  1 51  0.0000000  0  7G29G02G12G10G04G05G25
  16568803.71946  13222176.99643  24186924.5634                   24186924.6684
 -52136197.18048 -40571047.33646  20754748.8284                   20754744.7344
 -32157707.57448 -25007527.30146  20611389.7504                   20611387.2344
 -39012363.44147 -30348923.29745  21476208.7504                   21476207.5634
 -60932133.39546 -47421493.75843  23308524.8754                   23308523.9304
 -26551153.46948 -20639531.13747  20394649.9844                   20394648.2074
  -5899221.52047  -4554755.82845  22135774.1804                   22135774.7304
 11  8 12  1 51 30.0000000  0  7G29G02G12G10G04G05G25
  17969623.59446  14313725.04343  24453491.1254                   24453492.0704
 -50628626.09048 -39396316.60246  21041629.9614                   21041625.8164
 -30673077.27748 -23850672.52046  20893905.4144                   20893903.3324
 -37464475.46148 -29142776.82445  21770762.2504                   21770761.2464
 -59367802.54346 -46202534.65643  23606207.1954                   23606206.2544
 -25108699.87548 -19515541.28946  20669139.9694                   20669137.6764
  -4478735.24247  -3447883.36745  22406083.8674                   22406083.8324
 11  8 12  1 52  0.0000000  0  7G29G02G12G10G04G05G25
  17794969.73845  14177631.22342  24420255.4694                   24420256.0554
 -50696301.37548 -39449050.57846  21028751.6564                   21028747.6604
 -30763271.54748 -23920953.77746  20876741.7894                   20876739.4844
 -37491507.35248 -29163840.63745  21765618.7424                   21765617.2384
 -59378900.93446 -46211182.76243  23604094.8524                   23604094.4414
 -25241104.91048 -19618714.01647  20643943.9844                   20643941.8554
  -4633189.80547  -3568237.52745  22376692.0234                   22376692.6454
 11  8 12  1 52 30.0000000  0  7G29G02G12G10G04G05G25
  17620267.74246  14041499.89543  24387010.8914                   24387010.4844
 -50763802.78548 -39501649.07046  21015906.4224                   21015902.2624
 -30852868.20348 -23990769.36346  20859692.1414                   20859689.6024
 -37518041.61347 -29184516.69145  21760569.2114                   21760567.1524
 -59390010.04347 -46219839.18443  23601981.5474                   23601980.3794
 -25372943.82448 -19721445.60546  20618855.4064                   20618853.7154
  -4787158.95348  -3688213.42246  22347393.0164                   22347392.6994
 11  8 12  1 53  0.0000000  0  7G29G02G12G10G04G05G25
  17445517.84446  13905331.25843  24353756.9924                   24353756.8834
 -50831131.81248 -39554113.23846  21003094.2114                   21003089.9184
 -30941867.98048 -24060119.84446  20842756.0394                   20842753.8164
 -37544081.17648 -29204807.26245  21755614.1094                   21755612.3634
 -59401131.33647 -46228505.11344  23599865.6484                   23599864.2584
 -25504216.24248 -19823735.77046  20593875.4774                   20593873.5824
  -4940641.17648  -3807809.94545  22318185.9844                   22318185.9614
 11  8 12  1 53 30.0000000  0  7G29G02G12G10G04G05G25
  17270724.18446  13769128.47743  24320495.3204                   24320495.1914
 -50898286.36348 -39606441.44146  20990315.4144                   20990311.1954
 -31030267.23848 -24129002.38346  20825934.1804                   20825931.8134
 -37569625.43448 -29224711.88745  21750753.3984                   21750751.5784
 -59412262.14147 -46237178.47743  23597746.8054                   23597745.6844
 -25634917.72748 -19925581.05147  20569003.7894                   20569001.7074
  -5093631.11748  -3927022.86745  22289072.8364                   22289073.3674
 11  8 12  1 54  0.0000000  0  7G29G02G12G10G04G05G25
  17095885.34446  13632890.48443  24287224.9774                   24287223.9534
 -50965269.06248 -39658635.73846  20977568.8364                   20977564.3954
 -31118068.38348 -24197418.86746  20809226.3754                   20809223.5474
 -37594678.67647 -29244233.89845  21745985.6564                   21745983.9104
 -59423405.72747 -46245861.77044  23595626.9534                   23595625.0984
 -25765049.54748 -20026982.44146  20544240.6954                   20544238.4804
  -5246128.87148  -4045852.23846  22260053.5004                   22260054.1024
 11  8 12  1 54 30.0000000  0  7G29G02G12G10G04G05G25
  16921002.90246  13496618.42243  24253945.3984                   24253944.8054
 -51032080.07848 -39710696.25446  20964855.3524                   20964850.8524
 -31205270.88348 -24265368.87546  20792632.2424                   20792629.8364
 -37619242.60947 -29263374.64145  21741311.4534                   21741309.7704
 -59434561.53547 -46254554.62544  23593503.6954                   23593502.6414
 -25894609.70348 -20127938.37546  20519586.0864                   20519584.0634
  -5398131.35247  -4164295.72745  22231128.1174                   22231128.1604
 11  8 12  1 55  0.0000000  0  7G29G02G12G10G04G05G25
  16746078.49647  13360313.73043  24220658.9924                   24220658.3404
 -51098719.35248 -39762622.94546  20952173.9694                   20952169.8054
 -31291873.74248 -24332851.63746  20776152.0554                   20776149.7974
 -37643318.58247 -29282135.14545  21736729.7194                   21736727.7274
 -59445729.51647 -46263256.97344  23591377.7584                   23591377.9264
 -26023596.28948 -20228447.37547  20495040.6174                   20495038.3244
  -5549635.51648  -4282350.90646  22202298.3204                   22202298.2774
 11  8 12  1 55 30.0000000  0  7G29G02G12G10G04G05G25
  16571111.19947  13223975.54344  24187363.2894                   24187362.7774
 -51165190.21548 -39814418.39546  20939525.2664                   20939520.8364
 -31377879.49648 -24399869.11346  20759785.3204                   20759783.4414
 -37666911.50448 -29300519.23845  21732240.1254                   21732238.6564
 -59456912.64146 -46271971.08644  23589250.8984                   23589249.5704
 -26152010.08248 -20328510.04347  20470604.3204                   20470602.3404
  -5700641.48448  -4400017.84846  22173562.7194                   22173563.3054
 11  8 12  1 56  0.0000000  0  7G29G02G12G10G04G05G25
  16396101.32847  13087604.23044  24154060.1804                   24154059.4384
 -51231493.60548 -39866083.35546  20926907.8754                   20926903.3484
 -31463288.27048 -24466421.41446  20743532.8834                   20743530.6914
 -37690024.47747 -29318529.36345  21727841.8364                   21727840.2304
 -59468111.76646 -46280697.71944  23587118.8984                   23587118.5864
 -26279850.57448 -20428125.97747  20446277.2504                   20446275.2974
  -5851147.59848  -4517295.31645  22144922.1484                   22144922.0434
 11  8 12  1 56 30.0000000  0  7G29G02G12G10G04G05G25
  16221050.50447  12951200.97344  24120748.9774                   24120748.3484
 -51297629.28148 -39917617.62546  20914322.3364                   20914318.4414
 -31548099.23448 -24532507.88746  20727394.1484                   20727391.8244
 -37712658.70747 -29336166.43045  21723534.7504                   21723532.9844
 -59479326.68446 -46289436.66844  23584985.1484                   23584984.9734
 -26407115.75848 -20527293.61747  20422059.1564                   20422057.5354
  -6001150.59048  -4634180.75446  22116377.7194                   22116378.2234
 11  8 12  1 57  0.0000000  0  7G29G02G12G10G04G05G25
  16045958.16047  12814765.41844  24087429.7974                   24087429.1644
 -51363600.06248 -39969023.40646  20901768.6954                   20901764.7114
 -31632314.43048 -24598130.12946  20711368.7894                   20711366.2734
 -37734818.40647 -29353433.72745  21719318.1254                   21719316.2154
 -59490559.97347 -46298189.88743  23582848.0084                   23582846.6254
 -26533806.61348 -20626013.73447  20397950.7974                   20397948.9414
  -6150650.50048  -4750674.16846  22087928.6254                   22087929.2154
 11  8 12  1 57 30.0000000  0  7G29G02G12G10G04G05G25
  15870826.81647  12678299.43844  24054103.9534                   24054103.4884
 -51429405.31248 -40020300.19146  20889246.7114                   20889242.4064
 -31715932.38348 -24663286.98446  20695456.4614                   20695454.2504
 -37756504.82847 -29370332.25445  21715191.4064                   21715189.2384
 -59501810.72346 -46306956.72743  23580707.0084                   23580705.8874
 -26659920.52348 -20724284.27747  20373951.9844                   20373950.1684
  -6299643.64548  -4866772.70745  22059576.1484                   22059576.1174
 11  8 12  1 58  0.0000000  0  7G29G02G12G10G04G05G25
  15695653.39146  12541800.68444  24020768.6954                   24020768.2734
 -51495049.71548 -40071451.65646  20876754.8054                   20876750.6484
 -31798957.25848 -24727981.71146  20679657.5554                   20679654.8794
 -37777724.30947 -29386866.92245  21711153.2424                   21711151.5314
 -59513083.25447 -46315740.56243  23578562.2274                   23578560.8554
 -26785460.25448 -20822107.40647  20350062.7194                   20350060.8364
  -6448131.74648  -4982477.71546  22031320.1024                   22031320.6844
 11  8 12  1 58 30.0000000  0  7G29G02G12G10G04G05G25
  15520444.91846  12405274.59844  23987427.6884                   23987428.3094
 -51560528.24648 -40122473.86746  20864294.7034                   20864290.7274
 -31881383.44148 -24792209.92246  20663972.3054                   20663969.8914
 -37798473.22347 -29403034.90245  21707204.6564                   21707203.3324
 -59524372.22747 -46324537.17644  23576413.5554                   23576412.8134
 -26910418.87548 -20919477.72347  20326283.5864                   20326281.7774
  -6596106.87148  -5097782.98846  22003160.6564                   22003161.6994
 11  8 12  1 59  0.0000000  0  7G29G02G12G10G04G05G25
  15345195.80946  12268716.89144  23954079.2894                   23954078.6024
 -51625847.56248 -40173372.02746  20851864.8594                   20851860.5274
 -31963217.41448 -24855976.66046  20648399.9384                   20648397.5664
 -37818760.14847 -29418842.91045  21703344.6094                   21703342.1684
 -59535684.68747 -46333352.08243  23574260.9224                   23574259.8524
 -27034802.05148 -21016399.64147  20302614.3754                   20302612.1054
  -6743573.43748  -5212691.98446  21975099.0474                   21975099.5124
 11  8 12  1 59 30.0000000  0  7G29G02G12G10G04G05G25
  15169909.55546  12132130.25844  23920723.4534                   23920723.1054
 -51691006.20348 -40224144.97346  20839465.4144                   20839461.4734
 -32044457.16448 -24919280.37546  20632940.1804                   20632937.8204
 -37838585.14847 -29434290.95745  21699571.5704                   21699569.6644
 -59547018.80147 -46342183.84443  23572103.6644                   23572102.7544
 -27158606.40248 -21112870.52747  20279055.1484                   20279053.0554
  -6890526.87948  -5327201.14846  21947134.5234                   21947135.6214
 11  8 12  2  0  0.0000000  0  7G29G02G12G10G04G05G25
  16570012.94546  13223119.93843  24187154.3594                   24187154.1294
 -50180583.08248 -39047191.87146  21126889.4064                   21126885.1804
 -30549680.38748 -23754519.24646  20917387.1724                   20917384.5904
 -36282530.78947 -28221781.07845  21995678.6564                   21995677.4414
 -57982954.91847 -45123432.74643  23869735.3444                   23869734.5474
 -25706407.06648 -19981286.59047  20555399.4454                   20555397.4884
  -5461540.72348  -4213705.42646  22219061.3834                   22219062.2774
 11  8 12  2  0 30.0000000  0  7G29G02G12G10G04G05G25
  16394656.62546  13086478.71944  24153785.0634                   24153784.8594
 -50245421.52348 -39097715.33246  21114550.8134                   21114546.7584
 -30629731.00848 -23816896.35546  20902153.8284                   20902151.5084
 -36301439.11347 -28236514.84045  21992081.1094                   21992079.1724
 -57994332.78947 -45132298.59044  23867570.8054                   23867568.8204
 -25829049.81248 -20076852.31647  20532061.1644                   20532059.0514
  -5607461.03548  -4327409.55145  22191293.9844                   22191294.2774
 11  8 12  2  1  0.0000000  0  7G29G02G12G10G04G05G25
  16219267.38346  12949811.83644  24120409.5084                   24120408.9654
 -50310100.60948 -39148114.61746  21102243.3914                   21102238.6804
 -30709187.05548 -23878810.17646  20887034.0554                   20887031.3014
 -36319892.09447 -28250893.78945  21988569.7114                   21988567.5394
 -58005732.86747 -45141181.77043  23865400.9144                   23865399.9024
 -25951110.30548 -20171964.34447  20508833.8444                   20508831.8834
  -5752861.28948  -4440708.43046  22163625.7584                   22163625.8874
 11  8 12  2  1 30.0000000  0  7G29G02G12G10G04G05G25
  16043845.03946  12813119.19943  24087027.3914                   24087027.1764
 -50374622.07848 -39198391.09046  21089965.1094                   21089961.2734
 -30788050.18448 -23940261.98446  20872027.0164                   20872024.4304
 -36337893.62947 -28264920.96945  21985143.9304                   21985142.0944
 -58017156.77347 -45150083.47343  23863226.7894                   23863225.8524
 -26072588.64548 -20266622.74647  20485717.5864                   20485715.3874
  -5897740.62948  -4553601.38346  22136055.9304                   22136056.3134
 11  8 12  2  2  0.0000000  0  7G29G02G12G10G04G05G25
  15868387.09446  12676398.82444  24053638.1644                   24053638.2544
 -50438990.22348 -39248548.09046  21077716.1484                   21077712.1844
 -30866324.19948 -24001254.75046  20857131.9384                   20857129.4614
 -36355449.79348 -28278601.10245  21981803.2584                   21981801.4064
 -58028608.24647 -45159006.68743  23861047.4064                   23861046.8324
 -26193487.23448 -20360829.39547  20462710.8594                   20462709.3324
  -6042100.52348  -4666089.58246  22108584.9224                   22108584.6524
 11  8 12  2  2 30.0000000  0  7G29G02G12G10G04G05G25
  15692899.42246  12539655.26643  24020244.2344                   24020244.0744
 -50503201.10248 -39298582.55146  21065497.0944                   21065493.0984
 -30944004.72748 -24061785.04746  20842349.5554                   20842347.2154
 -36372558.16447 -28291932.30545  21978547.5704                   21978545.9264
 -58040083.66447 -45167948.53943  23858863.4614                   23858862.5164
 -26313801.20748 -20454580.49247  20439816.1414                   20439814.0664
  -6185934.52748  -4778168.00846  22081214.6334                   22081214.4384
 11  8 12  2  3  0.0000000  0  7G29G02G12G10G04G05G25
  15517379.82846  12402886.86743  23986843.4694                   23986844.3674
 -50567258.45348 -39348497.37146  21053307.5864                   21053303.5234
 -31021095.41848 -24121855.73446  20827679.9694                   20827677.3444
 -36389224.37947 -28304918.96145  21975375.7274                   21975374.1374
 -58051586.21946 -45176911.57843  23856675.4224                   23856674.4344
 -26433532.42648 -20547877.50047  20417031.9304                   20417029.4534
  -6329243.83248  -4889837.55946  22053943.2194                   22053944.3484
 11  8 12  2  3 30.0000000  0  7G29G02G12G10G04G05G25
  15341829.05146  12266094.12143  23953438.0634                   23953436.7424
 -50631163.36348 -39398293.42246  21041147.1094                   21041142.7974
 -31097596.36348 -24181466.88346  20813122.2424                   20813120.1994
 -36405451.73447 -28317563.65645  21972287.9844                   21972286.4304
 -58063116.88746 -45185896.53143  23854480.9614                   23854480.1724
 -26552680.29748 -20640719.94547  20394358.8914                   20394356.6294
  -6472026.84048  -5001097.02346  22026772.6174                   22026772.6414
 11  8 12  2  4  0.0000000  0  7G29G02G12G10G04G05G25
  15166249.31346  12129278.82044  23920026.1174                   23920025.3484
 -50694915.43448 -39447970.36346  21029015.4384                   21029011.3794
 -31173508.18748 -24240618.96946  20798676.8444                   20798674.3484
 -36421241.71147 -28329867.52045  21969283.3364                   21969281.5394
 -58074675.16446 -45194902.96543  23852281.8594                   23852281.1604
 -26671243.62148 -20733106.90647  20371797.0634                   20371794.7734
  -6614280.75848  -5111944.21546  21999702.2894                   21999703.3054
 11  8 12  2  4 30.0000000  0  7G29G02G12G10G04G05G25
  14990640.11746  11992440.55944  23886608.9774                   23886608.0634
 -50758517.32848 -39497530.28946  21016912.3674                   21016908.4574
 -31248832.70748 -24299313.41446  20784342.8754                   20784340.6174
 -36436598.93447 -28341834.17645  21966360.7734                   21966359.0274
 -58086263.32446 -45203932.71143  23850076.3364                   23850075.7424
 -26789223.53548 -20825039.27047  20349346.2424                   20349344.1844
  -6756005.63348  -5222379.16446  21972733.0634                   21972733.5514
 11  8 12  2  5  0.0000000  0  7G29G02G12G10G04G05G25
  14815000.59047  11855578.63744  23853186.1174                   23853185.0354
 -50821971.29348 -39546974.94946  21004837.5704                   21004833.4024
 -31323571.77748 -24357551.65646  20770120.6094                   20770118.2504
 -36451527.28547 -28353466.66845  21963520.4454                   21963518.7854
 -58097883.21946 -45212987.18744  23847865.4614                   23847864.4654
 -26906620.92248 -20916517.71147  20327005.7734                   20327003.8484
  -6897200.95348  -5332401.46946  21945864.8834                   21945864.9024
 11  8 12  2  5 30.0000000  0  7G29G02G12G10G04G05G25
  14639335.80947  11718697.05544  23819758.4534                   23819756.5664
 -50885274.07848 -39596301.81246  20992791.1094                   20992787.2504
 -31397722.50848 -24415331.45746  20756010.0704                   20756007.9224
 -36466025.44547 -28364763.93445  21960761.1884                   21960759.5274
 -58109531.69946 -45222063.93744  23845649.1414                   23845647.8284
 -27023431.23448 -21007538.69947  20304777.9304                   20304775.7274
  -7037861.27048  -5442006.89146  21919097.8914                   21919098.4184
 11  8 12  2  6  0.0000000  0  7G29G02G12G10G04G05G25
  14463645.26647  11581795.36744  23786325.8594                   23786324.2974
 -50948428.28148 -39645512.88346  20980773.2664                   20980769.2384
 -31471286.94948 -24472654.40646  20742011.1644                   20742008.9804
 -36480097.81247 -28375729.40245  21958083.4614                   21958081.8554
 -58121211.04746 -45231164.74644  23843426.2114                   23843425.5044
 -27139655.55148 -21098103.07447  20282660.9924                   20282659.0354
  -7177986.62548  -5551195.46546  21892432.8444                   21892433.0234
 11  8 12  2  6 30.0000000  0  7G29G02G12G10G04G05G25
  14287929.53547  11444874.06644  23752887.6954                   23752886.9304
 -51011435.03948 -39694609.07046  20968783.6254                   20968779.7424
 -31544266.35948 -24529521.48846  20728123.7814                   20728121.6024
 -36493747.71947 -28386365.68745  21955485.7894                   21955483.9264
 -58132922.00846 -45240290.18444  23841197.7974                   23841196.8874
 -27255294.16448 -21188211.05147  20260655.5164                   20260653.2274
  -7317575.71948  -5659966.19146  21865869.8834                   21865869.9964
 11  8 12  2  7  0.0000000  0  7G29G02G12G10G04G05G25
  14112186.80147  11307931.72344  23719444.4304                   23719443.6254
 -51074297.71148 -39743592.97746  20956821.2734                   20956817.1724
 -31616664.23448 -24585935.42646  20714346.6174                   20714344.2504
 -36506980.68047 -28396677.07045  21952967.5864                   21952966.1484
 -58144668.03147 -45249442.91843  23838962.9844                   23838961.3674
 -27370349.07848 -21277864.19547  20238761.3364                   20238759.1644
  -7456629.68448  -5768319.93446  21839409.0164                   21839409.4844
 11  8 12  2  7 30.0000000  0  7G29G02G12G10G04G05G25
  13936420.45347  11170970.94944  23685997.6644                   23685996.2664
 -51137014.54348 -39792463.24646  20944886.8134                   20944882.7854
 -31688478.89548 -24641894.91046  20700681.0084                   20700678.7584
 -36519796.97347 -28406663.78545  21950528.6884                   21950527.2384
 -58156446.83247 -45258621.23444  23836721.0554                   23836720.0514
 -27484817.43048 -21367060.27747  20216979.0314                   20216976.4924
  -7595144.31648  -5876253.40646  21813050.5004                   21813050.9774
 11  8 12  2  8  0.0000000  0  7G29G02G12G10G04G05G25
  13760633.56346  11033994.19544  23652546.1724                   23652545.4454
 -51199584.71948 -39841219.23046  20932979.8984                   20932975.5944
 -31759708.94148 -24697398.84446  20687126.4384                   20687124.2624
 -36532197.13347 -28416326.25445  21948169.2814                   21948167.3284
 -58168257.50046 -45267824.39543  23834473.6884                   23834473.0044
 -27598697.18048 -21455797.71147  20195308.0864                   20195306.0474
  -7733116.16048  -5983763.94546  21786795.2424                   21786795.7234
 11  8 12  2  8 30.0000000  0  7G29G02G12G10G04G05G25
  15160250.76246  12124605.05544  23918883.7274                   23918883.7584
 -49686589.08648 -38662261.60946  21220893.3984                   21220889.2194
 -30254935.63348 -23524848.22746  20973475.2894                   20973473.1644
 -34968765.82447 -27198068.08245  22245680.7194                   22245678.9024
 -56604682.00846 -44049453.84443  24132012.1884                   24132011.5634
 -26136566.24648 -20316474.87147  20473542.3524                   20473539.8794
  -6295121.42248  -4863248.58246  22060436.5164                   22060436.8634
 11  8 12  2  9  0.0000000  0  7G29G02G12G10G04G05G25
  14984418.62947  11987593.05544  23885425.0084                   23885424.0784
 -49748875.36348 -38710796.36746  21209040.5634                   21209037.0274
 -30325007.37948 -23579449.58246  20960141.3364                   20960138.6414
 -34980349.75847 -27207094.53145  22243475.7424                   22243474.5744
 -56616564.70346 -44058713.07843  24129750.5634                   24129749.7304
 -26249274.80148 -20404299.68747  20452094.4144                   20452092.3134
  -6432010.58248  -4969915.46946  22034387.6094                   22034388.0434
 11  8 12  2  9 30.0000000  0  7G29G02G12G10G04G05G25
  14808566.50946  11850565.46744  23851960.7424                   23851960.5314
 -49811019.82848 -38759220.62546  21197214.9144                   21197210.5554
 -30394500.28148 -23633599.89846  20946917.1414                   20946914.6134
 -34991528.77347 -27215805.46145  22241348.9614                   22241346.3594
 -56628483.38746 -44068000.37143  24127482.7194                   24127481.7544
 -26361396.71148 -20491667.38347  20430758.1954                   20430756.1454
  -6568355.14548  -5076157.97346  22008441.7894                   22008441.9774
 11  8 12  2 10  0.0000000  0  7G29G02G12G10G04G05G25
  14632693.31347  11713521.48844  23818493.2114                   23818493.4964
 -49873025.50848 -38807536.73046  21185415.7274                   21185411.6454
 -30463417.28548 -23687301.46146  20933802.7504                   20933800.3094
 -35002307.81247 -27224204.71545  22239297.0944                   22239295.3714
 -56640440.71546 -44077317.77043  24125207.0944                   24125205.6564
 -26472933.61748 -20578579.23447  20409533.5554                   20409531.4774
  -6704155.78148  -5181976.65246  21982599.7894                   21982599.8714
 11  8 12  2 10 30.0000000  0  7G29G02G12G10G04G05G25
  14456802.46547  11576463.74644  23785022.2664                   23785022.4224
 -49934890.68448 -38855743.34846  21173643.0704                   21173638.6804
 -30531756.85248 -23740553.07446  20920797.9454                   20920795.6294
 -35012687.13347 -27232292.48845  22237322.7274                   22237320.1094
 -56652434.47346 -44086663.55143  24122924.9064                   24122923.5274
 -26583882.76648 -20665033.09047  20388420.9384                   20388418.8834
  -6839408.47748  -5287368.34446  21956862.6724                   21956862.5204
 11  8 12  2 11  0.0000000  0  7G29G02G12G10G04G05G25
  14280893.62547  11439391.98044  23751548.8594                   23751547.7424
 -49996617.74648 -38903842.35246  21161896.7974                   21161892.9844
 -30599521.55948 -23793356.74646  20907902.3984                   20907900.5004
 -35022671.52747 -27240072.52745  22235422.3134                   22235420.5904
 -56664467.14846 -44096039.64543  24120634.4614                   24120633.6724
 -26694245.59848 -20751030.06647  20367419.3754                   20367417.1994
  -6974113.56248  -5392333.33246  21931228.6334                   21931229.2774
 11  8 12  2 11 30.0000000  0  7G29G02G12G10G04G05G25
  14104969.03547  11302307.96944  23718071.0164                   23718070.5744
 -50058205.98048 -38951833.17246  21150177.2734                   21150172.9344
 -30666711.29748 -23845712.39546  20895116.9454                   20895114.6214
 -35032262.24247 -27247545.80145  22233597.1884                   22233595.4574
 -56676537.77346 -44105445.31643  24118337.5944                   24118336.1564
 -26804020.64848 -20836569.03947  20346529.9924                   20346527.5044
  -7108268.22748  -5496869.41846  21905699.7814                   21905700.4454
 11  8 12  2 12  0.0000000  0  7G29G02G12G10G04G05G25
  13929027.30947  11165210.57444  23684590.3524                   23684589.5744
 -50119658.85548 -38999718.52046  21138483.2504                   21138478.6254
 -30733329.36748 -23897622.58246  20882439.9304                   20882437.8244
 -35041464.71147 -27254716.55945  22231845.8444                   22231844.2464
 -56688649.06646 -44114882.69543  24116033.1484                   24116032.1214
 -26913210.13348 -20921651.73047  20325751.8594                   20325749.7504
  -7241873.56648  -5600977.47746  21880275.5164                   21880275.4884
 11  8 12  2 12 30.0000000  0  7G29G02G12G10G04G05G25
  13753069.63347  11028100.77044  23651107.0784                   23651105.3554
 -50180977.04748 -39047498.91846  21126814.2114                   21126810.0354
 -30799376.78948 -23949088.09846  20869871.6644                   20869869.1024
 -35050281.68447 -27261586.93045  22230168.5314                   22230166.2154
 -56700802.01646 -44124352.53543  24113720.7894                   24113719.9654
 -27021814.36348 -21006278.37947  20305085.2274                   20305083.0274
  -7374928.32848  -5704656.50446  21854955.9534                   21854956.6454
 11  8 12  2 13  0.0000000  0  7G29G02G12G10G04G05G25
  13577102.43447  10890983.52744  23617621.5704                   23617619.8874
 -50242155.78948 -39095170.65246  21115172.4144                   21115168.5904
 -30864849.50848 -24000105.80146  20857412.5234                   20857410.3404
 -35058710.71547 -27268155.00845  22228563.8524                   22228562.6994
 -56712991.41046 -44133850.76243  24111401.0704                   24111400.0274
 -27129827.69148 -21090444.59047  20284530.8594                   20284528.7734
  -7507425.70348  -5807901.18446  21829742.5394                   21829743.0784
 11  8 12  2 13 30.0000000  0  7G29G02G12G10G04G05G25
  13401122.78147  10753856.57044  23584133.0164                   23584131.5904
 -50303199.73048 -39142737.34046  21103555.9224                   21103552.2774
 -30929752.31648 -24050679.41846  20845062.0394                   20845059.6954
 -35066758.52747 -27274426.03545  22227032.6884                   22227031.1644
 -56725221.49247 -44143380.71143  24109073.3914                   24109072.9064
 -27237253.60948 -21174153.07847  20264088.1174                   20264085.8754
  -7639368.19148  -5910713.50046  21804634.7504                   21804635.1604
 11  8 12  2 14  0.0000000  0  7G29G02G12G10G04G05G25
  13225130.59447  10616719.83644  23550642.7424                   23550641.7664
 -50364111.26648 -39190200.85946  21091964.9614                   21091961.0864
 -30994088.07848 -24100811.17646  20832819.4144                   20832816.7664
 -35074429.46547 -27280403.40244  22225573.0634                   22225571.5864
 -56737494.32846 -44152943.95343  24106738.5234                   24106737.9024
 -27344094.03548 -21257405.33647  20243757.3284                   20243755.1604
  -7770756.10948  -6013093.68046  21779632.7504                   21779633.4414
 11  8 12  2 14 30.0000000  0  7G29G02G12G10G04G05G25
  13049126.37947  10479573.76644  23517150.3984                   23517149.2114
 -50424891.41848 -39237562.01246  21080399.2504                   21080395.2034
 -31057858.64848 -24150502.54346  20820684.1414                   20820681.9734
 -35081727.15647 -27286089.90645  22224184.2504                   22224182.8834
 -56749811.08246 -44162541.47743  24104394.6174                   24104393.8714
 -27450349.41448 -21340201.71547  20223537.6414                   20223535.4454
  -7901588.76648  -6115041.18046  21754735.8204                   21754736.4414
 11  8 12  2 15  0.0000000  0  7G29G02G12G10G04G05G25
  12873113.42247  10342420.89144  23483656.3444                   23483655.3634
 -50485538.92248 -39284819.78946  21068858.2814                   21068854.2034
 -31121062.65648 -24199752.42246  20808656.8834                   20808654.4654
 -35088651.89147 -27291485.81645  22222866.2974                   22222864.8594
 -56762169.85246 -44172171.68443  24102043.2344                   24102042.9304
 -27556017.33248 -21422540.34047  20203429.4384                   20203427.3794
  -8031862.67248  -6216553.30546  21729945.4844                   21729945.9964
 11  8 12  2 15 30.0000000  0  7G29G02G12G10G04G05G25
  12697091.19547  10205260.74644  23450160.3524                   23450159.4414
 -50546056.07048 -39331975.99646  21057342.2194                   21057338.5784
 -31183703.23448 -24248563.26646  20796736.6884                   20796734.5864
 -35095208.63347 -27296594.96945  22221619.4534                   22221617.1294
 -56774573.01646 -44181836.49644  24099683.6884                   24099681.8554
 -27661100.04748 -21504422.94947  20183433.0004                   20183430.6844
  -8161578.40248  -6317630.47346  21705261.5704                   21705262.1214
 11  8 12  2 16  0.0000000  0  7G29G02G12G10G04G05G25
  12521063.67647  10068096.51244  23416663.2504                   23416662.3364
 -50606440.99648 -39379029.17246  21045851.2894                   21045847.2854
 -31245778.80148 -24296933.84046  20784924.1024                   20784921.3054
 -35101397.27347 -27301417.29344  22220441.2974                   22220439.3714
 -56787017.88346 -44191533.81643  24097314.6884                   24097314.0084
 -27765594.66048 -21585847.30547  20163548.3054                   20163546.0594
  -8290731.78548  -6418269.46546  21680684.3284                   21680684.3954
 11  8 12  2 16 30.0000000  0  7G29G02G12G10G04G05G25
  12345029.98047   9930927.44144  23383164.8594                   23383163.6954
 -50666696.51648 -39425981.52046  21034385.1484                   21034381.2234
 -31307292.75848 -24344866.79746  20773218.3054                   20773216.1454
 -35107223.05147 -27305956.87944  22219333.0084                   22219331.4454
 -56799507.07446 -44201265.67243  24094939.2114                   24094937.2624
 -27869503.14848 -21666814.94547  20143775.3284                   20143772.8634
  -8419323.87948  -6518471.08646  21656214.2274                   21656214.3794
 11  8 12  2 17  0.0000000  0  7G29G02G12G10G04G05G25
  13744413.06647  11021355.87944  23649458.5234                   23649457.5824
 -49151405.11748 -38245234.96146  21322735.2664                   21322731.1914
 -29792827.97348 -23164764.37546  21061411.6564                   21061409.0434
 -33537272.25847 -26082618.60545  22518083.9614                   22518082.6604
 -55236624.51646 -42983435.13343  24392344.9924                   24392344.6334
 -26397406.31648 -20519726.47747  20423905.9844                   20423903.3914
  -6971933.25448  -5390634.22746  21931643.3364                   21931643.7814
 11  8 12  2 17 30.0000000  0  7G29G02G12G10G04G05G25
  13568369.58246  10884179.19944  23615958.3834                   23615957.9844
 -49211404.14548 -38291987.44146  21311317.8594                   21311314.1954
 -29853223.26248 -23211825.63746  21049918.8834                   21049915.9414
 -33542381.30147 -26086599.69944  22517112.5084                   22517110.0164
 -55249204.55146 -42993237.73443  24389950.5554                   24389950.2814
 -26500144.02348 -20599781.82047  20404355.7344                   20404353.4454
  -7099400.02348  -5489958.98046  21907387.5554                   21907387.4534
 11  8 12  2 18  0.0000000  0  7G29G02G12G10G04G05G25
  13392322.71547  10746999.86744  23582458.4614                   23582457.6254
 -49271276.66448 -38338641.34046  21299924.6414                   21299920.3364
 -29913061.82048 -23258453.08646  21038531.7504                   21038529.5554
 -33547136.63347 -26090305.15645  22516207.2894                   22516205.5394
 -55261830.81646 -43003076.40643  24387547.4844                   24387547.3674
 -26602297.03948 -20679381.54347  20384916.5864                   20384913.6724
  -7226303.01248  -5588844.40646  21883238.3364                   21883238.7384
 11  8 12  2 18 30.0000000  0  7G29G02G12G10G04G05G25
  13216272.93847  10609818.29744  23548957.2424                   23548956.5744
 -49331023.94548 -38385197.65246  21288555.0394                   21288551.0164
 -29972345.65648 -23304648.28146  21027250.4224                   21027248.1644
 -33551542.06247 -26093737.97744  22515369.0704                   22515366.9534
 -55274504.68046 -43012952.15643  24385136.5704                   24385135.6024
 -26703866.16048 -20758526.28947  20365588.5474                   20365585.8914
  -7352641.71948  -5687290.14546  21859196.7424                   21859196.6484
 11  8 12  2 19  0.0000000  0  8G29G02G12G10G04G05G25G26
  13040219.86746  10472634.15644  23515455.2734                   23515453.6374
 -49390648.15648 -38431658.06246  21277209.1094                   21277204.9884
 -30031077.78548 -23350413.57046  21016073.9844                   21016071.4414
 -33555602.01247 -26096901.59844  22514596.5864                   22514594.8834
 -55287228.20746 -43022866.61343  24382715.0084                   24382713.9414
 -26804853.58248 -20837217.75447  20346371.5234                   20346369.2504
  -7478416.73448  -5785296.64146  21835262.6024                   21835263.6174
  26506969.81356  20702037.15253  24876117.1414                   24876119.3714
 11  8 12  2 19 30.0000000  0  8G29G02G12G10G04G05G25G26
  12864167.39846  10335450.50044  23481953.5944                   23481952.0354
 -49450147.53547 -38478021.19946  21265886.5634                   21265882.7114
 -30089256.85948 -23395747.90246  21005002.9304                   21005001.0084
 -33559316.68447 -26099796.16044  22513889.6724                   22513887.5554
 -55299998.82846 -43032817.80543  24380285.0554                   24380284.4844
 -26905256.69948 -20915453.91447  20327264.8524                   20327262.7814
  -7603624.31248  -5882860.96146  21811436.4534                   21811436.7664
  26320828.51646  20556992.18843  24840695.8284                   24840697.9304
 11  8 12  2 20  0.0000000  0  8G29G02G12G10G04G05G25G26
  12688111.04347  10198263.81345  23448450.6644                   23448449.7774
 -49509527.91847 -38524291.62946  21254586.9534                   21254582.6914
 -30146889.60248 -23440656.51646  20994035.6254                   20994033.1604
 -33562694.54747 -26102428.25444  22513247.1484                   22513245.3324
 -55312822.49246 -43042810.28943  24377844.6484                   24377844.1844
 -27005080.99248 -20993239.05147  20308268.9224                   20308266.7384
  -7728268.93448  -5979986.63746  21787717.6564                   21787718.0204
  26134562.69546  20411850.20343  24805251.0944                   24805252.3014
 11  8 12  2 20 30.0000000  0  8G29G02G12G10G04G05G25G26
  12512055.10547  10061077.40644  23414948.8834                   23414947.5314
 -49568787.25448 -38570467.71946  21243309.8984                   21243306.4774
 -30203975.13348 -23485138.74646  20983172.7734                   20983170.3594
 -33565735.86347 -26104798.14144  22512668.0234                   22512666.5234
 -55325696.77046 -43052842.21943  24375394.9694                   24375394.5634
 -27104324.47748 -21070571.60547  20289383.7664                   20289381.4804
  -7852346.84448  -6076670.70346  21764106.0944                   21764106.3874
  25948178.17246  20266615.69543  24769782.5234                   24769784.9144
 11  8 12  2 21  0.0000000  0  8G29G02G12G10G04G05G25G26
  12335995.64547   9923888.27744  23381445.4454                   23381444.9454
 -49627931.68447 -38616554.28146  21232055.3834                   21232051.4304
 -30260519.98848 -23529199.66046  20972412.2504                   20972410.2894
 -33568448.80947 -26106912.14544  22512151.8834                   22512150.3054
 -55338627.59446 -43062918.13343  24372934.0314                   24372933.5474
 -27202992.57048 -21147455.80147  20270607.8134                   20270605.3674
  -7975862.50448  -6172916.65246  21740601.5784                   21740601.8984
  25761672.36346  20121286.64844  24734291.0004                   24734293.3284
 11  8 12  2 21 30.0000000  0  8G29G02G12G10G04G05G25G26
  12159935.98047   9786698.98844  23347942.5394                   23347941.8284
 -49686959.37948 -38662549.88746  21220822.7584                   21220818.7384
 -30316523.45748 -23572838.71546  20961755.6094                   20961753.6564
 -33570833.92647 -26108770.68744  22511697.9694                   22511696.6024
 -55351612.91846 -43073036.61343  24370463.2734                   24370462.6294
 -27301083.37548 -21223890.16047  20251941.5704                   20251939.1804
  -8098812.60248  -6268721.91446  21717205.3364                   21717205.1134
  25575050.73846  19975867.39543  24698778.3364                   24698779.4304
 11  8 12  2 22  0.0000000  0  8G29G02G12G10G04G05G25G26
  11983882.16447   9649514.28944  23314440.4384                   23314439.4344
 -49745866.27748 -38708451.35546  21209613.0634                   21209609.2234
 -30371982.50448 -23616053.56246  20951201.8364                   20951199.9184
 -33572889.27047 -26110372.27344  22511306.7424                   22511305.4224
 -55364648.03547 -43083193.84443  24367982.3914                   24367982.5554
 -27398592.40248 -21299871.18747  20233386.3204                   20233383.9184
  -8221191.39848  -6364081.98846  21693917.2974                   21693917.6094
  25388320.69547  19830363.63343  24663244.5944                   24663246.0664
 11  8 12  2 22 30.0000000  0  8G29G02G12G10G04G05G25G26
  11807835.21947   9512334.92645  23280940.0004                   23280938.9734
 -49804653.37947 -38754259.49246  21198426.1804                   21198422.3674
 -30426898.84448 -23658845.52346  20940751.8054                   20940749.1884
 -33574618.40647 -26111719.67644  22510977.9534                   22510976.3594
 -55377733.83247 -43093390.57043  24365492.8984                   24365491.8914
 -27495520.58248 -21375399.60947  20214941.3284                   20214938.9774
  -8342998.45748  -6458996.57846  21670738.1644                   21670738.0314
  25201484.60547  19684777.25043  24627691.2034                   24627692.2194
 11  8 12  2 23  0.0000000  0  8G29G02G12G10G04G05G25G26
  11631797.15647   9375162.48045  23247441.0864                   23247439.7074
 -49863320.68447 -38799974.27046  21187262.4144                   21187258.2504
 -30481273.40648 -23701215.31246  20930404.6954                   20930402.4884
 -33576023.55147 -26112814.61744  22510710.4224                   22510708.9144
 -55390869.94947 -43103626.48043  24362992.5864                   24362992.5274
 -27591867.81648 -21450475.35247  20196607.2664                   20196604.8164
  -8464232.19948  -6553464.42246  21647667.9304                   21647668.5904
  25014546.33646  19539111.22743  24592117.4064                   24592118.7274
 11  8 12  2 23 30.0000000  0  8G29G02G12G10G04G05G25G26
  11455765.52747   9237995.02044  23213943.2734                   23213941.3284
 -49921872.47748 -38845599.04346  21176120.1644                   21176116.3324
 -30535111.53548 -23743167.10546  20920159.7974                   20920157.2974
 -33577111.18747 -26113662.13344  22510503.3914                   22510502.0664
 -55404060.44947 -43113904.78143  24360482.8834                   24360482.2584
 -27687638.11748 -21525101.52747  20178382.6174                   20178380.3594
  -8584895.58648  -6647487.82046  21624706.6094                   21624706.8554
  24827504.94946  19393364.81343  24556524.9144                   24556526.5434
 11  8 12  2 24  0.0000000  0  8G29G02G12G10G04G05G25G26
  11279743.15247   9100834.79344  23180446.5634                   23180445.7464
 -49980307.71947 -38891132.98846  21165000.4144                   21164996.3014
 -30588413.26248 -23784700.93046  20910016.6414                   20910014.1564
 -33577882.36347 -26114263.05944  22510357.3204                   22510355.2274
 -55417303.68447 -43124224.20343  24357962.9224                   24357962.2504
 -27782830.02748 -21599277.00047  20160268.2344                   20160265.8954
  -8704985.86748  -6741064.64546  21601854.1644                   21601854.5164
  24640365.19946  19247541.76643  24520913.1254                   24520914.3954
 11  8 12  2 24 30.0000000  0  8G29G02G12G10G04G05G25G26
  11103734.01247   8963684.84045  23146953.4614                   23146952.2304
 -50038624.52348 -38936574.65646  21153903.1804                   21153898.9414
 -30641177.68048 -23825816.07446  20899975.5394                   20899973.4844
 -33578337.94147 -26114618.09044  22510270.1024                   22510268.5124
 -55430597.95746 -43134583.38343  24355432.3834                   24355432.8404
 -27877442.11348 -21673000.68447  20142263.8204                   20142261.6134
  -8824500.04348  -6834192.55946  21579111.4064                   21579111.8634
  24453132.34846  19101646.20343  24485283.9694                   24485285.2344
 11  8 12  2 25  0.0000000  0  8G29G02G12G10G04G05G25G26
  10927741.48846   8826547.88344  23113463.1644                   23113462.0434
 -50096821.44148 -38981922.92246  21142828.7274                   21142824.2974
 -30693404.69948 -23866512.46546  20890037.4304                   20890035.1294
 -33578478.79747 -26114727.85944  22510243.5474                   22510242.0084
 -55443941.34847 -43144980.82043  24352893.7974                   24352893.6804
 -27971472.58248 -21746271.14847  20124370.3054                   20124368.0824
  -8943435.36748  -6926869.43046  21556478.8134                   21556479.2854
  24265811.04346  18955681.66442  24449638.0314                   24449638.1684
 11  8 12  2 25 30.0000000  0  8G29G02G12G10G04G05G25G26
  12327189.51247   9917026.92244  23379769.5474                   23379768.6884
 -48579480.24648 -37799579.14146  21431569.1174                   21431565.3014
 -29169677.22748 -22679192.38346  21179993.0394                   21179990.8404
 -32002891.04747 -24886997.15244  22810068.3054                   22810066.4384
 -53881916.87946 -41927818.93043  24650137.1954                   24650136.4804
 -26489502.23048 -20591489.03147  20406380.1724                   20406377.9064
  -7486370.36748  -5791494.11346  21833748.8984   21833749.4774   25653827.41446
  20037253.10942                  24713767.3364                   24713769.8244
 11  8 12  2 26  0.0000000  0  8G29G02G12G10G04G05G25G26
  12151228.53947   9779914.48844  23346285.2274                   23346282.9964
 -48637444.57448 -37844746.14846  21420538.5704                   21420534.8404
 -29220839.36348 -22719059.00046  21170257.4144                   21170254.9924
 -32002416.66847 -24886627.50844  22810158.1884                   22810156.3674
 -53895365.08247 -41938298.02043  24647577.9924                   24647577.3094
 -26582377.03548 -20663858.98447  20388706.5084                   20388704.4454
  -7604151.33248  -5883271.50046  21811336.0634   21811336.3284   25466333.28146
  19891153.89142                  24678088.0784                   24678090.8954
 11  8 12  2 26 30.0000000  0  8G29G02G12G10G04G05G25G26
  11975286.60247   9642816.89144  23312804.3834                   23312802.4924
 -48695292.21148 -37889822.23446  21409530.7734                   21409526.8444
 -29271470.80148 -22758512.07046  21160622.3524                   21160620.1024
 -32001637.69947 -24886020.54344  22810306.4534                   22810304.7154
 -53908864.71947 -41948817.23043  24645009.2814                   24645008.5664
 -26674673.49248 -20735778.27747  20371143.1804                   20371141.1724
  -7721352.70748  -5974597.25046  21789033.6724   21789033.8714   25278758.32446
  19744991.81642                  24642394.2274                   24642396.5434
 11  8 12  2 27  0.0000000  0  8G29G02G12G10G04G05G25G26
  11799368.31346   9505737.75444  23279327.4534                   23279326.5044
 -48753020.99248 -37934805.70746  21398545.2194                   21398541.4534
 -29321569.75448 -22797550.24246  21151089.0314                   21151086.7384
 -32000554.22747 -24885176.27744  22810512.5084                   22810510.7894
 -53922413.18046 -41959374.46143  24642431.1024                   24642430.5394
 -26766389.44148 -20807245.22347  20353690.1564                   20353687.9144
  -7837970.90648  -6065468.57846  21766841.7424   21766842.2384   25091108.11346
  19598771.06642                  24606685.5634                   24606687.5554
 11  8 12  2 27 30.0000000  0  8G29G02G12G10G04G05G25G26
  11623476.14547   9368678.93444  23245856.8914                   23245856.1724
 -48810629.85947 -37979695.74646  21387582.7274                   21387578.2384
 -29371137.26648 -22836174.29746  21141656.8754                   21141654.3914
 -31999167.84847 -24884096.00044  22810776.3984                   22810774.7894
 -53936009.30546 -41969968.87943  24639844.4844                   24639843.1454
 -26857524.23848 -20878259.31647  20336347.6024                   20336345.7854
  -7954003.93748  -6155883.94146  21744761.3444   21744761.8914   24903387.37946
  19452495.29342                  24570963.2974                   24570964.2154
 11  8 12  2 28  0.0000000  0  8G29G02G12G10G04G05G25G26
  11447613.65647   9231643.24645  23212391.9924                   23212390.4064
 -48868117.49247 -38024491.29346  21376643.2114                   21376638.9534
 -29420173.09048 -22874384.05546  21132325.4454                   21132323.1914
 -31997479.48447 -24882780.41444  22811097.6254                   22811096.0514
 -53949651.49646 -41980599.19942  24637248.8594                   24637247.6334
 -26948076.51648 -20948819.50847  20319116.3984                   20319114.1414
  -8069449.16848  -6245841.27046  21722793.0704   21722793.4804   24715601.27346
  19306168.65243                  24535228.4694                   24535230.1334
 11  8 12  2 28 30.0000000  0  8G29G02G12G10G04G05G25G26
  11271779.88747   9094629.94144  23178931.5084                   23178929.9384
 -48925486.39148 -38069194.33646  21365726.1024                   21365722.1294
 -29468680.83648 -22912182.30946  21123094.6884                   21123092.3204
 -31995493.87947 -24881233.18744  22811474.9064                   22811474.1724
 -53963341.84046 -41991266.97743  24634642.2504                   24634641.6174
 -27038048.94548 -21018927.87547  20301995.1724                   20301993.2274
  -8184308.12948  -6335341.78546  21700935.8754   21700936.5004   24527750.70347
  19159791.73043                  24499481.6644                   24499483.8014
 11  8 12  2 29  0.0000000  0  8G29G02G12G10G04G05G25G26
  11095973.71547   8957638.15644  23145476.0314                   23145475.3484
 -48982739.53948 -38113807.18446  21354831.2194                   21354827.3794
 -29516665.22348 -22949572.75446  21113963.4144                   21113961.4694
 -31993217.33247 -24879459.28544  22811908.4534                   22811906.9344
 -53977083.44946 -42001974.76242  24632028.2974                   24632027.4884
 -27127444.95748 -21088587.08247  20284983.5394                   20284981.3714
  -8298582.98048  -6424387.12946  21679190.5864   21679190.6174   24339835.83247
  19013364.73443                  24463722.7344                   24463723.2114
 11  8 12  2 29 30.0000000  0  8G29G02G12G10G04G05G25G26
  10920195.69147   8820668.27044  23112027.3524                   23112025.9884
 -49039878.84848 -38158331.32446  21343958.2344                   21343953.7544
 -29564128.89148 -22986557.43746  21104931.6644                   21104929.1054
 -31990653.24647 -24877461.30144  22812396.6254                   22812395.0354
 -53990877.43746 -42012723.30142  24629402.8364                   24629402.0594
 -27216266.33248 -21157798.50847  20268081.2424                   20268079.0664
  -8412274.07848  -6512977.59046  21657555.3444   21657556.1604   24151858.72747
  18866889.19943                  24427951.8204                   24427952.3244
 11  8 12  2 30  0.0000000  0  8G29G02G12G10G04G05G25G26
  10744447.05947   8683721.26645  23078583.7664                   23078582.2934
 -49096905.18048 -38202767.42246  21333106.4534                   21333102.3204
 -29611074.30148 -23023138.28946  21095998.1094                   21095996.0204
 -31987804.78147 -24875241.72344  22812938.6334                   22812937.4184
 -54004724.39846 -42023513.13343  24626767.7034                   24626767.1134
 -27304514.14848 -21226563.01647  20251288.2504                   20251286.2154
  -8525381.23048  -6601113.03946  21636031.9454   21636032.0084   23963822.11347
  18720367.33643                  24392169.3834                   24392170.7704
 11  8 12  2 30 30.0000000  0  8G29G02G12G10G04G05G25G26
  10568727.80547   8546797.19545  23045145.6094                   23045144.1334
 -49153820.43448 -38247116.96946  21322275.8914                   21322271.4884
 -29657504.66048 -23059317.80546  21087163.1254                   21087160.8444
 -31984676.40647 -24872804.04344  22813533.8524                   22813532.2344
 -54018625.86746 -42034345.51643  24624121.2974                   24624121.7774
 -27392190.91448 -21294882.54347  20234603.9224                   20234601.5004
  -8637905.31648  -6688794.14546  21614619.1024   21614619.8404   23775727.60547
  18573800.33243                  24356376.7894                   24356377.6024
 11  8 12  2 31  0.0000000  0  8G29G02G12G10G04G05G25G26
  10393040.47747   8409898.00445  23011712.3134                   23011711.9614
 -49210623.94548 -38291379.44546  21311466.3444                   21311462.1214
 -29703420.37948 -23095096.29346  21078425.3284                   21078423.3554
 -31981269.82047 -24870149.57044  22814182.2274                   22814180.9224
 -54032581.02046 -42045219.60543  24621466.5704                   24621466.6054
 -27479295.88748 -21362756.52047  20218028.7114                   20218026.4184
  -8749844.83648  -6776019.75046  21593317.6174   21593318.4884   23587579.55547
  18427191.63744                  24320572.4144                   24320574.0234
 11  8 12  2 31 30.0000000  0  7G29G02G12G10G05G25G26
  10217388.93847   8273026.69544  22978287.1564                   22978285.8244
 -49267313.56648 -38335553.16846  21300678.8594                   21300674.7894
 -29748821.45348 -23130473.75846  21069785.4224                   21069783.4574
 -31977585.71547 -24867278.86744  22814883.5234                   22814881.4574
 -27565827.65248 -21430183.85247  20201562.0634                   20201559.6954
  -8861196.78948  -6862787.48846  21572128.1564   21572128.7774   23399383.39147
  18280545.43043                  24284760.8524                   24284761.0164
 11  8 12  2 32  0.0000000  0  7G29G02G12G10G05G25G26
  10041771.64547   8136182.05145  22944868.6884                   22944867.3244
 -49323892.90648 -38379640.95746  21289911.9384                   21289908.1214
 -29793712.49248 -23165453.79746  21061243.4064                   21061241.1564
 -31973629.84047 -24864196.38344  22815636.2344                   22815634.3634
 -27651790.17248 -21497167.60547  20185203.9384                   20185201.1844
  -8971963.92248  -6949099.50446  21551050.2114   21551050.7664   23211139.16047
  18133861.73043                  24248938.6334                   24248939.4304
 11  8 12  2 32 30.0000000  0  7G29G02G12G10G05G25G26
   9866194.52747   7999368.73045  22911457.7894                   22911456.4224
 -49380358.30148 -38423639.95746  21279167.1564                   21279163.0664
 -29838091.63748 -23200034.95346  21052797.9064                   21052795.9804
 -31969400.81247 -24860901.05544  22816440.6174                   22816439.2854
 -27737179.82848 -21563704.97747  20168954.7894                   20168952.2234
  -9082141.39848  -7034952.03146  21530083.6644   21530084.1174   23022854.33246
  17987146.43844                  24213108.5314                   24213109.6454
 11  8 12  2 33  0.0000000  0  7G29G02G12G10G05G25G26
   9690656.58247   7862585.95745  22878053.7424                   22878052.5474
 -49436712.34048 -38467552.18746  21268443.6254                   21268439.3054
 -29881962.96548 -23234220.41046  21044449.6024                   21044447.3134
 -31964903.58247 -24857396.73444  22817296.4304                   22817295.0514
 -27821999.94948 -21629798.55147  20152813.9384                   20152811.8554
  -9191731.17648  -7120346.60546  21509229.6644   21509229.6294   22834529.78946
  17840400.22743                  24177271.9454                   24177272.8554
 11  8 12  2 33 30.0000000  0  7G29G02G12G10G05G25G26
   9515158.76247   7725834.47744  22844657.0944                   22844656.1334
 -49492956.03548 -38511378.43046  21257740.3754                   21257736.3674
 -29925329.04748 -23268012.16046  21036197.7504                   21036195.4264
 -31960142.03147 -24853686.44544  22818202.6884                   22818201.0004
 -27906252.04348 -21695449.51247  20136781.2664                   20136778.8524
  -9300733.59448  -7205283.49646  21488487.4144   21488487.1604   22646168.04346
  17693625.02043                  24141427.5004                   24141428.2504
 11  8 12  2 34  0.0000000  0  7G29G02G12G10G05G25G26
  10915124.48047   8816716.88745  23111062.1884                   23111060.0664
 -47973672.34048 -37327520.99646  21546850.3754                   21546846.3204
 -28392774.61348 -22073813.90646  21327832.6954                   21327830.6414
 -30379703.41047 -23622175.84444  23118950.2894                   23118948.9804
 -26414518.54748 -20533059.75447  20420648.8284                   20420646.4774
  -7833728.89548  -6062162.88346  21767648.8284   21767649.0634   24033194.22746
  18774424.84843                  24405369.8204                   24405370.7814
 11  8 12  2 34 30.0000000  0  7G29G02G12G10G05G25G26
  10739709.69947   8680030.08245  23077682.0864                   23077680.0474
 -48029699.14148 -37371178.22746  21536188.5944                   21536184.7154
 -28435138.69548 -22106824.89546  21319771.2344                   21319768.9884
 -30374424.02747 -23618062.05944  23119955.1254                   23119953.3014
 -26497640.05548 -20597829.73847  20404831.5234                   20404828.9224
  -7941557.93748  -6146185.46946  21747129.3834   21747129.7664   23844765.05546
  18627597.08643                  24369512.2504                   24369513.4264
 11  8 12  2 35  0.0000000  0  7G29G02G12G10G05G25G26
  10564337.89547   8543376.79345  23044309.0554                   23044308.2424
 -48085618.88748 -37414752.03946  21525547.3984                   21525543.4694
 -28477005.98048 -22139448.75446  21311804.2114                   21311801.9694
 -30368890.77047 -23613750.44144  23121007.7584                   23121006.4304
 -26580198.39548 -20662160.90647  20389121.2734                   20389118.4104
  -8048800.70748  -6229751.21146  21726721.8754   21726722.2194   23656306.17646
  18480746.15243                  24333649.7504                   24333650.5204
 11  8 12  2 35 30.0000000  0  7G29G02G12G10G05G25G26
  10389003.59447   8406752.74245  23010943.7344                   23010942.8204
 -48141438.89548 -37458248.12546  21514925.3054                   21514921.7734
 -28518384.89548 -22171692.07046  21303930.2504                   21303928.0234
 -30363113.29346 -23609248.51644  23122107.3444                   23122105.4224
 -26662201.37948 -20726059.32047  20373516.2974                   20373513.7344
  -8155463.69148  -6312865.19946  21706424.7584   21706424.7034   23467813.95346
  18333869.19143                  24297781.4614                   24297781.6484
 11  8 12  2 36  0.0000000  0  7G29G02G12G10G05G25G26
  10213714.58647   8270163.93845  22977588.5394                   22977586.2934
 -48197153.18448 -37501661.86346  21504323.2664                   21504319.1454
 -28559271.29748 -22203551.60546  21296150.0004                   21296147.3634
 -30357088.27046 -23604553.68744  23123253.4384                   23123251.7774
 -26743643.61348 -20789520.78547  20358018.1564                   20358015.9024
  -8261540.50448  -6395522.41846  21686238.6884   21686238.9774   23279297.71146
  18186973.57843                  24261907.9774                   24261907.5234
 11  8 12  2 36 30.0000000  0  7G29G02G12G10G05G25G26
  10038472.43447   8133611.65245  22944240.9064                   22944239.0434
 -48252762.94548 -37544994.13346  21493741.1954                   21493736.8524
 -28599667.89548 -22235029.47746  21288462.4924                   21288460.5124
 -30350819.40246 -23599668.87144  23124446.1724                   23124445.2114
 -26824526.98448 -20852546.77347  20342626.5944                   20342624.2154
  -8367031.39848  -6477723.08246  21666164.6254   21666164.9534   23090760.23847
  18040061.34443                  24226030.6094                   24226029.6644
 11  8 12  2 37  0.0000000  0  7G29G02G12G10G05G25G26
   9863281.94547   7997099.66045  22910902.4144                   22910901.7854
 -48308264.83248 -37588242.34846  21483179.5864                   21483175.6844
 -28639573.64148 -22266124.85946  21280868.5314                   21280866.3524
 -30344305.79746 -23594593.34044  23125685.5944                   23125684.1604
 -26904849.07448 -20915135.39847  20327342.1414                   20327339.5204
  -8471932.63748  -6559464.28146  21646202.5474   21646203.1094   22902208.39546
  17893137.91043                  24190149.3134                   24190149.3634
 11  8 12  2 37 30.0000000  0  7G29G02G12G10G05G25G26
   9688141.07847   7860626.35245  22877574.8134                   22877572.8954
 -48363663.09048 -37631409.81646  21472637.3984                   21472633.4224
 -28678993.90248 -22296841.95346  21273367.3834                   21273365.0904
 -30337553.95746 -23589332.19944  23126970.7814                   23126969.4534
 -26984614.53148 -20977290.28547  20312163.0394                   20312160.8164
  -8576247.68748  -6640748.71146  21626351.8984   21626352.6374   22713641.60247
  17746202.77743                  24154266.4534                   24154266.5594
 11  8 12  2 38  0.0000000  0  7G29G02G12G10G05G25G26
   9513054.54748   7724195.31645  22844257.2114                   22844255.1174
 -48418954.62948 -37674494.12546  21462116.1884                   21462111.8554
 -28717927.89548 -22327180.12946  21265958.3914                   21265956.1684
 -30330563.53547 -23583885.13744  23128301.6804                   23128299.5044
 -27063821.32448 -21039009.84847  20297090.6414                   20297088.0124
  -8679973.48048  -6721573.99646  21606613.8204   21606613.7934   22525066.14847
  17599260.96943                  24118382.3134                   24118381.5434
 11  8 12  2 38 30.0000000  0  7G29G02G12G10G05G25G26
   9338021.54747   7587805.99645  22810949.4224                   22810947.6174
 -48474142.70748 -37717497.81246  21451613.7344                   21451609.8204
 -28756380.78148 -22357143.43046  21258641.0944                   21258639.0514
 -30323340.19547 -23578256.55544  23129675.8364                   23129674.2114
 -27142473.36348 -21100297.14147  20282123.4224                   20282120.9694
  -8783112.72748  -6801942.25046  21586986.6174   21586987.2424   22336482.42247
  17452312.67643                  24082495.3914                   24082495.2734
 11  8 12  2 39  0.0000000  0  7G29G02G12G10G05G25G26
   9163041.65647   7451458.08645  22777651.0704                   22777649.9304
 -48529229.79348 -37760422.82046  21441131.2274                   21441126.9264
 -28794356.13348 -22386734.61746  21251414.6804                   21251412.5474
 -30315888.82847 -23572450.28944  23131093.5234                   23131092.0904
 -27220573.96148 -21161154.74647  20267261.7034                   20267259.1884
  -8885667.07848  -6881854.73846  21567471.4144   21567471.6844   22147892.07046
  17305359.23443                  24046607.7504                   24046607.5514
 11  8 12  2 39 30.0000000  0  7G29G02G12G10G05G25G26
   8988118.73047   7315154.61345  22744364.9454                   22744363.7894
 -48584213.67648 -37803267.40246  21430668.2424                   21430664.0904
 -28831854.27048 -22415953.95746  21244279.0084                   21244276.5664
 -30308209.66447 -23566466.50444  23132554.5704                   23132553.0474
 -27298121.57448 -21221581.45347  20252504.5864                   20252502.5084
  -8987634.04748  -6961309.53546  21548067.5234   21548067.9844   21959300.76246
  17158405.05543                  24010720.0704                   24010720.0164
 11  8 12  2 40  0.0000000  0  7G29G02G12G10G05G25G26
   8813255.28948   7178897.45345  22711089.7814                   22711088.3444
 -48639093.65648 -37846031.01646  21420224.6954                   21420220.6764
 -28868876.50448 -22444802.45746  21237233.6254                   21237231.5234
 -30300304.65647 -23560306.77044  23134059.7194                   23134057.8364
 -27375116.58248 -21281577.54347  20237852.7814                   20237850.1764
  -9089012.85248  -7040306.00446  21528776.2504   21528776.0394   21770712.55946
  17011453.33643                  23974832.4454                   23974832.8524
 11  8 12  2 40 30.0000000  0  7G29G02G12G10G05G25G26
   8638452.12147   7042687.24245  22677825.5634                   22677823.2464
 -48693871.67648 -37888715.19146  21409800.9454                   21409796.8524
 -28905426.27048 -22473282.80146  21230278.5004                   21230276.3524
 -30292178.01247 -23553974.33644  23135605.7974                   23135604.2774
 -27451561.46948 -21341144.98047  20223306.0784                   20223303.7304
  -9189804.78548  -7118845.19146  21509596.1174   21509596.3014   21582129.45746
  16864505.56643                  23938946.4694                   23938947.1414
 11  8 12  2 41  0.0000000  0  7G29G02G12G10G05G25G26
   8463709.50447   6906524.20745  22644571.9694                   22644571.1564
 -48748548.85948 -37931320.78946  21399396.1564                   21399392.2774
 -28941506.76248 -22501397.47746  21223412.6024                   21223410.6214
 -30283833.66447 -23547472.24644  23137193.6024                   23137192.1374
 -27527458.64548 -21400285.62547  20208863.2734                   20208860.8324
  -9290010.82048  -7196927.84446  21490527.4694   21490527.5514   21393553.75446
  16717563.57043                  23903062.3914                   23903062.0004
 11  8 12  2 41 30.0000000  0  7G29G02G12G10G05G25G26
   8289031.64147   6770411.68845  22611332.4224                   22611331.4454
 -48803123.45748 -37973846.45346  21389011.3914                   21389007.1334
 -28977118.07048 -22529146.55946  21216636.1094                   21216633.9654
 -30275271.89546 -23540800.75044  23138822.6024                   23138821.6094
 -27602806.67648 -21458998.35947  20194524.8754                   20194522.6804
  -9389628.72748  -7274552.20746  21471570.9384   21471571.1094   21204991.10246
  16570631.71543                  23867179.5234                   23867179.3594
 11  8 12  2 42  0.0000000  0  7G29G02G12G10G05G25G26
   8114419.86347   6634350.65645  22578105.3284                   22578103.6994
 -48857595.89148 -38016292.51646  21378645.4534                   21378641.0234
 -29012262.58648 -22556531.90646  21209948.4774                   21209946.6214
 -30266495.99647 -23533962.41044  23140493.6564                   23140491.9064
 -27677607.36748 -21517284.60247  20180290.8594                   20180288.4264
  -9488658.81248  -7351718.52046  21452725.9614   21452726.2344   21016444.80147
  16423712.66044                  23831300.6174                   23831299.7034
 11  8 12  2 42 30.0000000  0  7G29G02G12G10G05G25G26
   9515301.36347   7725946.71145  22844683.8754                   22844681.8094
 -47336544.99248 -36831058.05546  21668091.5864                   21668087.5664
 -27471522.13747 -21355954.94546  21503142.1094                   21503139.4574
 -28682089.51647 -22299359.96144  23441995.5004                   23441993.9454
 -26176440.06248 -20347543.83647  20465953.6564                   20465951.1174
  -8011678.39848  -6200824.71146  21733785.9224   21733786.6334   22403343.52347
  17504413.03543                  24095218.4844                   24095218.5084
 11  8 12  2 43  0.0000000  0  7G29G02G12G10G05G25G26
   9340826.28947   7589992.19545  22811481.7584                   22811480.6724
 -47390814.88348 -36873346.28546  21657764.5864                   21657760.3054
 -27505741.65647 -21382619.52346  21496629.3054                   21496627.5164
 -28672894.55547 -22292195.06644  23443745.4924                   23443743.7504
 -26250151.20748 -20404981.07447  20451926.7344                   20451924.3284
  -8109534.34448  -6277076.10246  21715164.8284   21715165.0204   22214838.13346
  17357525.83243                  24059346.0634                   24059346.8484
 11  8 12  2 43 30.0000000  0  7G29G02G12G10G05G25G26
   9166422.50047   7454093.22745  22778294.3284                   22778292.9264
 -47444983.23848 -36915555.39546  21647456.4384                   21647452.3594
 -27539501.18047 -21408925.66446  21490205.5004                   21490203.7584
 -28663493.66847 -22284869.69944  23445534.0004                   23445532.7344
 -26323318.67648 -20461994.67247  20438003.6644                   20438000.8014
  -8206802.67248  -6352869.61346  21696655.3594   21696655.5554   22026359.08246
  17210659.19143                  24023479.8134                   24023480.3594
 11  8 12  2 44  0.0000000  0  7G29G02G12G10G05G25G26
   8992090.91047   7318250.50845  22745120.3914                   22745118.3954
 -47499051.80148 -36957686.75446  21637167.5004                   21637163.3094
 -27572804.54348 -21434876.35546  21483867.9924                   21483865.9344
 -28653890.90647 -22277387.05144  23447361.4144                   23447359.7274
 -26395945.29748 -20518586.82447  20424182.8364                   20424180.3874
  -8303484.95748  -6428206.46146  21678257.1564   21678257.2704   21837908.31346
  17063814.59043                  23987618.9614                   23987618.6804
 11  8 12  2 44 30.0000000  0  7G29G02G12G10G05G25G26
   8817831.55947   7182464.06345  22711959.3984                   22711958.1374
 -47553022.21948 -36999741.62946  21626897.5944                   21626893.1294
 -27605655.42248 -21460474.46946  21477616.8284                   21477614.8014
 -28644090.67246 -22269750.53943  23449227.1644                   23449224.9694
 -26468033.80148 -20574759.66847  20410464.9534                   20410462.4614
  -8399582.84448  -6503087.93046  21659969.8524   21659970.8244   21649487.95546
  16916993.65244                  23951763.7034                   23951763.8524
 11  8 12  2 45  0.0000000  0  7G29G02G12G10G05G25G26
   8643649.15647   7046737.60945  22678813.0554                   22678811.6174
 -47606891.68748 -37041717.83646  21616646.2584                   21616642.1884
 -27638053.51647 -21485719.75446  21471451.8054                   21471449.6054
 -28634092.53146 -22261959.79343  23451128.5084                   23451127.9534
 -26539582.65648 -20630512.00847  20396849.5784                   20396847.0664
  -8495093.66048  -6577511.94946  21641795.2034   21641795.5004   21461103.93046
  16770201.03943                  23915915.5394                   23915915.5274
 11  8 12  2 45 30.0000000  0  7G29G02G12G10G05G25G26
   8469547.86747   6911074.31645  22645683.3284                   22645681.1954
 -47660658.47348 -37083614.03946  21606414.8914                   21606411.2894
 -27669998.82447 -21510612.21546  21465372.6954                   21465370.6134
 -28623897.14546 -22254015.37543  23453068.9454                   23453067.5434
 -26610590.89848 -20685843.07447  20383337.4844                   20383334.7194
  -8590015.16048  -6651476.75846  21623732.0784   21623733.0394   21272762.34046
  16623441.49244                  23880074.9064                   23880075.2624
 11  8 12  2 46  0.0000000  0  7G29G02G12G10G05G25G26
   8295524.21148   6775471.48045  22612567.9614                   22612565.5664
 -47714327.62948 -37125434.16446  21596202.1484                   21596197.9614
 -27701499.27747 -21535158.03946  21459378.2814                   21459375.9384
 -28613512.59047 -22245923.50443  23455045.4454                   23455043.5394
 -26681065.55148 -20740758.37547  20369926.4454                   20369923.9924
  -8684353.15648  -6724986.87946  21605780.3134   21605780.3754   21084461.01246
  16476713.32443                  23844242.5164                   23844242.9144
 11  8 12  2 46 30.0000000  0  7G29G02G12G10G05G25G26
   8121581.34447   6639931.66045  22579466.3914                   22579465.8204
 -47767898.26248 -37167177.51246  21586007.6884                   21586003.5084
 -27732555.63748 -21559357.80946  21453468.7734                   21453466.4734
 -28602939.97347 -22237685.10243  23457057.7894                   23457054.9224
 -26751006.39848 -20795257.71147  20356617.1254                   20356614.4224
  -8778106.50448  -6798041.42246  21587939.7034   21587939.9694   20896204.75846
  16330020.25444                  23808417.7504                   23808418.4924
 11  8 12  2 47  0.0000000  0  7G29G02G12G10G05G25G26
   7947721.52047   6504456.59045  22546382.7974                   22546381.2624
 -47821370.21148 -37208843.96546  21575832.5554                   21575828.4104
 -27763170.00048 -21583213.15646  21447643.0634                   21447640.4574
 -28592181.81647 -22229302.10943  23459105.1484                   23459102.3284
 -26820414.59448 -20849341.99647  20343409.1954                   20343406.3484
  -8871274.95748  -6870640.20346  21570210.2664   21570210.0704   20707997.73846
  16183365.53543                  23772603.0784                   23772603.9344
 11  8 12  2 47 30.0000000  0  7G29G02G12G10G05G25G26
   7773946.24248   6369047.29745  22513314.7114                   22513312.2424
 -47874744.03548 -37250433.94546  21565676.0864                   21565671.8594
 -27793344.77347 -21606725.96946  21441901.1644                   21441898.7734
 -28581241.15247 -22220776.89844  23461186.7814                   23461184.7464
 -26889292.02748 -20903012.69947  20330302.0084                   20330299.5314
  -8963859.46948  -6942783.96546  21552591.8914   21552592.1214   20519842.71147
  16036751.31343                  23736798.4534                   23736798.2544
 11  8 12  2 48  0.0000000  0  7G29G02G12G10G05G25G26
   7600255.78147   6233704.07445  22480261.8054                   22480259.9534
 -47928021.50048 -37291948.83646  21555537.5234                   21555533.3794
 -27823084.91848 -21629900.12546  21436241.4304                   21436239.2734
 -28570122.38347 -22212112.89544  23463302.5704                   23463300.5164
 -26957641.76248 -20956272.20747  20317295.6254                   20317293.0234
  -9055862.01248  -7014474.25446  21535084.7114   21535084.2624   20331741.60547
  15890179.07043                  23701004.1094                   23701003.9024
 11  8 12  2 48 30.0000000  0  7G29G02G12G10G05G25G26
   7426654.85547   6098430.71545  22447226.6254                   22447225.8634
 -47981199.66048 -37333386.34446  21545418.1024                   21545413.9804
 -27852389.18048 -21652734.61746  21430665.0704                   21430662.7304
 -28558825.09447 -22203309.78544  23465452.5004                   23465450.3134
 -27025462.03148 -21009119.14847  20304389.8674                   20304387.1214
  -9147279.69548  -7085708.81646  21517688.4304   21517688.3714   20143701.10547
  15743654.09844                  23665220.8754                   23665221.1334
 11  8 12  2 49  0.0000000  0  7G29G02G12G10G05G25G26
   7253143.54747   5963227.16045  22414208.9064                   22414207.2584
 -48034280.71948 -37374748.19546  21535317.0164                   21535312.4534
 -27881262.11347 -21675233.01646  21425170.7734                   21425168.7774
 -28547354.19547 -22194371.42244  23467634.9614                   23467633.5904
 -27092756.35248 -21061556.25847  20291583.9534                   20291581.3524
  -9238114.95748  -7156489.54346  21500403.1954   21500403.1094   19955722.38746
  15597177.24643                  23629450.0084                   23629450.0594
 11  8 12  2 49 30.0000000  0  7G29G02G12G10G05G25G26
   7079723.07847   5828094.35945  22381208.0944                   22381205.9614
 -48087265.69148 -37416035.16446  21525234.0554                   21525229.6414
 -27909706.95748 -21697397.82846  21419757.9064                   21419755.7034
 -28535712.73847 -22185300.17244  23469850.6724                   23469849.0274
 -27159527.23448 -21113585.50047  20278878.3834                   20278875.2814
  -9328369.12948  -7226817.47746  21483227.9224   21483228.1024   19767808.43847
  15450750.87144                  23593691.6804                   23593691.0704
 11  8 12  2 50  0.0000000  0  8G29G02G12G10G15G05G25G26
   6906395.26247   5693033.78945  22348224.2114                   22348222.3594
 -48140154.41448 -37457247.13346  21515170.1484                   21515165.8874
 -27937726.26248 -21719231.05546  21414425.9454                   21414423.8674
 -28523903.64547 -22176098.30144  23472097.6724                   23472096.4064
  31232693.88756  24376803.68453  24489838.7114                   24489838.0664
 -27225776.03148 -21165207.92247  20266271.1954                   20266268.5474
  -9418042.54748  -7296692.87546  21466163.8674   21466164.1134   19579962.84047
  15304377.75443                  23557945.7814                   23557945.0274
 11  8 12  2 50 30.0000000  0  8G29G02G12G10G15G05G25G26
   6733161.80547   5558046.73445  22315259.5634                   22315257.6414
 -48192947.47348 -37498384.55946  21505123.6724                   21505119.2384
 -27965322.69147 -21740734.76246  21409174.5864                   21409172.6954
 -28511929.53546 -22166767.87543  23474375.4304                   23474374.7464
  31046312.44146  24231571.57843  24454370.7974                   24454371.5004
 -27291504.59448 -21216424.96147  20253763.4224                   20253760.7894
  -9507135.97748  -7366116.32846  21449209.6954   21449209.9224   19392188.84047
  15158060.44544                  23522213.3524                   23522212.7974
 11  8 12  2 51  0.0000000  0  8G29G02G12G10G15G05G25G26
   8135442.82048   6650733.32845  22582105.3054                   22582103.6414
 -46670230.77748 -36311852.04346  21794887.0704                   21794883.1604
 -26417085.53548 -20534316.19946  21703794.1484                   21703792.0234
 -26924381.03946 -20929717.12143  23776476.3914                   23776475.4064
  32435228.94946  25313844.34843  24718673.3984                   24718672.9774
 -25781299.87548 -20039642.04747  20541145.8834                   20541143.3204
  -8020234.43048  -6207491.74246  21732157.7734   21732158.2624   20779908.62947
  16239400.64544                  23786286.9694                   23786286.7584
 11  8 12  2 51 30.0000000  0  8G29G02G12G10G15G05G25G26
   7962388.25047   6515885.69545  22549173.0864                   22549171.2854
 -46722848.47348 -36352852.81246  21784874.0234                   21784870.0434
 -26443859.38747 -20555178.93446  21698699.6334                   21698697.1414
 -26912100.55146 -20920147.94944  23778813.0394                   23778811.4534
  32248593.09046  25168413.96144  24683158.0784                   24683157.0474
 -25846007.96948 -20090063.93047  20528832.5474                   20528829.6254
  -8108184.84848  -6276024.51646  21715421.4144   21715421.9574   20592272.77347
  16093190.98843                  23750581.1334                   23750581.1604
 11  8 12  2 52  0.0000000  0  8G29G02G12G10G15G05G25G26
   7789429.89147   6381113.04345  22516259.9454                   22516258.4304
 -46775374.82448 -36393782.41446  21774878.7274                   21774874.7894
 -26470221.96548 -20575721.18746  21693682.8754                   21693680.9614
 -26899667.33247 -20910459.74643  23781179.6024                   23781177.6414
  32061837.55146  25022890.25844  24647619.0234                   24647619.1024
 -25910204.78548 -20140087.41047  20516615.9774                   20516613.4264
  -8195560.93448  -6344109.76646  21698794.4924   21698794.4924   20404714.91847
  15947042.09044                  23714890.3364                   23714889.1914
 11  8 12  2 52 30.0000000  0  8G29G02G12G10G15G05G25G26
   7616569.65247   6246416.80145  22483366.6174                   22483363.8914
 -46827810.05948 -36434641.02746  21764900.2664                   21764896.0314
 -26496176.16448 -20595945.23046  21688743.8054                   21688741.3324
 -26887084.07847 -20900654.60544  23783574.3364                   23783572.1134
  31874965.52046  24877275.96544  24612057.7814                   24612058.1214
 -25973891.78948 -20189713.63347  20504496.6254                   20504494.6254
  -8282363.22348  -6411747.90246  21682276.3134   21682276.4804   20217238.58247
  15800956.75843                  23679214.6954                   23679213.7934
 11  8 12  2 53  0.0000000  0  8G29G02G12G10G15G05G25G26
   7443814.72347   6111802.62945  22450492.0474                   22450490.9384
 -46880149.00048 -36475424.59046  21754940.7344                   21754936.8054
 -26521719.04348 -20615848.74646  21683883.0314                   21683881.0434
 -26874348.00847 -20890730.40244  23785996.9534                   23785995.8244
  31687984.03947  24731576.22744  24576477.0234                   24576476.4884
 -26037065.44548 -20238939.84847  20492475.4064                   20492472.6174
  -8368587.00848  -6478935.26646  21665868.6954   21665869.1054   20029852.81646
  15654941.99644                  23643555.9844                   23643555.5164
 11  8 12  2 53 30.0000000  0  8G29G02G12G10G15G05G25G26
   7271163.25447   5977269.16445  22417636.8674                   22417636.2034
 -46932395.50847 -36516136.13746  21744998.5784                   21744994.3634
 -26546856.74648 -20635436.55946  21679099.5634                   21679097.5784
 -26861465.70347 -20880692.18043  23788448.7894                   23788446.8554
  31500891.92646  24585790.19543  24540873.4144                   24540873.4534
 -26099731.03948 -20287770.17247  20480550.3134                   20480548.0474
  -8454236.78548  -6545675.35246  21649569.7814   21649569.8364   19842557.27047
  15508997.48444                  23607914.5164                   23607914.2664
 11  8 12  2 54  0.0000000  0  8G29G02G12G10G15G05G25G26
   7098617.81647   5842818.25045  22384803.3054                   22384800.3094
 -46984549.02348 -36556775.23046  21735074.1024                   21735070.0554
 -26571591.73448 -20654710.56246  21674392.8204                   21674390.8554
 -26848438.99647 -20870541.51243  23790928.0554                   23790926.3244
  31313692.76246  24439920.87543  24505251.2504                   24505251.0084
 -26161889.65248 -20336205.45347  20468722.1414                   20468719.6764
  -8539312.64548  -6611968.23846  21633380.1724   21633380.8324   19655356.10947
  15363126.56343                  23572291.5634                   23572290.8014
 11  8 12  2 54 30.0000000  0  8G29G02G12G10G15G05G25G26
   6926183.96947   5708454.23045  22351990.5784                   22351987.7584
 -47036605.80547 -36597338.94146  21725168.1564                   21725163.7664
 -26595922.63348 -20673669.69946  21669762.7194                   21669760.5084
 -26835266.62547 -20860277.25843  23793434.4844                   23793432.7544
  31126392.87146  24293973.07044  24469609.9774                   24469608.8014
 -26223539.37148 -20384244.19546  20456990.4454                   20456987.8134
  -8623811.59848  -6677811.56646  21617301.2114   21617301.0474   19468256.40647
  15217334.66044                  23536687.1254                   23536687.1724
 11  8 12  2 55  0.0000000  0  8G29G02G12G10G15G05G25G26
   6753861.73847   5574177.26645  22319197.7894                   22319196.5554
 -47088568.44147 -36637829.29745  21715279.7274                   21715275.7544
 -26619854.33248 -20692317.76246  21665208.7734                   21665206.0274
 -26821953.79747 -20849903.56243  23795967.7424                   23795965.4454
  30938992.47746  24147946.87943  24433946.9844                   24433947.3054
 -26284684.34048 -20431889.62147  20445355.0084                   20445352.3794
  -8707736.51648  -6743207.59446  21601330.5864   21601330.4344   19281259.77347
  15071623.09044                  23501103.0704                   23501102.4574
 11  8 12  2 55 30.0000000  0  8G29G02G12G10G15G05G25G26
   6581654.23447   5439989.72346  22286428.2974                   22286426.2934
 -47140435.86748 -36678245.47746  21705409.8754                   21705405.4224
 -26643388.35548 -20710655.96146  21660730.3754                   21660728.2424
 -26808501.85947 -20839421.52743  23798527.7504                   23798526.0514
  30751495.39146  24001845.42643  24398267.8284                   24398267.3244
 -26345324.80548 -20479141.92247  20433815.6564                   20433812.8014
  -8791086.98848  -6808155.99646  21585469.6334   21585469.7114   19094371.01647
  14925995.57444                  23465539.7814                   23465539.2234
 11  8 12  2 56  0.0000000  0  8G29G02G12G10G15G05G25G26
   6409563.45348   5305893.07045  22253680.3594                   22253677.3984
 -47192207.86348 -36718587.28546  21695557.9224                   21695553.5634
 -26666526.84048 -20728685.95346  21656327.1884                   21656324.8484
 -26794913.31646 -20828833.09043  23801112.9144                   23801111.6684
  30563904.35946  23855670.70743  24362570.6094                   24362569.8674
 -26405462.40648 -20526002.38347  20422371.7584                   20422369.2384
  -8873863.71148  -6872657.32046  21569718.0234   21569717.7504   18907593.57447
  14780454.80944                  23429997.3364                   23429996.8754
 11  8 12  2 56 30.0000000  0  8G29G02G12G10G15G05G25G26
   6237589.76247   5171887.63345  22220954.2424                   22220952.0784
 -47243885.89848 -36758855.87946  21685724.1564                   21685719.3714
 -26689274.62948 -20746411.50446  21651998.3754                   21651995.9964
 -26781192.31646 -20818141.41843  23803724.0554                   23803722.6954
  30376220.37946  23709423.52743  24326855.6644                   24326854.8794
 -26465100.43748 -20572473.57046  20411023.0234                   20411020.0824
  -8956068.94548  -6936713.33646  21554074.3754   21554074.4734   18720929.63347
  14635002.46944                  23394475.5234                   23394475.9454
 11  8 12  2 57  0.0000000  0  8G29G02G12G10G15G05G25G26
   6065734.19548   5037974.27345  22188251.3204                   22188249.6134
 -47295471.45348 -36799052.41846  21675907.8754                   21675903.3714
 -26711635.53548 -20763835.59846  21647743.4304                   21647741.0514
 -26767342.65246 -20807349.50043  23806359.6484                   23806358.2854
  30188444.98046  23563105.12943  24291123.0474                   24291123.1094
 -26524242.00048 -20618557.90246  20399768.3754                   20399766.0514
  -9037704.80548  -7000325.69546  21538539.4534   21538539.9924   18534381.60947
  14489640.47344                  23358976.8984                   23358976.1684
 11  8 12  2 57 30.0000000  0  8G29G02G12G10G15G05G25G26
   5893999.62948   4904155.20745  22155571.6954                   22155569.7544
 -47346963.58248 -36839176.15245  21666109.2424                   21666104.7424
 -26733610.98448 -20780959.33246  21643561.6884                   21643559.0514
 -26753365.68046 -20796458.36743  23809019.9844                   23809017.7384
  30000581.75046  23416718.33643  24255374.0234                   24255373.7274
 -26582888.06648 -20664256.13747  20388608.6884                   20388606.0864
  -9118771.23848  -7063494.34046  21523113.0314   21523113.5354   18347954.10547
  14344372.37144                  23323501.0474                   23323500.1884
 11  8 12  2 58  0.0000000  0  8G29G02G12G10G15G05G25G26
   5722386.05947   4770430.38345  22122914.3674                   22122912.0904
 -47398364.53148 -36879228.85546  21656327.4694                   21656323.2734
 -26755205.99648 -20797786.62546  21639452.1254                   21639449.9654
 -26739266.21947 -20785471.79744  23811702.9064                   23811701.1764
  29812631.35946  23270263.55943  24219607.4224                   24219607.6024
 -26641042.84448 -20709571.54746  20377542.4924                   20377539.5704
  -9199271.26248  -7126221.63746  21507794.4304   21507794.8324   18161648.42647
  14199199.23044                  23288048.3444                   23288047.2774
 11  8 12  2 58 30.0000000  0  8G29G02G12G10G15G05G25G26
   5550896.70747   4636802.32445  22090281.1804                   22090278.3634
 -47449673.01247 -36919209.47745  21646563.9304                   21646559.8554
 -26776422.03548 -20814318.61346  21635414.8204                   21635412.4774
 -26725045.51646 -20774390.74243  23814408.6804                   23814406.9844
  29624597.69946  23123743.97343  24183826.8204                   24183825.9414
 -26698705.93448 -20754503.82447  20366569.4384                   20366567.0394
  -9279204.44948  -7188507.24246  21492583.8134   21492583.8554   17975469.44947
  14054124.79744                  23252619.5394                   23252618.5274
 11  8 12  2 59  0.0000000  0  8G29G02G12G10G15G05G25G26
   5379534.95747   4503273.69946  22057672.2274                   22057670.6954
 -47500887.74647 -36959117.07445  21636818.2974                   21636813.7384
 -26797260.39547 -20830556.30946  21631449.4844                   21631447.2344
 -26710704.94147 -20763216.25844  23817138.5314                   23817136.3054
  29436484.73446  22977162.50443  24148029.0944                   24148028.9384
 -26755878.41048 -20799053.79747  20355689.5554                   20355686.8204
  -9358570.34448  -7250350.78146  21477480.7894   21477481.1844   17789422.21547
  13909153.03544                  23217215.3284                   23217215.1254
 11  8 12  2 59 30.0000000  0  8G29G02G12G10G15G05G25G26
   6783731.60547   5597452.94546  22324881.6094                   22324880.0944
 -45976584.05548 -35771347.96546  21926883.3754                   21926878.8874
 -25242300.30548 -19618899.10546  21927348.2814                   21927346.2504
 -25120824.71547 -19524348.56643  24119681.9144                   24119680.5514
  30823724.16847                  24058128.40243  24412011.8444   24412011.2814
 -25237137.39848 -19615619.23446  20644696.4534                   20644694.0274
  -7861944.51648  -6084148.82046  21762279.2034   21762279.4614   19178939.39547
  14991893.77744                  23481631.8594                   23481630.8094
 11  8 12  3  0  0.0000000  0  8G29G02G12G10G15G05G25G26
   6612631.59847   5464128.27345  22292322.0084                   22292319.5434
 -46027610.92248 -35811109.16046  21917173.4144                   21917169.1764
 -25262390.91847 -19634554.14546  21923525.0784                   21923523.4774
 -25106251.59046 -19512992.85243  24122454.6174                   24122453.6294
  30635460.74246                  23911429.73443  24376186.7894   24376185.8954
 -25293333.88748 -19659408.69146  20634002.8754                   20634000.2624
  -7940178.61748  -6145110.44946  21747391.8204   21747392.6054   18993166.68047
  14847135.90244                  23446280.1484                   23446278.8244
 11  8 12  3  0 30.0000000  0  8G29G02G12G10G15G05G25G26
   6441666.84447   5330908.93045  22259788.9384                   22259786.5784
 -46078542.60547 -35850796.18045  21907481.7034                   21907477.3204
 -25282110.69947 -19649920.21946  21919772.5634                   21919770.6454
 -25091564.84846 -19501548.64843  24125249.7814                   24125248.2274
  30447127.58647                  23764676.69943  24340347.2734   24340347.9574
 -25349043.97748 -19702819.14147  20623401.4144                   20623398.8204
  -8017847.05948  -6205631.31246  21732612.2584   21732612.2114   18807538.03147
  14702490.25444                  23410955.7814                   23410955.1414
 11  8 12  3  1  0.0000000  0  8G29G02G12G10G15G05G25G26
   6270838.43047   5197795.87146  22227281.1334                   22227279.8794
 -46129380.08647 -35890409.80145  21897807.4924                   21897803.1604
 -25301463.19147 -19665000.09046  21916090.0944                   21916088.2154
 -25076767.83646 -19490018.48443  24128065.5944                   24128063.5634
  30258726.38747                  23617870.65244  24304496.8364   24304495.8594
 -25404270.63748 -19745852.88746  20612892.1644                   20612889.6414
  -8094951.70748  -6265712.86746  21717939.5394   21717939.4774   18622056.18847
  14557959.05143                  23375659.8674                   23375659.3244
 11  8 12  3  1 30.0000000  0  8G29G02G12G10G15G05G25G26
   6100145.11747   5064788.09845  22194799.3364                   22194798.0204
 -46180126.75447 -35929952.65245  21888150.9454                   21888146.3794
 -25320454.70347 -19679798.67246  21912475.9924                   21912474.0004
 -25061866.55546 -19478407.06643  24130901.7114                   24130899.6564
  30070256.37547                  23471010.97744  24268631.5084   24268631.7304
 -25459019.08248 -19788514.00846  20602473.9304                   20602471.1484
  -8171497.14548  -6325358.66046  21703373.6644   21703373.4184   18436721.27047
  14413542.30944                  23340392.3204                   23340391.4144
 11  8 12  3  2  0.0000000  0  8G29G02G12G10G15G05G25G26
   5929591.30547   4931888.95745  22162344.3524                   22162341.3714
 -46230780.19147 -35969422.84845  21878511.6484                   21878507.6644
 -25339085.50047 -19694316.16846  21908931.0704                   21908928.5864
 -25046860.94546 -19466714.38743  24133757.3754                   24133755.1334
  29881722.67647                  23324101.69544  24232754.7974   24232754.9654
 -25513288.62948 -19830801.95746  20592146.5634                   20592143.8094
  -8247482.01248  -6384567.65246  21688914.0554   21688914.4304   18251539.54747
  14269244.94144                  23305153.1254                   23305152.0044
 11  8 12  3  2 30.0000000  0  8G29G02G12G10G15G05G25G26
   5759180.32047   4799101.10945  22129916.1954                   22129913.6484
 -46281339.25848 -36008819.52045  21868890.6254                   21868885.9224
 -25357357.52347 -19708554.10546  21905453.9384                   21905451.8554
 -25031752.52046 -19454941.58243  24136631.7034                   24136630.4534
  29693129.51247                  23177146.04744  24196866.9924   24196865.7304
 -25567080.20748 -19872717.44947  20581910.2344                   20581907.9224
  -8322906.32848  -6443339.85546  21674561.2504   21674561.6094   18066515.48447
  14125070.45744                  23269943.9774                   23269942.4264
 11  8 12  3  3  0.0000000  0  8G29G02G12G10G15G05G25G26
   5588911.73447   4666424.27046  22097515.1724                   22097513.7624
 -46331806.65247 -36048144.75445  21859286.7584                   21859282.6374
 -25375275.87947 -19722516.44546  21902044.2034                   21902041.8134
 -25016546.38946 -19443092.62343  24139525.7274                   24139524.0514
  29504476.66447                  23030143.91444  24160967.8364   24160966.3164
 -25620398.26648 -19914263.97747  20571764.3914                   20571761.8324
  -8397773.68748  -6501678.05946  21660314.3524   21660314.6024   17881650.36347
  13981019.78544                  23234765.2034                   23234764.4574
 11  8 12  3  3 30.0000000  0  8G29G02G12G10G15G05G25G26
   5418789.78147   4533861.69945  22065142.0864                   22065139.8954
 -46382180.05948 -36087396.74245  21849701.2424                   21849697.4614
 -25392841.19947 -19736203.69546  21898701.3054                   21898699.6484
 -25001242.55546 -19431167.55143  24142437.3204                   24142436.0354
  29315769.25847                  22883099.28944  24125057.3674   24125056.8054
 -25673243.09048 -19955441.75046  20561708.2344                   20561705.6524
  -8472083.19548  -6559581.56646  21646173.7274   21646173.7304   17696949.87146
  13837097.43044                  23199618.1414                   23199616.7234
 11  8 12  3  4  0.0000000  0  8G29G02G12G10G15G05G25G26
   5248814.23847   4401413.20745  22032796.7274                   22032794.1994
 -46432461.71147 -36126577.25445  21840132.7034                   21840128.5124
 -25410058.83247 -19749620.01646  21895425.2194                   21895422.8794
 -24985845.91046 -19419170.14543  24145367.0704                   24145366.3014
  29127007.41047                  22736012.20344  24089137.1334   24089136.6054
 -25725618.54348 -19996253.77747  20551741.8204                   20551738.7854
  -8545838.41048  -6617053.15646  21632138.3524   21632138.4574   17512415.36747
  13693304.36744                  23164502.8364                   23164501.3444
 11  8 12  3  4 30.0000000  0  8G29G02G12G10G15G05G25G26
   5078987.61747   4269080.77746  22000480.0234                   22000478.1134
 -46482651.31248 -36165686.03145  21830582.0234                   21830577.6214
 -25426931.18047 -19762767.28546  21892214.0944                   21892212.3954
 -24970358.70746 -19407102.22343  24148314.6484                   24148313.0904
  28938194.59047                  22588885.40244  24053207.6174   24053206.7034
 -25777526.35248 -20036701.40247  20541863.7274                   20541860.9964
  -8619040.01648  -6674093.37146  21618208.7584   21618209.2344   17328051.11747
  13549644.01244                  23129418.6094                   23129417.6254
 11  8 12  3  5  0.0000000  0  8G29G02G12G10G15G05G25G26
   4909314.16847   4136867.76646  21968192.1884                   21968190.4574
 -46532746.61348 -36204721.32845  21821049.0784                   21821044.9924
 -25443458.75447 -19775645.89546  21889069.3364                   21889066.7934
 -24954781.47746 -19394964.10243  24151278.8284                   24151277.3984
  28749335.57846                  22441722.58244  24017269.0784   24017267.4454
 -25828966.50448 -20076784.62546  20532075.0164                   20532072.4884
  -8691687.27048  -6730701.61746  21604384.6884   21604385.1214   17143862.50847
  13406120.49644                  23094368.5784                   23094367.6994
 11  8 12  3  5 30.0000000  0  8G29G02G12G10G15G05G25G26
   4739795.51647   4004775.37546  21935933.8204                   21935931.4224
 -46582748.43748 -36243683.80945  21811533.9844                   21811530.0944
 -25459645.43048 -19788258.88346  21885989.2034                   21885986.8484
 -24939117.05146 -19382758.07043  24154259.8674                   24154258.6374
  28560432.70346                  22294525.61744  23981321.4694   23981320.5204
 -25879941.21548 -20116505.16047  20522375.1414                   20522372.4384
  -8763781.96948  -6786879.29746  21590665.6954   21590665.6254   16959852.86747
  13262736.42644                  23059352.8524                   23059352.1254
 11  8 12  3  6  0.0000000  0  8G29G02G12G10G15G05G25G26
   4570432.14147   3872803.98445  21903704.5474                   21903702.6414
 -46632658.12548 -36282574.48445  21802036.7664                   21802032.8554
 -25475495.27047 -19800609.39846  21882972.9534                   21882970.8444
 -24923369.28146 -19370487.06643  24157256.4304                   24157255.2424
  28371487.04346                  22147295.27744  23945366.7424   23945365.4774
 -25930454.46148 -20155866.11746  20512762.5474                   20512759.4024
  -8835326.93448  -6842628.62546  21577050.8054   21577051.5234   16776024.43047
  13119493.57044                  23024371.1484                   23024371.1524
 11  8 12  3  6 30.0000000  0  8G29G02G12G10G15G05G25G26
   4401224.76648   3740954.18046  21871505.7344                   21871503.5314
 -46682477.12148 -36321394.50445  21792556.6884                   21792552.3594
 -25491012.96148 -19812701.07446  21880019.7344                   21880017.4264
 -24907542.64546 -19358154.59843  24160268.1484                   24160266.8134
  28182499.56646                  22000032.38344  23909402.6804   23909402.7194
 -25980510.15248 -20194870.53146  20503237.3594                   20503234.3244
  -8906325.26248  -6897952.00846  21563540.2734   21563540.3404   16592378.80947
  12976393.17644                  22989425.0004                   22989423.8834
 11  8 12  3  7  0.0000000  0  8G29G02G12G10G15G05G25G26
   4232177.67647   3609229.29346  21839337.1564                   21839334.7384
 -46732202.96548 -36360141.93745  21783093.7974                   21783089.5824
 -25506198.98848 -19824534.33645  21877130.3444                   21877127.4924
 -24891636.99246 -19345760.58643  24163294.6174                   24163293.4574
  27993475.55146                  21852741.01643  23873432.8364   23873432.1954
 -26030107.72748 -20233517.98446  20493799.0394                   20493796.4454
  -8976775.94548  -6952848.65646  21550134.1414   21550134.1724   16408922.32847
  12833440.16044                  22954514.1484                   22954513.1564
 11  8 12  3  7 30.0000000  0  8G29G02G12G10G15G05G25G26
   4063292.00848   3477630.19945  21807198.7504                   21807196.7384
 -46781836.57048 -36398817.49245  21773648.9304                   21773644.9774
 -25521057.04748 -19836112.03946  21874302.7734                   21874300.3404
 -24875655.68046 -19333307.67243  24166335.6724                   24166334.3204
  27804417.01646                  21705422.74643  23837456.6094   23837455.4264
 -26079250.36348 -20271810.93047  20484447.5864                   20484444.8714
  -9046681.24648  -7007320.33646  21536831.4454   21536831.8444   16225657.76647
  12690636.66844                  22919640.2504                   22919638.7504
 11  8 12  3  8  0.0000000  0  8G29G02G12G10G15G05G25G26
   5469996.59848   4573763.76246  22074885.7664                   22074883.5044
 -45255955.77348 -35209819.49245  22064014.2584                   22064010.1764
 -23960168.91048 -18619835.56646  22171329.7664                   22171327.8484
 -23284180.97746 -18093197.45743  24469182.8364                   24469182.2194
  29190753.71946                  22785685.17244  24101267.3444   24101266.4304
 -24552517.60548 -19082149.02346  20774975.2504                   20774972.6054
  -7540619.40648  -5833765.67646  21823425.5944   21823425.8834   17618015.46947
  13775590.81644                  23184596.6884                   23184596.1804
 11  8 12  3  8 30.0000000  0  8G29G02G12G10G15G05G25G26
   5301443.06348   4442423.45746  22042811.0234                   22042809.1024
 -45305402.66448 -35248349.55545  22054604.9924                   22054600.6024
 -23974377.42248 -18630907.10946  22168625.9534                   22168624.1374
 -23268052.87146 -18080630.12142  24472252.1254                   24472251.6564
  29001636.88346                  22638321.47743  24065279.5944   24065278.3164
 -24600753.73448 -19119735.60946  20765795.8914                   20765793.6994
  -7609435.51248  -5887388.62946  21810330.4924   21810330.6844   17435148.14547
  13633096.88344                  23149798.3054                   23149797.5664
 11  8 12  3  9  0.0000000  0  8G29G02G12G10G15G05G25G26
   5133057.23448   4311213.83246  22010767.8594                   22010766.1484
 -45354757.59848 -35286807.96545  22045213.1884                   22045208.9104
 -23988266.77348 -18641729.98846  22165982.6334                   22165980.8674
 -23251856.98846 -18068009.89543  24475333.7974                   24475333.4184
  28812493.62546                  22490937.18443  24029286.1724   24029285.2424
 -24648541.51648 -19156972.82046  20756702.2114                   20756699.7544
  -7677710.78948  -5940590.15646  21797337.7894   21797337.9304   17252483.21947
  13490760.66044                  23115038.4304                   23115036.8404
 11  8 12  3  9 30.0000000  0  8G29G02G12G10G15G05G25G26
   4964840.58248   4180136.03146  21978757.3674                   21978755.4614
 -45404021.16448 -35325195.17645  22035838.5864                   22035834.5234
 -24001841.15248 -18652307.41846  22163399.7894                   22163397.8714
 -23235595.77346 -18055338.86742  24478427.9924                   24478427.8284
  28623326.14546                  22343534.01244  23993289.5234   23993288.1454
 -24695883.53948 -19193862.69546  20747693.5394                   20747690.6524
  -7745447.25448  -5993371.82046  21784448.3284   21784448.1054   17070023.98847
  13348584.71544                  23080317.4614                   23080316.1174
 11  8 12  3 10  0.0000000  0  9G29G02G12G10G15G05G25G26G21
   4796796.84847   4049192.95346  21946779.7734                   21946777.6804
 -45453191.46547 -35363509.70345  22026482.0164                   22026477.7464
 -24015101.51248 -18662640.15646  22160876.5864                   22160874.3164
 -23219270.29346 -18042617.66843  24481535.5944                   24481534.2074
  28434138.68846                  22196115.28144  23957288.1804   23957286.7074
 -24742780.50848 -19230405.77046  20738769.3524                   20738766.6094
  -7812644.90648  -6045733.63346  21771660.5784   21771660.9494   16887775.75847
  13206573.16844                  23045636.2974                   23045635.3674
  36012853.96316                  25234510.031
 11  8 12  3 10 30.0000000  0  9G29G02G12G10G15G05G25G26G21
   4628924.43048   3918383.36346  21914834.6254                   21914832.8714
 -45502272.54748 -35401754.70745  22017141.7274                   22017137.8284
 -24028054.88747 -18672733.69945  22158411.2814                   22158409.4454
 -23202887.22746 -18029851.62143  24484652.7734                   24484652.1804
  28244930.02747                  22048680.04744  23921282.5554   23921281.5744
 -24789238.44148 -19266606.73446  20729928.8834                   20729926.0554
  -7879309.33648  -6097679.96146  21758975.3984   21758975.4694   16705737.94147
  13064725.60244                  23010995.4844                   23010994.6254
  35863122.063 6                  25206016.750
 11  8 12  3 11  0.0000000  0  9G29G02G12G10G15G05G25G26G21
   4461225.15247   3787708.68046  21882922.4064                   21882920.3594
 -45551264.46147 -35439930.23845  22007819.0084                   22007814.9104
 -24040704.25848 -18682590.34845  22156004.6094                   22156002.8134
 -23186448.71946 -18017042.37543  24487781.4064                   24487779.7814
  28055703.19146                  21901230.62944  23885273.5784   23885273.4494
 -24835259.98848 -19302467.66046  20721170.9844                   20721168.4144
  -7945442.14848  -6149212.02346  21746390.2814   21746390.4774   16523914.25047
  12923044.86344                  22976395.8204                   22976394.6644
  35713400.90246  28128884.87553  25177524.6024                   25177524.6764
 11  8 12  3 11 30.0000000  0  9G29G02G12G10G15G05G25G26G21
   4293702.19547   3657171.35946  21851043.9774                   21851041.5314
 -45600166.31648 -35478035.56245  21998513.4064                   21998508.8554
 -24053051.93447 -18692211.90645  22153654.7034                   22153652.8054
 -23169956.28946 -18004191.11743  24490919.9844                   24490917.9184
  27866461.67247                  21753769.77344  23849262.7974   23849261.4144
 -24880846.16048 -19337989.33246  20712496.1094                   20712493.5824
  -8011044.06648  -6200330.41046  21733906.8134   21733907.0944   16342309.05947
  12781534.39144                  22941837.8134                   22941836.1994
  35563690.73045  28012227.78142  25149035.7344                   25149037.1484
 11  8 12  3 12  0.0000000  0  9G29G02G12G10G15G05G25G26G21
   4126354.88348   3526770.89546  21819198.7034                   21819196.6254
 -45648980.75847 -35516072.77745  21989223.9534                   21989219.9024
 -24065103.61347 -18701602.81645  22151361.1644                   22151359.5124
 -23153415.25446 -17991302.05143  24494067.8834                   24494066.4964
  27677205.70746                  21606297.69144  23813248.1644   23813246.7934
 -24926002.06248 -19373175.72746  20703903.3674                   20703900.6254
  -8076119.45348  -6251038.50446  21721523.0554   21721523.4494   16160923.36747
  12640194.93844                  22907321.1884                   22907319.5204
  35413988.34445  27895576.81342  25120548.0784                   25120550.1094
 11  8 12  3 12 30.0000000  0  9G29G02G12G10G15G05G25G26G21
   3959188.18847   3396511.14846  21787387.7894                   21787386.0704
 -45697704.99647 -35554039.69545  21979952.2344                   21979948.5474
 -24076859.54347 -18710763.26646  22149124.1024                   22149122.3984
 -23136825.15246 -17978374.71543  24497224.3834                   24497223.1414
  27487940.67647                  21458818.52344  23777232.2664   23777230.3914
 -24970727.05948 -19408026.35546  20695392.6334                   20695390.0314
  -8140667.19948  -6301335.46146  21709240.1884   21709240.5634   15979763.62547
  12499031.57044                  22872847.2974                   22872845.7774
  35264295.75445  27778933.35542  25092062.3444                   25092064.4064
 11  8 12  3 13  0.0000000  0  9G29G02G12G10G15G05G25G26G21
   3792203.40248   3266393.17246  21755611.4924                   21755609.9694
 -45746339.86747 -35591936.95745  21970697.3984                   21970693.1684
 -24088323.56247 -18719696.24246  22146943.0004                   22146940.2624
 -23120189.00446 -17965411.48043  24500390.1644                   24500388.5634
  27298668.54747                  21311333.82044  23741215.0554   23741213.4614
 -25015024.47348 -19442543.80146  20686963.1094                   20686960.3524
  -8204689.86348  -6351223.23846  21697057.1564   21697057.4024   15798832.57447
  12358046.36744                  22838417.2344                   22838415.9104
  35114611.97746  27662296.78542  25063578.2034                   25063579.9694
 11  8 12  3 13 30.0000000  0  9G29G02G12G10G15G05G25G26G21
   3625404.67648   3136420.13746  21723871.0704                   21723868.5824
 -45794882.89848 -35629762.66445  21961460.2424                   21961456.0474
 -24099496.32847 -18728402.29745  22144816.7894                   22144814.3794
 -23103507.28546 -17952412.78943  24503565.0634                   24503563.7424
  27109394.40246                  21163847.54744  23705196.9534   23705195.9694
 -25058894.29748 -19476728.05546  20678615.0004                   20678612.1214
  -8268187.08648  -6400701.59046  21684973.8444   21684974.2504   15618136.07047
  12217243.95744                  22804031.7504                   22804030.2034
  34964937.99246  27545667.90242  25035097.0474                   25035096.9064
 11  8 12  3 14  0.0000000  0  9G29G02G12G10G15G05G25G26G21
   3458794.06347   3006593.69946  21692165.9844                   21692164.5234
 -45843334.35548 -35667517.01645  21952239.6174                   21952236.1604
 -24110381.51247 -18736884.23846  22142745.0394                   22142742.8674
 -23086782.53946 -17939380.58643  24506747.9224                   24506746.4024
  26920120.77346                  21016361.69144  23669179.2034   23669178.1024
 -25102339.07848 -19510581.11746  20670347.7344                   20670344.6724
  -8331160.78948  -6449771.99646  21672990.5944   21672990.9224   15437677.41447
  12076626.87144                  22769691.5554                   22769689.9804
  34815273.19146  27429046.12143  25006616.8444                   25006615.8364
 11  8 12  3 14 30.0000000  0  8G29G02G12G15G05G25G26G21
   3292379.16047   2876919.74646  21660498.5164                   21660496.1414
 -45891689.03547 -35705195.95345  21943038.5164                   21943034.9304
 -24120976.81647 -18745140.30545  22140728.9694                   22140726.5554
  26730855.38347                  20868882.24644  23633163.0784   23633162.0664
 -25145356.07448 -19544100.84046  20662161.4064                   20662158.9414
  -8393607.53948  -6498431.79746  21661107.2584   21661107.8594   15257465.43447
  11936202.00044                  22735398.2664                   22735397.0824
  34665621.88746  27312434.83243  24978138.5864                   24978138.2664
 11  8 12  3 15  0.0000000  0  8G29G02G12G15G05G25G26G21
   3126158.85948   2747397.42246  21628867.9694                   21628865.5434
 -45939950.19148 -35742802.01645  21933854.3204                   21933850.2464
 -24131288.25448 -18753175.17645  22138766.7194                   22138764.4734
  26541598.41846                  20721409.36744  23597148.7734   23597148.2584
 -25187950.40248 -19577291.20746  20654056.3054                   20654053.6294
  -8455532.23048  -6546684.79746  21649323.4844   21649323.7464   15077500.65647
  11795969.74644                  22701152.0004                   22701150.7704
  34515980.78146  27195831.48043  24949662.8524                   24949662.3594
 11  8 12  3 15 30.0000000  0  8G29G02G12G15G05G25G26G21
   2960138.71148   2618031.06646  21597275.1414                   21597273.0514
 -45988114.20348 -35780332.38345  21924689.3914                   21924685.2544
 -24141315.62148 -18760988.70345  22136858.8754                   22136856.3404
  26352356.06646                  20573947.89844  23561137.4304   23561136.6214
 -25230121.21548 -19610151.56646  20646031.5704                   20646028.8554
  -8516933.22348  -6594529.71946  21637639.1094   21637639.5864   14897790.08247
  11655935.59044                  22666954.1484                   22666953.0864
  34366352.35946  27079238.00443  24921189.3364                   24921188.7464
 11  8 12  3 16  0.0000000  0  8G29G02G12G15G05G25G26G21
   2794323.50048   2488824.42646  21565721.7734                   21565719.6484
 -46036178.50447 -35817785.05145  21915543.1484                   21915538.8754
 -24151059.52347 -18768581.34445  22135004.6724                   22135002.1884
  26163133.48046                  20426501.82044  23525129.3674   23525128.1254
 -25271868.34048 -19642681.77046  20638086.9224                   20638084.6214
  -8577810.04348  -6641966.19146  21626054.6884   21626054.8054   14718339.85547
  11516104.29744                  22632805.9384                   22632804.6844
  34216738.78946  26962656.10943  24892719.3284                   24892717.7624
 11  8 12  3 16 30.0000000  0  8G29G02G12G15G05G25G26G21
   4204141.85548   3587384.19546  21834001.5704                   21833998.5784
 -44508720.39847 -34627557.93445  22206208.2274                   22206204.5274
 -22585101.82047 -17548354.54345  22432996.2344                   22432994.1334
  27549360.87146                  21506679.11344  23788919.5474   23788918.2424
 -23737771.78548 -18447281.84846  20930016.1024                   20930013.5904
  -7062741.47348  -5461393.27746  21914362.6644   21914362.9104   16114580.53147
  12604084.08645                  22898502.2194                   22898500.6604
  35642565.09046  28073689.68043  25164044.8524                   25164043.7114
 11  8 12  3 17  0.0000000  0  8G29G02G12G15G05G25G26G21
   4038744.14548   3458502.87946  21802527.1884                   21802524.9964
 -44556583.48848 -34664853.83245  22197100.4144                   22197095.7424
 -22594286.71147 -17555511.60245  22431248.9144                   22431246.1024
  27360187.95747                  21359271.72344  23752921.2274   23752919.8244
 -23778677.21948 -18479156.20746  20922231.7664                   20922229.0704
  -7122573.94948  -5508016.00046  21902976.9064   21902976.9924   15935663.23047
  12464668.06644                  22864454.5474                   22864453.7854
  35492980.17646  27957130.11343  25135580.0474                   25135578.6174
 11  8 12  3 17 30.0000000  0  8G29G02G12G15G05G25G26G21
   3873553.37148   3329782.82046  21771092.2034                   21771090.2424
 -44604351.21547 -34702075.43445  22188010.3834                   22188006.2114
 -22603202.03947 -17562458.60245  22429552.1644                   22429549.5084
  27171039.00047                  21211883.03944  23716927.5394   23716926.0904
 -23819170.45348 -18510709.35546  20914526.3914                   20914523.3444
  -7181892.34448  -5554238.12946  21891689.1094   21891688.8554   15757012.77047
  12325459.98045                  22830458.7664                   22830457.6094
  35343403.69946  27840577.08243  25107115.5704                   25107114.9654
 11  8 12  3 18  0.0000000  0  8G29G02G12G15G05G25G26G21
   3708574.45348   3201227.84846  21739697.8674                   21739695.5314
 -44652020.61747 -34739220.42645  22178939.0554                   22178935.3954
 -22611847.82847 -17569195.55945  22427906.2424                   22427904.3204
  26981919.59447                  21064517.37144  23680939.1804   23680937.7344
 -23859251.20748 -18541941.10546  20906898.9774                   20906896.6374
  -7240695.80148  -5600058.99246  21880498.9534   21880499.6134   15578635.28547
  12186464.60245                  22796514.6804                   22796513.8134
  35193837.52346  27724032.04743  25078654.9384                   25078653.5824
 11  8 12  3 18 30.0000000  0  8G29G02G12G15G05G25G26G21
   3543804.99248   3072836.09446  21708343.0944                   21708341.0434
 -44699596.23047 -34776292.34045  22169885.9454                   22169881.5744
 -22620231.75047 -17575728.46945  22426311.1484                   22426309.0664
  26792827.91847                  20917173.29744  23644955.6804   23644954.5474
 -23898926.23048 -18572856.69946  20899349.1724                   20899346.5904
  -7298990.77048  -5645483.65646  21869405.8914   21869406.5084   15400529.93847
  12047681.27745                  22762622.2664                   22762620.6684
  35044276.66846  27607491.18843  25050194.3674                   25050192.7304
 11  8 12  3 19  0.0000000  0  8G29G02G12G15G05G25G26G21
   3379249.20348   2944610.85246  21677029.0314                   21677027.2384
 -44747075.75047 -34813289.38745  22160851.0784                   22160846.7234
 -22628355.05547 -17582058.28945  22424765.4304                   22424763.2624
  26603768.92647                  20769854.71944  23608979.4224   23608977.7384
 -23938195.90248 -18603456.43046  20891876.4924                   20891873.5234
  -7356777.28148  -5690512.10946  21858409.5314   21858409.7074   15222702.36347
  11909114.39145                  22728782.6094                   22728781.4694
  34894722.50446  27490955.54743  25021734.5474                   25021733.9304
 11  8 12  3 19 30.0000000  0  8G29G02G12G15G05G25G26G21
   3214909.44148   2816553.94946  21645756.3054                   21645754.3554
 -44794459.38347 -34850211.70745  22151834.2194                   22151829.8634
 -22636220.90247 -17588187.50045  22423268.9844                   22423266.0744
  26414745.35547                  20622563.74244  23573008.7974   23573007.6564
 -23977062.99248 -18633742.46546  20884480.3914                   20884477.7734
  -7414057.44948  -5735146.02746  21847509.3834   21847510.1334   15045156.13347
  11770766.73844                  22694996.8134                   22694995.2074
  34745174.40646  27374424.64143  24993276.0394                   24993276.0864
 11  8 12  3 20  0.0000000  0  8G29G02G12G15G05G25G26G21
   3050788.80948   2688667.80146  21614524.6884                   21614522.7464
 -44841745.82047 -34887058.30945  22142835.5394                   22142831.4694
 -22643831.36747 -17594117.70345  22421820.6564                   22421818.3634
  26225761.40247                  20475303.59844  23537046.7194   23537044.5704
 -24015528.57048 -18663715.62946  20877160.6804                   20877158.0514
  -7470832.07048  -5779386.00046  21836705.6884   21836705.9494   14867895.96547
  11632641.99644                  22661264.8204                   22661264.2194
  34595632.75846  27257898.74643  24964819.3204                   24964818.5864
 11  8 12  3 20 30.0000000  0  8G29G02G12G15G05G25G26G21
   2886887.50048   2560952.54746  21583335.5634                   21583333.3364
 -44888936.73447 -34923830.47345  22133855.7114                   22133851.2304
 -22651191.53947 -17599852.89845  22420419.8674                   22420417.4104
  26036817.98047                  20328075.02044  23501092.0004   23501089.8364
 -24053596.96548 -18693379.30146  20869916.7814                   20869914.0634
  -7527105.12148  -5823235.14846  21825997.2034   21825997.9964   14690923.56647
  11494741.47344                  22627588.4064                   22627587.5314
  34446095.36746  27141376.13743  24936364.4924                   24936362.6994
 11  8 12  3 21  0.0000000  0  8G29G02G12G15G05G25G26G21
   2723208.50448   2433410.52346  21552188.5164                   21552186.0164
 -44936031.01247 -34960527.34045  22124893.9144                   22124889.9924
 -22658303.63747 -17605394.77045  22419066.2584                   22419063.7854
  25847918.58246                  20180880.75044  23465144.8134   23465143.3054
 -24091269.96948 -18722734.88746  20862747.2814                   20862744.3524
  -7582878.00448  -5866694.53146  21815383.9454   21815384.6414   14514243.24647
  11357068.54344                  22593967.3984                   22593965.7734
  34296561.80146  27024856.57043  24907907.5474                   24907906.7274
 11  8 12  3 21 30.0000000  0  8G29G02G12G15G05G25G26G21
   2559752.67248   2306042.38346  21521083.9534                   21521081.6804
 -44983030.68747 -34997150.50045  22115950.3284                   22115946.1524
 -22665172.06647 -17610746.76645  22417759.7584                   22417757.0164
  25659064.63347                  20033721.87144  23429207.5634   23429206.2624
 -24128551.39548 -18751785.33246  20855652.6954                   20855649.8794
  -7638154.19948  -5909766.89846  21804865.1884   21804865.9144   14337856.96547
  11219624.72745                  22560402.0474                   22560400.9264
  34147030.43046  26908338.64143  24879453.3914                   24879452.0554
 11  8 12  3 22  0.0000000  0  8G29G02G12G15G05G25G26G21
   2396521.79348   2178849.53546  21490022.0474                   21490019.4064
 -45029935.51247 -35033699.74645  22107024.6254                   22107020.7734
 -22671800.82847 -17615912.01245  22416497.9774                   22416495.6174
  25470258.90647                  19886600.60244  23393278.6254   23393276.9104
 -24165443.94948 -18780532.76246  20848632.5944                   20848629.5164
  -7692936.17648  -5952454.15246  21794440.5164   21794441.2774   14161768.16047
  11082412.72745                  22526893.8754                   22526892.2194
  33997500.15246  26791821.62143  24850998.2734                   24850997.1454
 11  8 12  3 22 30.0000000  0  8G29G02G12G15G05G25G26G21
   2233518.66848   2051834.14546  21459003.7114                   21459001.1024
 -45076745.09048 -35070174.76645  22098117.0234                   22098113.0234
 -22678192.37147 -17620892.40245  22415281.0704                   22415278.9574
  25281504.34046                  19739519.18444  23357360.1174   23357358.6724
 -24201949.89848 -18808978.94146  20841685.6174                   20841683.2814
  -7747225.60948  -5994757.60246  21784109.6804   21784110.0824   13985980.84447
  10945435.66845                  22493442.1884                   22493440.8364
  33847970.55946  26675305.12542  24822543.5234                   24822543.0274
 11  8 12  3 23  0.0000000  0  8G29G02G12G15G05G25G26G21
   2070745.98048   1924998.32846  21428028.9224                   21428026.3594
 -45123458.62148 -35106574.94945  22089227.6804                   22089223.9494
 -22684348.92647 -17625689.69945  22414109.8444                   22414107.9924
  25092804.87147                  19592480.70744  23321451.3674   23321450.3244
 -24238070.69148 -18837125.00446  20834812.0004                   20834809.1214
  -7801023.93448  -6036678.37546  21773871.9534   21773872.8984   13810499.27747
  10808696.84045                  22460048.8674                   22460046.9574
  33698442.23446  26558789.64142  24794089.1174                   24794088.7194
 11  8 12  3 23 30.0000000  0  8G29G02G12G15G05G25G26G21
   1908204.30148   1798342.50846  21397098.4224                   21397095.7974
 -45170077.36748 -35142901.27345  22080356.8834                   22080352.3444
 -22690275.37947 -17630307.70345  22412982.0784                   22412980.0354
  24904161.82847                  19445486.20344  23285554.0084   23285552.9924
 -24273810.78548 -18864974.41446  20828010.8444                   20828008.2974
  -7854334.91848  -6078219.39846  21763727.4144   21763727.7624   13635325.56647
  10672197.89545                  22426715.0864                   22426712.6644
  33548912.94946  26442273.44542  24765635.0944                   24765634.9804
 11  8 12  3 24  0.0000000  0  8G29G02G12G15G05G25G26G21
   1745897.40648   1671869.62946  21366212.5004                   21366210.1094
 -45216600.00848 -35179152.69945  22071503.8984                   22071499.6764
 -22695973.05947 -17634747.43445  22411898.0394                   22411895.4024
  24715579.38347                  19298538.92244  23249668.3444   23249666.7774
 -24309170.91448 -18892527.74646  20821282.0084                   20821279.2194
  -7907159.46948  -6119381.38346  21753675.2274   21753675.8204   13460464.41047
  10535942.50845                  22393439.3984                   22393438.1214
  33399383.03146  26325756.72342  24737180.1564                   24737179.9024
 11  8 12  3 24 30.0000000  0  8G29G02G12G15G05G25G26G21
   1583828.37948   1545582.09846  21335371.4454                   21335368.6764
 -45263025.80948 -35215328.66045  22062669.0944                   22062664.8794
 -22701445.63747 -17639011.75445  22410857.0164                   22410854.3014
  24527061.10247                  19151641.62144  23213794.2194   23213792.7234
 -24344153.12548 -18919786.60246  20814625.1644                   20814622.4144
  -7959499.16848  -6160165.55146  21743715.2974   21743715.3714   13285920.14847
  10399934.06645                  22360225.1564                   22360223.4654
  33249852.31646  26209239.38742  24708724.7344                   24708725.3674
 11  8 12  3 25  0.0000000  0  8G29G02G12G15G05G25G26G21
   2997422.28948   2647083.86746  21604369.6024                   21604366.9924
 -43733934.91048 -34023829.26245  22353645.6174                   22353641.4224
 -21131277.44947 -16415504.07845  22709649.9454                   22709647.4694
  25914034.24647                  20232399.99644  23477726.0704   23477724.8524
 -22803340.65248 -17719153.50046  21107832.3754                   21107829.2664
  -6435936.38748  -4972973.76246  22033640.0164   22033640.2814   14687120.27347
  11491778.38345                  22626864.5704                   22626862.9924
  34675743.64546  27320323.66042  24980063.0864                   24980062.5354
 11  8 12  3 25 30.0000000  0  8G29G02G12G15G05G25G26G21
   2835833.20348   2521170.31646  21573620.0234                   21573617.7934
 -43780168.10948 -34059855.15245  22344847.7424                   22344843.6254
 -21136309.65247 -16419425.25845  22708692.2734                   22708689.8404
  25725651.52747                  20085608.34844  23441878.2504   23441876.9024
 -22837575.81248 -17745830.23446  21101317.3444                   21101314.6334
  -6487314.67248  -5013008.77046  22023862.6024   22023863.2154   14513218.90247
  11356270.88745                  22593771.9064                   22593770.3524
  34526208.61746  27203802.92242  24951607.7664                   24951607.1294
 11  8 12  3 26  0.0000000  0  8G29G02G12G15G05G25G26G21
   2674491.63348   2395449.63346  21542917.6174                   21542914.6764
 -43826301.00848 -34095802.85945  22336068.5164                   22336064.7034
 -21141122.63347 -16423175.61745  22707776.0864                   22707774.3444
  25537344.45747                  19938875.63344  23406044.8284   23406042.8404
 -22871437.58248 -17772216.02346  21094873.7814                   21094870.8324
  -6538211.85248  -5052668.90246  22014177.4774   22014177.8444   14339647.92247
  11221020.82845                  22560742.8984                   22560740.9344
  34376674.14846  27087282.68042  24923152.2424                   24923151.2894
 11  8 12  3 26 30.0000000  0  8G29G02G12G15G05G25G26G21
   2513395.99648   2269920.59446  21512262.2734                   21512259.9344
 -43872336.94548 -34131675.02345  22327308.6884                   22327304.2974
 -21145723.07447 -16426760.35545  22706900.6484                   22706898.3524
  25349112.53547                  19792201.46144  23370224.6254   23370223.7464
 -22904932.14148 -17798315.67646  21088499.6484                   21088496.7074
  -6588633.84048  -5091958.75846  22004582.4924   22004582.3324   14166407.42247
  11086028.28945                  22527776.1094                   22527774.1334
  34227136.16846  26970759.72742  24894695.2894                   24894694.6724
 11  8 12  3 27  0.0000000  0  8G29G02G12G15G05G25G26G21
   2352550.20348   2144586.23846  21481654.5234                   21481651.8134
 -43918273.91048 -34167470.06645  22318567.0784                   22318562.5824
 -21150112.41447 -16430180.60245  22706065.7584                   22706062.8164
  25160960.63347                  19645589.66444  23334420.4694   23334419.1844
 -22938060.03948 -17824129.60946  21082195.7584                   21082193.2664
  -6638581.10548  -5130878.69146  21995077.8364   21995078.1294   13993502.74247
  10951297.43845                  22494872.8444                   22494871.3954
  34077595.74646  26854234.78943  24866239.3524                   24866238.1954
 11  8 12  3 27 30.0000000  0  8G29G02G12G15G05G25G26G21
   2191956.65648   2019448.43846  21451094.5164                   21451091.8554
 -43964112.06247 -34203188.09845  22309844.4304                   22309840.2194
 -21154293.19547 -16433438.33645  22705269.9534                   22705267.4804
  24972891.87547                  19499042.63344  23298632.4774   23298630.2974
 -22970823.50848 -17849659.57846  21075961.0944                   21075958.5164
  -6688055.90648  -5169430.46146  21985663.1724   21985663.0704   13820937.67247
  10816831.23845                  22462035.2894                   22462033.3014
  33928052.53546  26737707.66443  24837782.7194                   24837780.4534
 11  8 12  3 28  0.0000000  0  8G29G02G12G15G05G25G26G21
   2031615.05548   1894506.96146  21420582.4384                   21420579.8984
 -44009853.55948 -34238830.82845  22301140.0234                   22301136.0824
 -21158272.11347 -16436538.77345  22704513.1564                   22704510.0824
  24784906.33647                  19352560.45344  23262860.1804   23262858.5474
 -23003227.85548 -17874909.72346  21069794.8204                   21069791.9414
  -6737063.20748  -5207617.96946  21976337.1724   21976337.5204   13648713.03947
  10682630.27345                  22429262.0944                   22429260.3164
  33778503.28946  26621175.90643  24809323.9224                   24809322.1484
 11  8 12  3 28 30.0000000  0  8G29G02G12G15G05G25G26G21
   1871531.85248   1769766.82846  21390119.4304                   21390117.1134
 -44055494.16048 -34274394.92245  22292454.5704                   22292450.6174
 -21162048.09047 -16439481.07845  22703794.0634                   22703791.6054
  24597011.20347                  19206148.72744  23227104.6804   23227102.8984
 -23035271.39848 -17899878.70746  21063696.9534                   21063694.1804
  -6785601.26648  -5245439.81246  21967100.9924   21967100.9924   13476836.35247
  10548700.43845                  22396554.9384                   22396553.2384
  33628951.23846  26504641.91843  24780864.9454                   24780863.3054
 11  8 12  3 29  0.0000000  0  8G29G02G12G15G05G25G26G21
   1711705.35248   1645226.72346  21359705.6954                   21359703.1524
 -44101037.19948 -34309883.01245  22283788.1954                   22283784.4264
 -21165627.60547 -16442270.28145  22703113.3054                   22703110.8874
  24409205.94547                  19059807.01244  23191366.4304   23191364.6454
 -23066960.28548 -17924571.33646  21057666.9774                   21057664.3134
  -6833675.85248  -5282900.51246  21957952.1024   21957952.4614   13305307.75447
  10415041.85945                  22363913.9224                   22363912.1764
  33479392.66046  26388102.88343  24752405.3284                   24752403.3984
 11  8 12  3 29 30.0000000  0  8G29G02G12G15G05G25G26G21
   1552138.03948   1520888.59046  21329340.6174                   21329338.1294
 -44146482.34047 -34345294.80545  22275139.8674                   22275136.3834
 -21169013.67647 -16444908.77345  22702468.6334                   22702466.2814
  24221493.59846                  18913537.74644  23155645.6564   23155644.1524
 -23098296.75448 -17948989.37546  21051703.7114                   21051700.7774
  -6881289.37148  -5320001.93446  21948891.5704   21948892.1954   13134130.85947
  10281657.33645                  22331339.7344                   22331338.2704
  33329826.89546  26271558.19543  24723944.4144                   24723942.3134
 11  8 12  3 30  0.0000000  0  8G29G02G12G15G05G25G26G21
   1392833.09848   1396754.90246  21299026.1174                   21299023.3984
 -44191828.84447 -34380629.73445  22266511.2894                   22266507.0824
 -21172208.59847 -16447398.33245  22701860.4304                   22701858.4614
  24033877.90647                  18767343.79344  23119943.8364   23119941.4774
 -23129282.63348 -17973134.20746  21045807.4534                   21045804.6294
  -6928443.44148  -5356745.34446  21939918.7814   21939919.1684   12963310.04347
  10148550.25845                  22298833.5004                   22298832.1724
  33180254.07446  26155008.05143  24695480.0314                   24695479.1134
 11  8 12  3 30 30.0000000  0  8G29G02G12G15G05G25G26G21
   1233793.40648   1272827.90246  21268761.8594                   21268759.4884
 -44237075.84447 -34415887.14145  22257900.9924                   22257896.6024
 -21175215.00447 -16449740.98045  22701288.5554                   22701286.1054
  23846362.42247                  18621227.92644  23084260.5234   23084258.7854
 -23159920.12148 -17997007.55946  21039977.3984                   21039974.3754
  -6975140.02748  -5393132.28546  21931032.4454   21931032.9184   12792849.25047
  10015723.72745                  22266396.0634                   22266394.6454
  33030674.11346  26038452.35543  24667016.2344                   24667014.6524
 11  8 12  3 31  0.0000000  0  8G29G02G12G15G05G25G26G21
   1075022.37548   1149110.24646  21238548.6644                   21238545.9224
 -44282221.74648 -34451065.77045  22249309.9304                   22249305.5984
 -21178035.02047 -16451938.39545  22700751.5004                   22700749.8164
  23658951.16847                  18475193.26644  23048597.6414   23048595.7504
 -23190210.35948 -18020610.34046  21034212.9924                   21034210.4414
  -7021380.30148  -5429163.64546  21922233.5864   21922233.7234   12622753.13347
   9883181.33645                  22234027.6094                   22234026.2304
  32881087.66847  25921891.60543  24638551.1334                   24638549.4184
 11  8 12  3 31 30.0000000  0  8G29G02G12G15G05G25G26G21
    916522.77348   1025604.08646  21208387.2504                   21208384.8134
 -44327265.96548 -34486165.16445  22240738.2344                   22240734.1684
 -21180670.95747 -16453992.36345  22700250.3444                   22700247.9534
  23471647.71547                  18329242.61344  23012954.6564   23012953.0634
 -23220155.34048 -18043944.08646  21028514.8674                   21028512.1724
  -7067166.09448  -5464840.85946  21913520.6484   21913520.7544   12453025.98047
   9750926.46145                  22201730.0164                   22201727.9774
  32731494.71147  25805325.77043  24610084.6334                   24610082.6804
 11  8 12  3 32  0.0000000  0  8G29G02G12G15G05G25G26G21
    758294.27048    902309.18046  21178277.3674                   21178275.1884
 -44372210.91047 -34521187.21145  22232185.3984                   22232181.3594
 -21183128.75047 -16455907.50845  22699782.8444                   22699780.4654
  23284452.56347                  18183376.34844  22977332.8204   22977330.8754
 -23249759.97348 -18067012.62146  21022881.1954                   21022878.2814
  -7112502.43748  -5500167.85546  21904893.5634   21904893.7344   12283668.70747
   9618959.80945                  22169502.1414                   22169500.6764
  32581892.44546  25688752.66443  24581615.9844                   24581614.3674
 11  8 12  3 32 30.0000000  0  8G29G02G12G15G05G25G26G21
    600339.65648    779227.69946  21148219.6954                   21148217.0354
 -44417055.69947 -34556131.21145  22223651.7194                   22223647.8634
 -21185410.95747 -16457685.84445  22699348.0234                   22699345.9344
  23097369.48047                  18037597.41845  22941731.5164   22941730.0394
 -23279026.57048 -18089817.75446  21017312.1334                   21017309.3324
  -7157391.31648  -5535146.18746  21896351.4224   21896351.4184   12114685.19147
   9487284.38345                  22137345.6484                   22137344.0744
  32432280.48846  25572172.03643  24553145.2344                   24553144.4734
 11  8 12  3 33  0.0000000  0  8G29G02G12G15G05G25G26G21
    442663.23448    656362.99646  21118214.9224                   21118212.3914
 -44461798.39847 -34590995.66845  22215136.9924                   22215133.4304
 -21187519.25847 -16459328.68045  22698947.1484                   22698945.1564
  22910402.85247                  17891909.22745  22906153.6564   22906151.4964
 -23307955.66848 -18112359.90646  21011806.6804                   21011804.1484
  -7201833.53148  -5569776.46546  21887894.2034   21887894.5234   11946080.78547
   9355904.36345                  22105261.3364                   22105259.7384
  32282660.05146  25455584.77743  24524673.4614                   24524672.4924
 11  8 12  3 33 30.0000000  0  8G29G02G12G15G05G25G26G21
   1860691.59448   1761320.19946  21388056.8134                   21388054.0004
 -42931017.88347 -33398179.69145  22506435.8524                   22506431.4774
 -19614037.00047 -15233238.61745  22998371.1484   22998368.4064   24298981.48847
  18973918.64545                  23170390.5944                   23170389.1804
 -21761129.44948 -16907040.77046  21306158.0314                   21306155.3284
  -5670410.62948  -4376459.89546  22179314.6644   22179314.4734   13353284.01647
  10452426.41045                  22373042.8284                   22373041.5824
  33708454.96146  26566593.91843  24795993.6254                   24795992.0084
 11  8 12  3 34  0.0000000  0  8G29G02G12G15G05G25G26G21
   1703576.21148   1638892.66046  21358158.4454                   21358155.8984
 -42975557.24248 -33432885.70345  22497959.8594                   22497955.9884
 -19615808.09047 -15234618.68045  22998033.7734   22998030.9614   24112255.38747
  18828417.85945                  23134858.1254                   23134856.3444
 -21789392.82848 -16929064.16846  21300779.5314                   21300777.2544
  -5713968.62148  -4410401.18046  22171025.3914   22171025.8324   13185446.64547
  10321644.08645                  22341104.5164                   22341103.0204
  33558814.35546  26449990.94143  24767517.3364                   24767515.7234
 11  8 12  3 34 30.0000000  0  8G29G02G12G15G05G25G26G21
   1546746.07848   1516687.40246  21328314.6174                   21328311.7734
 -43019993.47347 -33467511.37545  22489503.9844                   22489499.7234
 -19617413.98047 -15235870.02045  22997728.0314   22997725.9264   23925655.23447
  18683015.22345                  23099349.0314                   23099347.0744
 -21817325.77048 -16950830.09446  21295464.4924                   21295461.5394
  -5757087.01248  -4443999.90646  22162820.4774   22162820.5434   13017999.32447
  10191165.67645                  22309240.3834                   22309238.8284
  33409164.20346  26333380.48043  24739039.7814                   24739038.3984
 11  8 12  3 35  0.0000000  0  8G29G02G12G15G05G25G26G21
   1390204.09848   1394706.67646  21298525.6804                   21298523.1094
 -43064325.75447 -33502056.03145  22481067.8674                   22481063.5704
 -19618857.58647 -15236994.89145  22997453.2814   22997450.8714   23739184.74247
  18537713.62545                  23063864.8754                   23063863.1954
 -21844930.51648 -16972340.27346  21290211.1564                   21290208.2544
  -5799767.92248  -4477257.75446  22154698.5864   22154698.7344   12850945.85547
  10060994.18845                  22277451.0314                   22277449.7274
  33259504.14546  26216762.35943  24710560.4924                   24710558.8634
 11  8 12  3 35 30.0000000  0  9G29G02G12G18G15G05G25G26G21
   1233947.30548   1272948.16846  21268791.2344                   21268788.4144
 -43108558.93747 -33536523.46145  22472650.6564                   22472646.6884
 -19620146.82847 -15237999.48045  22997208.1804   22997205.9534
  40691469.00056  31746447.70353  24749228.9454   24749226.3524   23552841.73047
  18392511.36745                  23028404.8054                   23028403.0514
 -21872214.36348 -16993600.40246  21285019.3834                   21285016.8054
  -5842018.87948  -4510180.55946  22146657.9534   22146658.5634   12684284.73447
   9931128.41445                  22245736.5164                   22245734.9064
  33109829.06646  26100132.51243  24682078.6804                   24682076.1844
 11  8 12  3 36  0.0000000  0  9G29G02G12G18G15G05G25G26G21
   1077980.37548   1151415.52746  21239111.3524                   21239108.3834
 -43152690.52347 -33570911.73445  22464252.7034                   22464248.3874
 -19621282.66447 -15238884.54345  22996992.0864   22996989.4614
  40509532.29346  31604678.98843  24714606.5634   24714605.5314   23366631.84047
  18247412.82845                  22992970.3204                   22992968.9694
 -21899177.76248 -17014610.82446  21279888.4384                   21279885.8794
  -5883840.27048  -4542768.65646  22138699.5164   22138699.8714   12518021.77047
   9801572.89845                  22214098.0164                   22214096.2074
  32960140.46946  25983492.14543  24653593.5084                   24653591.3794
 11  8 12  3 36 30.0000000  0  9G29G02G12G18G15G05G25G26G21
    922301.76648   1030107.54746  21209486.5864                   21209484.2664
 -43196723.78147 -33605223.37145  22455873.0554                   22455869.3714
 -19622271.77747 -15239655.27045  22996803.5704   22996801.3954
  40327754.87546  31463034.35543  24680015.7504   24680013.9574   23180554.00047
  18102417.16445                  22957560.6334                   22957559.3164
 -21925826.96148 -17035376.41446  21274817.0474                   21274814.7034
  -5925238.24648  -4575026.81646  22130822.2274   22130822.3134   12352156.86347
   9672327.54745                  22182534.5314                   22182532.9774
  32810434.10546  25866837.93443  24625104.9224                   24625103.3014
 11  8 12  3 37  0.0000000  0  9G29G02G12G18G15G05G25G26G21
    766910.49248    909023.45346  21179916.6334                   21179914.2854
 -43240661.75847 -33639460.76245  22447512.2974                   22447507.8874
 -19623120.92247 -15240316.94145  22996642.2974   22996639.7034
  40146134.58646  31321512.19143  24645454.2114   24645452.8054   22994607.82447
  17957524.11745                  22922176.3984                   22922174.9534
 -21952168.04748 -17055901.92246  21269804.7814                   21269802.0554
  -5966219.03148  -4606959.89146  22123023.4454   22123023.9224   12186689.75447
   9543392.17645                  22151047.2664                   22151045.3754
  32660706.14846  25750166.89143  24596612.5084                   24596611.1414
 11  8 12  3 37 30.0000000  0  9G29G02G12G18G15G05G25G26G21
    611815.50448    788170.23446  21150403.4064                   21150400.6094
 -43284497.49647 -33673618.51245  22439170.6804                   22439166.7194
 -19623826.43447 -15240866.69545  22996507.8754   22996505.8204
  39964679.52346  31180118.70343  24610925.1024   24610922.9414   22808803.30147
  17812741.43845                  22886818.5784                   22886817.0984
 -21978196.61348 -17076183.90246  21264851.7504                   21264848.9384
  -6006778.36748  -4638564.56246  22115305.3594   22115305.7704   12021630.82847
   9414774.85945                  22119638.0234                   22119635.6414
  32510962.69546  25633483.78143  24568117.6804                   24568115.6914
 11  8 12  3 38  0.0000000  0  9G29G02G12G18G15G05G25G26G21
    457018.28948    667549.06346  21120946.5164                   21120943.0664
 -43328231.97347 -33707697.32045  22430848.8284                   22430844.4964
 -19624392.14847 -15241307.53145  22996400.2424   22996397.7734
  39783389.86746  31038854.16443  24576426.3054   24576424.9884   22623142.46947
  17668070.71545                  22851488.8364                   22851486.9734
 -22003916.01648 -17096224.97346  21259957.1334                   21259954.5594
  -6046919.84848  -4669843.63346  22107667.0314   22107667.1564   11856982.36748
   9286477.39145                  22088306.2584                   22088304.3984
  32361202.05546  25516787.26243  24539619.4304                   24539617.2154
 11  8 12  3 38 30.0000000  0  9G29G02G12G18G15G05G25G26G21
    302523.55148    547163.57046  21091546.4224                   21091544.5314
 -43371862.34047 -33741695.02745  22422545.8754                   22422542.0044
 -19624819.23047 -15241640.32045  22996318.9064   22996316.8054
  39602269.09046  30897721.16043  24541959.9224   24541957.8364   22437630.75447
  17523516.18845                  22816186.7504                   22816184.9144
 -22029326.52048 -17116025.35946  21255121.6174                   21255119.0514
  -6086643.88748  -4700797.42246  22100107.5234   22100107.5234   11692750.23048
   9158504.32845                  22057053.8914                   22057051.8834
  32211426.28947  25400078.97743  24511117.5784                   24511114.9344
 11  8 12  3 39  0.0000000  0  9G29G02G12G18G15G05G25G26G21
    148329.28148    427012.21946  21062204.7504                   21062202.0354
 -43415392.23047 -33775614.43745  22414262.6724                   22414258.3984
 -19625114.77047 -15241870.60945  22996262.7344   22996260.4774
  39421314.79346  30756717.94143  24507525.9614   24507523.3634   22252267.37147
  17379077.24645                  22780913.8914                   22780911.4694
 -22054434.71948 -17135590.18446  21250344.0004                   21250341.4024
  -6125956.77048  -4731430.82446  22092626.9064   22092626.7274   11528934.19547
   9030855.50045                  22025880.6024                   22025878.7234
  32061631.04346  25283355.48043  24482611.8674                   24482609.8484
 11  8 12  3 39 30.0000000  0  9G29G02G12G18G15G05G25G26G21
     -5558.03148    307100.04746  21032920.8754                   21032918.3244
 -43458817.59448 -33809452.39545  22405998.7194                   22405994.8324
 -19625277.45747 -15241997.39845  22996231.6564   22996229.5984
  39240532.21946  30615848.45743  24473123.6334   24473121.6994   22067059.26247
  17234759.28145                  22745669.6334                   22745666.9024
 -22079238.96948 -17154918.16046  21245623.6644                   21245620.8794
  -6164857.41448  -4761743.00446  22085223.9534   22085224.2194   11365541.29748
   8903536.39145                  21994788.1804                   21994786.4454
  31911820.07847  25166619.73443  24454104.1094                   24454101.7814
 11  8 12  3 40  0.0000000  0  9G29G02G12G18G15G05G25G26G21
   -159134.30948    187430.23446  21003696.1254                   21003693.1884
 -43502136.09047 -33843207.05945  22397755.5634                   22397751.5944
 -19625308.94547 -15242021.92645  22996226.1254   22996223.2854
  39059923.90646  30475114.80543  24438755.2034   24438752.5824   21882011.25847
  17090566.08645                  22710456.5084                   22710453.9344
 -22103740.09048 -17174009.93046  21240961.5084                   21240958.6684
  -6203346.74648  -4791734.68746  22077899.5864   22077899.8164   11202576.74647
   8776551.06645                  21963776.5004                   21963775.3244
  31761994.27046  25049872.44143  24425593.6254                   24425590.8094
 11  8 12  3 40 30.0000000  0  9G29G02G12G18G15G05G25G26G21
   -312402.36748     68000.58646  20974530.0474                   20974528.0354
 -43545352.78547 -33876882.41445  22389531.6484                   22389527.3874
 -19625217.80547 -15241950.88345  22996242.8754   22996240.6884
  38879485.73046  30334513.73443  24404418.2664   24404416.3054   21697120.92647
  16946495.73845                  22675272.6174                   22675270.5704
 -22127945.89148 -17192871.57446  21236354.9844                   21236352.7974
  -6241432.73048  -4821412.06646  22070652.0314   22070652.3364   11040038.67248
   8649898.06645                  21932846.7974                   21932844.9184
  31612147.73446  24933108.96943  24397078.5554                   24397075.3284
 11  8 12  3 41  0.0000000  0  9G29G02G12G18G15G05G25G26G21
   -465356.97748    -51184.81246  20945423.9694                   20945421.2154
 -43588464.78547 -33910476.18745  22381327.6334                   22381323.5704
 -19625004.02047 -15241784.27745  22996283.8284   22996281.4574
  38699221.82046  30194048.43843  24370115.9144   24370113.0204   21512394.36347
  16802553.01645                  22640120.3754                   22640118.4494
 -22151856.05148 -17211502.85946  21231805.3284                   21231802.3134
  -6279115.35248  -4850775.13345  22063481.5704   22063481.3554   10877933.26648
   8523582.21545                  21901998.8594                   21901997.4614
  31462283.10246  24816331.43443  24368560.0004                   24368558.0554
 11  8 12  3 41 30.0000000  0  9G29G02G12G18G15G05G25G26G21
   -617994.29748   -170122.96546  20916378.0084                   20916375.6764
 -43631469.50847 -33943986.35545  22373143.9064                   22373140.3634
 -19624668.64847 -15241522.95745  22996347.4144   22996344.9384
  38519135.26646  30053721.32443  24335846.0394   24335843.9304   21327836.59047
  16658741.82445                  22604999.8524                   22604998.2074
 -22175471.14148 -17229904.21146  21227311.4774                   21227308.5004
  -6316395.10948  -4879824.28145  22056387.2584   22056387.4144   10716266.05947
   8397607.79745                  21871234.8284                   21871233.3834
  31312401.83247  24699540.93043  24340038.8054                   24340036.2424
 11  8 12  3 42  0.0000000  0  9G29G02G12G18G15G05G25G26G21
    805111.60948    938790.74246  21187186.0164                   21187183.6134
 -42098946.83647 -32749812.85245  22664773.5634                   22664769.7814
 -18048796.35947 -14013570.52045  23296225.9844   23296223.9144
  39914651.97746  31141136.95343  24601404.2504   24601401.7154   22718875.30947
  17742668.14845                  22869706.1724                   22869703.9734
 -20623374.34048 -16020478.12946  21522665.8054                   21522662.9804
  -4777855.12948  -3680961.94946  22349161.8364   22349161.7034   12130464.15248
   9499580.37945                  22140347.6484   22140345.5594   32737926.69547
  25810339.64843  24611306.5314   24611304.2274
 11  8 12  3 42 30.0000000  0  9G29G02G12G18G15G05G25G26G21
    653112.92248    820350.23046  21158261.5634                   21158259.2154
 -42141739.17247 -32783157.53545  22656630.4534                   22656626.2584
 -18048230.35247 -14013129.47745  23296333.9224   23296331.5904
  39734920.99246  31001086.91043  24567202.4454   24567200.1644   22534661.29347
  17599124.82045                  22834651.0084                   22834649.2704
 -20646409.74648 -16038427.80146  21518282.0554                   21518279.5394
  -4814340.52348  -3709392.12545  22342218.6724   22342219.2774   11969680.06347
   9374294.10945                  22109751.2504   22109749.7814   32588007.46947
  25693519.53543  24582778.0004   24582775.5434
 11  8 12  3 43  0.0000000  0  9G29G02G12G18G15G05G25G26G21
    501437.48448    702161.59846  21129398.6644                   21129396.3984
 -42184424.47347 -32816418.81645  22648507.4844                   22648503.7114
 -18047553.39547 -14012601.98845  23296462.7584   23296460.5164
  39555369.92246  30861177.00843  24533034.8284   24533032.5004   22350624.16447
  17455719.32445                  22799629.8984                   22799627.6294
 -20669158.57848 -16056154.15246  21513953.3984                   21513950.3404
  -4850432.46147  -3737515.69945  22335350.7734   22335351.1604   11809343.09447
   9249356.25445                  22079240.1724   22079238.5664   32438068.95746
  25576684.38343  24554245.7274   24554243.4734
 11  8 12  3 43 30.0000000  0  9G29G02G12G18G15G05G25G26G21
    350088.83248    584227.60246  21100597.9224                   21100595.9924
 -42227001.43747 -32849595.68445  22640405.4614                   22640401.4414
 -18046767.23847 -14011989.39845  23296611.9774   23296610.0394
  39376001.13746  30721409.23843  24498902.8914   24498899.5514   22166768.06347
  17312454.89845                  22764643.5704                   22764641.3164
 -20691622.32048 -16073658.36346  21509678.4924                   21509676.1484
  -4886132.68448  -3765334.06245  22328557.0474   22328557.4104   11649457.60248
   9124770.18445                  22048815.1644   22048813.2734   32288112.04747
  25459834.92243  24525709.7894   24525707.3094
 11  8 12  3 44  0.0000000  0  9G29G02G12G18G15G05G25G26G21
    199066.99248    466548.26246  21071859.7034                   21071856.9804
 -42269471.69147 -32882689.39145  22632323.5394                   22632319.6524
 -18045877.35547 -14011295.97344  23296781.6094   23296779.1994
  39196813.54346  30581782.61743  24464803.4224   24464801.7544   21983094.24247
  17169332.50045                  22729691.6484                   22729689.2424
 -20713805.73048 -16090944.13346  21505457.2664                   21505454.1994
  -4921446.04347  -3792850.95345  22321837.2664   22321837.3674   11490024.52747
   9000536.65245                  22018476.1414   22018474.2424   32138133.78546
  25342968.83643  24497170.2274   24497167.4454
 11  8 12  3 44 30.0000000  0  9G29G02G12G18G15G05G25G26G21
     48375.81648    349126.59046  21043183.6564                   21043181.2624
 -42311833.29747 -32915698.44945  22624262.3054                   22624258.2894
 -18044885.05147 -14010522.77045  23296969.8284   23296968.3204
  39017809.83646  30442299.26243  24430740.4534   24430738.0824   21799607.03147
  17026355.50445                  22694774.6954                   22694772.4694
 -20735709.57848 -16108012.07046  21501288.9144                   21501286.0594
  -4956373.76248  -3820067.34446  22315190.8834   22315190.9844   11331048.98848
   8876659.63345                  21988224.0704   21988221.8984   31988135.59046
  25226087.19543  24468626.4144   24468623.9964
 11  8 12  3 45  0.0000000  0  9G29G02G12G18G15G05G25G26G21
   -101982.47348    231964.29746  21014571.4844                   21014568.8714
 -42354085.85947 -32948622.53945  22616222.0234                   22616218.0594
 -18043793.40247 -14009672.13744  23297178.3834   23297175.6954
  38838991.21946  30302960.13343  24396712.1334   24396710.1884   21616309.55947
  16883526.37545                  22659894.3594                   22659892.3284
 -20757336.27048 -16124864.03546  21497173.2814                   21497170.8204
  -4990918.47348  -3846985.30146  22308617.0704   22308616.9454   11172534.35547
   8753141.77045                  21958059.5234   21958057.5594   31838117.19946
  25109189.82843  24440078.2274   24440075.8634
 11  8 12  3 45 30.0000000  0  9G29G02G12G18G15G05G25G26G21
   -252005.83248    115063.00446  20986023.5314                   20986020.4884
 -42396229.71547 -32981461.91045  22608202.6804                   22608198.7114
 -18042605.86347 -14008746.77744  23297404.1564   23297402.0594
  38660358.26246  30163765.71143  24362719.5474   24362717.2704   21433204.76647
  16740847.37545                  22625050.9144                   22625048.1254
 -20778688.78948 -16141502.36346  21493110.1804                   21493107.4264
  -5025083.50848  -3873607.39146  22302115.9614   22302115.4304   11014483.42647
   8629985.24245                  21927983.3364   21927981.5984   31688076.90246
  24992275.40243  24411526.9694   24411524.5744
 11  8 12  3 46  0.0000000  0  9G29G02G12G18G15G05G25G26G21
   -401690.82448     -1574.63746  20957539.1414                   20957536.6214
 -42438263.34847 -33014215.41045  22600203.7664                   22600200.4304
 -18041324.39147 -14007748.21944  23297647.9454   23297645.5944
  38481913.33646  30024717.72743  24328762.9694   24328760.0394   21250296.60547
  16598321.58645                  22590244.1174                   22590241.9694
 -20799768.66848 -16157928.23846  21489098.9144                   21489096.0164
  -5058870.53547  -3899934.93445  22295686.3914   22295686.4344   10856900.62147
   8507193.47345                  21897996.6254   21897994.8014   31538016.34846
  24875345.20743  24382970.5474   24382968.7194
 11  8 12  3 46 30.0000000  0  9G29G02G12G18G15G05G25G26G21
   -551034.82848   -117946.56646  20929119.6724                   20929117.0744
 -42480186.31247 -33046882.67245  22592225.6174                   22592222.0354
 -18039952.00447 -14006678.84044  23297908.5394   23297906.7854
  38303657.50446  29885817.15243  24294841.8524   24294839.5004   21067588.15247
  16455951.40645                  22555476.0394                   22555473.4804
 -20820577.91848 -16174143.23846  21485139.2974                   21485136.1644
  -5092282.31648  -3925970.07846  22289328.4304   22289328.7584   10699789.16447
   8384769.00045                  21868099.1484   21868097.4494   31387934.77346
  24758398.60943  24354410.8754   24354408.5824
 11  8 12  3 47  0.0000000  0  9G29G02G12G18G15G05G25G26G21
   -700038.13348   -234053.01646  20900765.6334                   20900762.7504
 -42522000.47747 -33079465.16845  22584269.1334                   22584265.3164
 -18038494.10547 -14005542.80544  23298186.2034   23298184.2274
  38125589.68046  29747063.03543  24260956.2974   24260954.2194   20885080.40247
  16313737.62545                  22520745.4614                   22520743.2974
 -20841121.79748 -16190151.45746  21481229.3834                   21481226.7384
  -5125323.95348  -3951716.80545  22283040.8364   22283040.5944   10543150.25447
   8262712.73845                  21838291.8284   21838289.3094   31237829.53146
  24641433.59843  24325846.8674   24325845.3284
 11  8 12  3 47 30.0000000  0  9G29G02G12G18G15G05G25G26G21
   -848695.98448   -349890.29346  20872476.9844                   20872474.1094
 -42563702.84847 -33111960.54345  22576333.1954                   22576329.4964
 -18036951.20347 -14004340.53544  23298479.7974   23298477.7814
  37947713.78946  29608458.46543  24227107.3984   24227104.9734   20702778.95747
  16171684.59845                  22486055.5394                   22486052.5044
 -20861400.09448 -16205952.73046  21477370.9844                   21477368.1174
  -5157995.73047  -3977175.32445  22276823.1254   22276823.2974   10386989.45347
   8141029.03545                  21808575.1954   21808573.3364   31087702.84446
  24524451.87943  24297278.6884   24297276.8014
 11  8 12  3 48  0.0000000  0  9G29G02G12G18G15G05G25G26G21
   -997007.97348   -465458.05546  20844253.8134                   20844251.1804
 -42605295.07447 -33144370.09845  22568419.0234                   22568415.1454
 -18035328.26247 -14003075.89544  23298789.3204   23298786.5944
  37770028.61346  29470002.57043  24193295.3204   24193293.1334   20520685.07447
  16029793.30145                  22451403.5474                   22451401.0984
 -20881416.94548 -16221550.28146  21473561.4144                   21473558.8164
  -5190302.36748  -4002349.31245  22270675.3444   22270675.5164   10231308.21147
   8019719.00445                  21778950.0784   21778948.3324   30937552.76646
  24407451.93043  24268705.6804   24268704.2584
 11  8 12  3 48 30.0000000  0  9G29G02G12G18G15G05G25G26G21
  -1144970.34448   -580753.38746  20816097.6644                   20816094.9454
 -42646775.43447 -33176692.48445  22560525.3204                   22560521.4024
 -18033626.85947 -14001750.12544  23299112.6024   23299110.8484
  37592536.74246  29331697.21143  24159520.1724   24159517.3834   20338803.06647
  15888067.09045                  22416792.8134                   22416790.3984
 -20901173.62148 -16236945.09046  21469802.1804                   21469799.5824
  -5222245.42248  -4027240.01245  22264597.1174   22264597.2664   10076110.93447
   7898786.09845                  21749416.8674   21749414.9264   30787379.57846
  24290433.95743  24240128.3594   24240126.4804
 11  8 12  3 49  0.0000000  0  9G29G02G12G18G15G05G25G26G21
  -1292581.33648   -695774.91846  20788007.9774                   20788005.3364
 -42688143.97747 -33208927.73045  22552653.2734                   22552649.4264
 -18031850.39147 -14000365.86344  23299451.2664   23299448.5314
  37415239.03546  29193543.23843  24125781.1644   24125778.8164   20157135.93847
  15746508.33245                  22382222.4924                   22382220.2934
 -20920672.97748 -16252139.40246  21466091.6644                   21466088.8554
  -5253828.04347  -4051849.84445  22258587.0864   22258587.4224
   9921400.71947   7778232.71945  21719976.7034   21719974.6844   30637182.78946
  24173397.58243  24211547.3754   24211544.7774
 11  8 12  3 49 30.0000000  0  9G29G02G12G18G15G05G25G26G21
  -1439837.66848   -810520.10546  20759986.3524                   20759983.7504
 -42729399.22747 -33241074.71545  22544802.6414                   22544798.5274
 -18030001.00047 -13998924.76644  23299802.5554   23299800.1954
  37238137.45946  29055542.04343  24092079.2504   24092077.0984   19975687.50447
  15605119.98045                  22347693.9534                   22347692.0704
 -20939916.44948 -16267134.31646  21462429.6884                   21462427.1134
  -5285052.21947  -4076180.35545  22252644.9614   22252645.8674
   9767181.31647   7658061.78945  21690629.4384   21690627.9344   30486962.89146
  24056343.25043  24182961.0554   24182959.3524
 11  8 12  3 50  0.0000000  0  9G29G02G12G18G15G05G25G26G21
  -1586738.52048   -924988.28946  20732031.8984                   20732029.2704
 -42770542.60947 -33273134.51645  22536973.7424                   22536969.5594
 -18028083.52347 -13997430.62144  23300168.0004   23300165.4304
  37061231.24646  28917693.05143  24058415.9144   24058413.3674   19794459.18047
  15463903.13345                  22313207.1644                   22313205.0124
 -20958908.23448 -16281933.10946  21458815.7734                   21458813.0984
  -5315922.50047  -4100235.12145  22246770.5474   22246770.9574
   9613454.52747   7538274.71145  21661376.3054   21661374.0904   30336717.51246
  23939269.03543  24154369.8754   24154368.4734
 11  8 12  3 50 30.0000000  0  9G29G02G12G18G15G05G25G26G21
   -157856.09848    188426.59846  21003939.2734                   21003936.2194
 -41236151.60247 -32077505.18445  22828958.6564                   22828954.2734
 -16450679.73447 -12768284.81244  23600337.6644   23600334.9694
  38459948.35246  30007602.52343  24324582.2504   24324579.6954   21188880.71147
  16550465.40645                  22578557.0944                   22578555.0664
 -19402229.33248 -15068936.57846  21755041.7114                   21755038.7274
  -3771019.94947  -2896414.96145  22540756.0164   22540756.2734
  11035649.19547   8646478.37945  21932011.0634   21932009.2814   31761872.64146
  25049779.64843  24425568.1254   24425565.9454
 11  8 12  3 51  0.0000000  0  9G29G02G12G18G15G05G25G26G21
   -304038.14848     74518.52746  20976121.5234                   20976118.8874
 -41277068.58647 -32109388.56645  22821172.4064                   22821167.9224
 -16448633.17647 -12766690.09844  23600727.0004   23600724.5474
  38283437.75046  29870061.82043  24290994.0554   24290991.3094   21008103.25047
  16409599.89845                  22544156.1724                   22544154.0944
 -19420723.43448 -15083347.57446  21751522.4534                   21751519.5514
  -3801189.72347  -2919923.87146  22535014.6804   22535015.2854
  10882918.19947   8527467.24645  21902947.0704                   21902945.0514
  31611577.52346  24932666.66843  24396968.3054                   24396966.0904
 11  8 12  3 51 30.0000000  0  9G29G02G12G18G15G05G25G26G21
   -449858.66848    -39107.83646  20948373.3984                   20948369.9924
 -41317873.03147 -32141184.25845  22813407.3444                   22813402.7934
 -16446528.05547 -12765049.71544  23601127.9454   23601124.7704
  38107125.02346  29732675.29743  24257443.0084   24257439.8484   20827554.69547
  16268912.76245                  22509798.5234                   22509796.7344
 -19438974.15248 -15097568.92246  21748049.6024                   21748046.8634
  -3831014.83247  -2943164.20746  22529339.2504   22529339.7934
  10730688.70747   8408846.89545  21873979.0004                   21873976.3984
  31461255.80947  24815532.95343  24368363.3134                   24368361.1374
 11  8 12  3 52  0.0000000  0  9G29G02G12G18G15G05G25G26G21
   -595314.22748   -152449.81646  20920693.4534                   20920690.9734
 -41358563.81247 -32172891.37545  22805664.3284                   22805659.9304
 -16444366.30147 -12763365.21944  23601539.1414   23601536.2114
  37931012.22346  29595444.57043  24223929.4774   24223927.0234   20647238.89547
  16128406.97345                  22475485.7894                   22475483.3524
 -19456982.25848 -15111601.21946  21744622.8134                   21744620.1954
  -3860497.36747  -2966137.61345  22523728.6484   22523729.0354
  10578964.44147   8290620.23045  21845106.7344                   21845104.5864
  31310907.73047  24698378.70343  24339753.3134                   24339750.2074
 11  8 12  3 52 30.0000000  0  9G29G02G12G18G15G05G25G26G21
   -740401.80548   -265505.04346  20893084.1024                   20893081.6054
 -41399139.57047 -32204508.86345  22797942.6804                   22797938.6764
 -16442149.77746 -12761638.05144  23601960.6174   23601957.9574
  37755101.59446  29458371.37943  24190454.9304   24190452.4614   20467160.00447
  15988085.79345                  22441217.8364                   22441215.5274
 -19474749.42648 -15125445.77046  21741241.3594                   21741239.0474
  -3889639.25447  -2988845.57445  22518183.6564   22518184.0864
  10427749.61347   8172790.52745  21816331.2734                   21816329.2154
  31160534.02347  24581204.46943  24311137.5164                   24311135.0664
 11  8 12  3 53  0.0000000  0  9G29G02G12G18G15G05G25G26G21
   -885117.68448   -378270.63746  20865545.7194                   20865543.1844
 -41439598.41847 -32236035.25844  22790243.8524                   22790239.2854
 -16439880.50847 -12759869.79744  23602392.9144   23602390.7504
  37579395.57846  29321457.61743  24157018.9304   24157016.0234   20287322.80147
  15847952.94545                  22406995.9694                   22406993.7274
 -19492276.79748 -15139103.46546  21737906.3594                   21737903.3634
  -3918441.80947  -3011289.11345  22512702.4224   22512703.0084
  10277048.89147   8055361.42645  21787653.9454                   21787651.8984
  31010135.82447  24464011.14144  24282518.5394                   24282514.7664
 11  8 12  3 53 30.0000000  0  9G29G02G12G18G15G05G25G26G21
  -1029462.44548   -490747.05146  20838077.5634                   20838075.0634
 -41479942.53547 -32267472.25444  22782566.4774                   22782561.9884
 -16437563.77747 -12758064.55144  23602834.0234   23602831.0474
  37403892.39146  29184701.95343  24123622.0864   24123618.8634   20107727.43847
  15708008.55145                  22372820.2114                   22372818.1454
 -19509569.60248 -15152578.38346  21734615.5704                   21734612.9534
  -3946910.75847  -3033472.70345  22507285.3984   22507285.2814
  10126862.50047   7938333.10945  21759074.2974                   21759072.1334
  30859709.96147  24346796.23044  24253892.8134                   24253889.2854
